     2              OBSERVATION DATA    GPS                 RINEX VERSION / TYPE
ASRINEXO V2.7.2 UX SOPAC 02-MAR- 0 15:36                    PGM / RUN BY / DATE
                                                            COMMENT
Original Marker Name: 0602                                  COMMENT
Campaign Name: HPGN 1991                                    COMMENT
4-Character Station Name: 0602                              COMMENT
6-Character Antenna Code: ASHL12                            COMMENT
Vertical Measurement Point: BAS                             COMMENT
Vertical Offset to Rinex Ref. Point: 0.0000                 COMMENT
Radial Measurement Point: RRP                               COMMENT
Radial Offset to Rinex Ref. Point: 0.0000                   COMMENT
Antenna Height from Field Measurement: 2.2150 m             COMMENT
Additional Antenna Identification Info.:                    COMMENT
Original Ashtech L1/L2                                      COMMENT
Original XYZ: 6378137.0000 0.0000 0.0000                    COMMENT
New XYZ position is based on association with SCEC monument COMMENT
E1F7T7E6+0011. Position of that monument is believed to be  COMMENT
valid to within 1 m horizontally; vertical accuracy         COMMENT
should be no worse than 3-times this value.                 COMMENT
                                                            COMMENT
Revised Rinex header created by UCSD GPS archive for        COMMENT
GSAC on 17-Mar-2000 (2000:077) 22:21:34 GMT                 COMMENT
For assistance contact dagnew@ucsd.edu or hjohnson@ucsd.edu COMMENT
                                                            COMMENT
HPGN CA 06 02                                               MARKER NAME
WGV CALIF DEPT TRANSPORTATION                               OBSERVER / AGENCY
577 ASHTECH L-XII 6A                                        REC # / TYPE / VERS
631 ASHTECH GEODETIC L                                      ANT # / TYPE
 -2470814.6186 -4462295.8355  3819784.4584                  APPROX POSITION XYZ
        2.2150        0.0000        0.0000                  ANTENNA: DELTA H/E/N
     1     2     0                                          WAVELENGTH FACT L1/2
     3    C1    L1    L2                                    # / TYPES OF OBSERV
     0                                                      INTERVAL
  1991     6     3    16    48   15.000000                  TIME OF FIRST OBS
  1991     6     3    19    43   15.000000                  TIME OF LAST OBS
                                                            END OF HEADER
 91  6  3 16 48 15.0000000  0  1 11
  25055020.074           0.975 2         0.247 1
 91  6  3 16 48 30.0000000  0  1 11
  25048001.928      -36962.398 2    -28802.380 1
 91  6  3 16 48 45.0000000  0  3 18 19 11
  29212042.721           0.062 4         0.087 3
  29559652.079           0.539 3         0.049 3
  33135341.182        -908.590 2      -708.676 1
 91  6  3 16 49  0.0000000  0  3 18 19 11
  29214875.764       14878.145 3     11593.380 3
  29558833.647       -4331.816 3     -3375.817 3
  33128263.976      -38099.202 2    -29688.277 1
 91  6  3 16 49 15.0000000  0  3 18 19 11
  29217702.804       29741.893 3     23175.498 3
  29557990.932       -8736.521 3     -6808.053 2
  33121160.097      -75354.990 2    -58718.737 1
 91  6  3 16 49 30.0000000  0  3 18 19 11
  29220532.243       44620.403 3     34769.124 3
  29557141.019      -13184.948 3    -10274.362 2
  33114082.594     -112646.808 2    -87777.201 1
 91  6  3 16 49 45.0000000  0  3 18 19 11
  29223368.584       59535.789 3     46391.491 3
  29556289.003      -17655.109 3    -13757.608 3
  33106977.520     -149952.050 2   -116846.104 1
 91  6  3 16 50  0.0000000  0  3 18 19 11
  29226218.414       74501.089 4     58052.740 3
  29555442.991      -22133.678 3    -17247.402 2
  33099883.527     -187257.049 2   -145914.856 1
 91  6  3 16 50 15.0000000  0  3 18 19 11
  28929289.270       89538.914 4     69770.506 3
  29254798.826      -26599.738 3    -20727.462 3
  32792998.579     -224542.693 2   -174968.526 1
 91  6  3 16 50 30.0000000  0  3 18 19 11
  28932167.875      104687.354 3     81574.461 3
  29253961.206      -31012.471 3    -24165.953 3
  32785907.892     -261763.246 2   -203971.428 1
 91  6  3 16 50 45.0000000  0  3 18 19 11
  29834448.144      119928.437 4     93450.613 3
  30152499.163      -35387.434 3    -27575.023 2
  33678205.660     -298929.243 2   -232931.894 1
 91  6  3 16 51  0.0000000  0  3 18 19 11
  29837368.717      135282.934 4    105415.136 3
  30151684.325      -39711.625 3    -30944.532 3
  33671147.945     -336040.479 2   -261849.581 1
 91  6  3 16 51 15.0000000  0  3 18 19 11
  28940935.004      150755.537 4    117471.689 3
  29251491.817      -43980.454 3    -34270.894 2
  32764723.058     -373091.872 2   -290720.668 1
 91  6  3 16 51 30.0000000  0  3 18 19 11
  28943903.556      166349.513 4    129622.820 3
  29250689.867      -48182.925 3    -37545.551 3
  32757686.327     -410058.988 2   -319526.144 1
 91  6  3 16 51 45.0000000  0  4 02 18 19 11
  32629168.894           0.296 2         0.139 1
  28647106.021      182077.600 3    141878.446 3
  28950112.850      -52311.613 3    -40762.708 3
  32450871.233     -446942.748 2   -348266.586 1
 91  6  3 16 52  0.0000000  0  4 02 18 19 11
  32619974.261      -48339.790 2    -37667.355 1
  28650127.029      197946.966 4    154244.167 3
  28949342.388      -56356.621 3    -43914.674 2
  32443884.864     -483728.371 2   -376930.562 1
 91  6  3 16 52 15.0000000  0  4 02 18 19 11
  24516374.571      153604.431 2    119691.560 1
  20558779.251        1115.858 3       869.099 3
  20854188.743         253.010 3       196.645 3
  24342496.143        -639.520 2      -497.774 1
 91  6  3 16 52 30.0000000  0  4 02 18 19 11
  24507195.224      105383.140 2     82116.645 1
  20561854.825       17267.169 3     13454.522 3
  20853451.253       -3628.072 3     -2827.583 3
  24335525.967      -37235.332 2    -29013.901 1
 91  6  3 16 52 45.0000000  0  4 02 18 19 11
  24498027.865       57225.673 2     44591.414 1
  20564952.876       33563.489 4     26152.932 3
  20852728.160       -7423.413 3     -5784.993 3
  24328580.370      -73731.765 2    -57452.620 1
 91  6  3 16 53  0.0000000  0  4 02 18 19 11
  24488877.303        9145.556 2      7126.465 1
  20568087.206       50017.980 4     38974.591 3
  20852027.542      -11119.674 3     -8665.197 3
  24321663.863     -110114.991 2    -85803.061 1
 91  6  3 16 53 15.0000000  0  4 02 18 19 11
  24479742.925      -38848.767 2    -30271.574 1
  20571253.321       66639.049 4     51926.052 3
  20851344.611      -14708.514 3    -11461.701 2
  24314752.146     -146376.285 2   -114058.484 1
 91  6  3 16 53 30.0000000  0  4 02 18 19 11
  24470631.931      -86767.201 2    -67610.559 1
  20574442.810       83416.826 4     64999.617 3
  20850677.279      -18199.963 3    -14182.316 3
  24307875.809     -182525.193 2   -142226.352 1
 91  6  3 16 53 45.0000000  0  4 02 18 19 11
  24461527.533     -134599.178 2   -104882.149 1
  20577670.071      100361.590 4     78203.308 3
  20850031.525      -21583.727 3    -16819.023 2
  24301011.757     -218550.921 2   -170298.255 1
 91  6  3 16 54  0.0000000  0  4 02 18 19 11
  24452447.426     -182337.544 2   -142080.865 1
  20580923.725      117480.094 3     91542.380 3
  20849418.447      -24852.955 3    -19366.474 3
  24294190.877     -254446.306 2   -198268.553 1
 91  6  3 16 54 15.0000000  0  4 02 18 19 11
  24443375.703     -229986.206 2   -179209.623 1
  20584216.939      134768.502 4    105013.844 3
  20848813.771      -28011.734 3    -21827.862 3
  24287382.291     -290214.894 2   -226140.056 1
 91  6  3 16 54 30.0000000  0  4 02 18 19 11
  24434326.465     -277535.483 2   -216260.909 1
  20587538.946      152236.320 4    118625.115 3
  20848233.368      -31050.690 3    -24195.883 2
  24280603.387     -325846.859 2   -253905.111 1
 91  6  3 16 54 45.0000000  0  4 02 18 19 11
  24425301.518     -324970.533 2   -253223.232 1
  20590901.420      169898.228 4    132387.622 3
  20847677.552      -33955.024 3    -26458.999 3
  24273849.368     -361327.114 2   -281551.928 1
 91  6  3 16 55  0.0000000  0  4 02 18 19 11
  24416293.052     -372290.797 2   -290096.075 1
  20594297.764      187754.491 4    146301.564 3
  20847152.920      -36724.400 3    -28616.962 3
  24267125.023     -396654.826 2   -309079.966 1
 91  6  3 16 55 15.0000000  0  4 02 18 19 11
  24407311.268     -419497.224 2   -326880.275 1
  20597733.982      205803.706 4    160365.869 3
  20846658.555      -39360.004 3    -30670.680 3
  24260439.643     -431830.766 2   -336489.676 1
 91  6  3 16 55 30.0000000  0  4 02 18 19 11
  24398353.775     -466583.391 2   -363570.733 1
  20601204.979      224052.363 4    174585.576 3
  20846182.784      -41855.701 3    -32615.378 2
  24253776.758     -466848.353 2   -363775.961 1
 91  6  3 16 55 45.0000000  0  4 02 18 19 11
  24389419.953     -513537.390 2   -400158.236 1
  20604717.952      242512.024 4    188969.706 3
  20845734.296      -44199.708 3    -34441.884 2
  24247132.762     -501695.390 2   -390929.440 1
 91  6  3 16 56  0.0000000  0  4 02 18 19 11
  24380502.333     -560369.681 2   -436650.884 1
  20608267.196      261172.112 4    203510.007 3
  20845310.988      -46402.892 3    -36158.655 2
  24240531.929     -536382.249 2   -417958.039 1
 91  6  3 16 56 15.0000000  0  4 02 18 19 11
  24371615.286     -607077.011 2   -473046.150 1
  20611858.110      280035.805 4    218208.961 3
  20844923.663      -48462.275 3    -37763.370 2
  24233968.274     -570905.356 2   -444859.040 1
 91  6  3 16 56 30.0000000  0  4 02 18 19 11
  24362757.015     -653644.925 2   -509332.759 1
  20615494.893      299117.350 4    233077.677 3
  20844564.206      -50363.518 3    -39244.859 2
  24227432.199     -605249.990 2   -471620.988 1
 91  6  3 16 56 45.0000000  0  4 02 18 19 11
  24353922.728     -700075.345 2   -545512.243 1
  20619164.054      318414.611 4    248114.477 3
  20844224.843      -52108.754 3    -40604.794 3
  24220932.699     -639418.012 2   -498245.309 1
 91  6  3 16 57  0.0000000  0  4 02 18 19 11
  24345111.232     -746374.913 2   -581589.786 1
  20622873.080      337920.651 4    263313.968 3
  20843928.050      -53704.938 3    -41848.586 3
  24214458.075     -673415.804 2   -524737.027 1
 91  6  3 16 57 15.0000000  0  4 02 18 19 11
  24336327.011     -792543.428 2   -617565.169 1
  20626627.085      357635.521 4    278676.184 3
  20843648.646      -55152.051 3    -42976.206 2
  24208023.334     -707242.992 2   -551095.790 1
 91  6  3 16 57 30.0000000  0  4 02 18 19 11
  24327567.080     -838574.416 2   -653433.459 1
  20630416.757      377565.294 4    294205.853 3
  20843405.215      -56443.866 3    -43982.819 2
  24201620.064     -740892.846 2   -577316.339 1
 91  6  3 16 57 45.0000000  0  4 02 18 19 11
  24318829.922     -884478.464 2   -689202.815 1
  20634254.104      397699.304 4    309894.658 3
  20843186.067      -57591.350 3    -44876.973 2
  24195243.780     -774375.815 2   -603406.899 1
 91  6  3 16 58  0.0000000  0  4 02 18 19 11
  24310109.865     -930249.024 2   -724868.074 1
  20638118.131      418043.859 4    325747.533 3
  20842996.295      -58587.963 3    -45653.563 2
  24188908.269     -807685.159 2   -629362.107 1
 91  6  3 16 58 15.0000000  0  4 02 18 19 11
  24301431.767     -975887.794 2   -760430.746 1
  20642032.215      438597.252 4    341763.136 3
  20842833.808      -59435.562 3    -46314.031 3
  24182601.830     -840822.169 2   -655183.083 1
 91  6  3 16 58 30.0000000  0  4 02 18 19 11
  24292784.259    -1021399.200 2   -795894.105 1
  20645981.688      459354.637 4    357937.705 3
  20842709.091      -60138.825 3    -46862.042 2
  24176329.873     -873791.044 2   -680873.009 1
 91  6  3 16 58 45.0000000  0  4 02 18 19 11
  24284140.041    -1066782.008 2   -831257.282 1
  20649973.120      480317.234 4    374272.170 3
  20842595.769      -60696.833 3    -47296.856 2
  24170083.402     -906590.496 2   -706430.959 1
 91  6  3 16 59  0.0000000  0  4 02 18 19 11
  24275526.107    -1112028.755 2   -866514.398 1
  20653999.034      501492.229 4    390772.140 3
  20842516.327      -61102.409 3    -47612.900 2
  24163883.095     -939212.890 2   -731850.918 1
 91  6  3 16 59 15.0000000  0  4 02 18 19 11
  24266946.943    -1157149.082 2   -901673.017 1
  20658068.119      522869.919 4    407430.054 3
  20842465.661      -61365.382 3    -47817.824 3
  24157703.467     -971667.553 2   -757140.146 1
 91  6  3 16 59 30.0000000  0  4 02 18 19 11
  24258373.477    -1202139.828 2   -936730.730 1
  20662174.975      544452.977 4    424247.988 3
  20842443.778      -61482.898 3    -47909.398 2
  24151567.918    -1003951.189 2   -782296.123 1
 91  6  3 16 59 45.0000000  0  4 02 18 19 11
  24249839.282    -1247000.451 2   -971686.975 1
  20666324.698      566241.860 4    441226.313 3
  20842444.973      -61454.383 3    -47887.172 2
  24145453.353    -1036062.857 2   -807318.169 1
 91  6  3 17  0  0.0000000  0  4 02 18 19 11
  24241329.378    -1291721.364 2  -1006534.403 1
  20670508.301      588246.030 4    458372.392 3
  20842488.145      -61270.519 3    -47743.918 2
  24139369.064    -1067992.877 2   -832198.570 1
 91  6  3 17  0 15.0000000  0  4 02 18 19 11
  24232850.945    -1336310.326 2  -1041279.008 1
  20674735.677      610457.779 4    475680.224 3
  20842549.003      -60939.086 3    -47485.671 3
  24133333.941    -1099748.678 2   -856943.225 1
 91  6  3 17  0 30.0000000  0  4 02 18 19 11
  24224394.098    -1380771.177 2  -1075923.729 1
  20679003.224      632872.637 4    493146.315 3
  20842634.744      -60464.465 3    -47115.842 3
  24127317.708    -1131334.067 2   -881555.150 1
 91  6  3 17  0 45.0000000  0  4 02 18 19 11
  24215948.045    -1425105.901 2  -1110470.203 1
  20683304.345      655488.352 4    510768.923 3
  20842753.764      -59848.811 3    -46636.125 2
  24121341.646    -1162750.842 2   -906035.708 1
 91  6  3 17  1  0.0000000  0  4 02 18 19 11
  24207542.170    -1469311.232 2  -1144915.877 1
  20687649.842      678308.306 4    528550.681 3
  20842894.962      -59089.118 3    -46044.159 2
  24115395.859    -1193995.491 2   -930382.136 1
 91  6  3 17  1 15.0000000  0  4 02 18 19 11
  24199164.164    -1513388.722 2  -1179261.942 1
  20692028.904      701330.363 4    546489.909 3
  20843070.939      -58186.866 3    -45341.103 3
  24109480.654    -1225069.212 2   -954595.324 1
 91  6  3 17  1 30.0000000  0  4 02 18 19 11
  24190788.862    -1557337.508 2  -1213507.667 1
  20696449.349      724555.492 4    564587.386 3
  20843269.706      -57141.536 3    -44526.567 3
  24103602.923    -1255971.054 2   -978674.595 1
 91  6  3 17  1 45.0000000  0  4 02 18 19 11
  24182442.641    -1601162.783 2  -1247657.195 1
  20700907.863      747978.304 4    582838.896 3
  20843495.450      -55958.665 3    -43604.865 3
  24097755.469    -1286705.910 2  -1002623.760 1
 91  6  3 17  2  0.0000000  0  4 02 18 19 11
  24174137.794    -1644856.163 2  -1281703.888 1
  20705402.053      771606.926 4    601250.781 3
  20843748.775      -54629.920 3    -42569.484 2
  24091934.705    -1317265.234 2  -1026436.170 1
 91  6  3 17  2 15.0000000  0  4 02 18 19 11
  24165841.036    -1688423.573 2  -1315652.482 1
  20709935.811      795435.190 4    619818.241 3
  20844028.476      -53161.447 3    -41425.216 3
  24086160.995    -1347654.799 2  -1050116.271 1
 91  6  3 17  2 30.0000000  0  4 02 18 19 11
  24157575.156    -1731865.075 2  -1349502.915 1
  20714507.044      819462.823 4    638541.038 3
  20844339.360      -51553.604 3    -40172.362 2
  24080407.684    -1377874.358 2  -1073663.918 1
 91  6  3 17  2 45.0000000  0  4 02 18 19 11
  24149335.364    -1775188.138 2  -1383261.079 1
  20719120.254      843682.324 4    657413.345 3
  20844662.242      -49814.137 3    -38816.936 3
  24074692.441    -1407931.277 2  -1097084.846 1
 91  6  3 17  3  0.0000000  0  4 02 18 19 11
  24141118.955    -1818386.434 2  -1416922.057 1
  20723762.535      868099.380 4    676439.593 3
  20845020.189      -47936.899 3    -37354.168 3
  24068990.382    -1437819.049 2  -1120373.958 1
 91  6  3 17  3 15.0000000  0  4 02 18 19 11
  24132909.439    -1861460.368 2  -1450486.074 1
  20728448.896      892713.739 4    695619.579 3
  20845405.429      -45922.385 3    -35784.408 2
  24063338.998    -1467537.692 2  -1143531.308 1
 91  6  3 17  3 30.0000000  0  4 02 18 19 11
  24124746.689    -1904412.800 2  -1483955.415 1
  20733169.127      917522.382 4    714950.956 3
  20845820.343      -43773.517 3    -34109.972 3
  24057713.693    -1497089.705 2  -1166558.725 1
 91  6  3 17  3 45.0000000  0  4 02 18 19 11
  24116598.327    -1947237.197 2  -1517325.028 1
  20737930.733      942531.265 4    734438.375 3
  20846248.440      -41484.220 3    -32326.115 3
  24052123.760    -1526468.560 2  -1189451.301 1
 91  6  3 17  4  0.0000000  0  4 02 18 19 11
  24108468.254    -1989932.194 2  -1550593.780 1
  20742728.007      967741.715 4    754082.857 3
  20846717.319      -39053.335 3    -30431.925 2
  24046571.005    -1555672.781 2  -1212207.784 1
 91  6  3 17  4 15.0000000  0  4 02 18 19 11
  24100366.065    -2032504.154 2  -1583766.626 1
  20747562.163      993147.004 4    773879.153 3
  20847198.788      -36487.502 3    -28432.581 3
  24041039.836    -1584708.506 2  -1234832.968 1
 91  6  3 17  4 30.0000000  0  4 02 18 19 11
  24092287.260    -2074955.045 2  -1616845.162 1
  20752430.189     1018745.128 4    793825.708 3
  20847715.925      -33788.822 3    -26329.719 3
  24035555.433    -1613577.579 2  -1257328.311 1
 91  6  3 17  4 45.0000000  0  4 02 18 19 11
  24084233.636    -2117286.050 2  -1649830.314 1
  20757337.792     1044534.486 4    813921.273 3
  20848254.055      -30958.750 3    -24124.468 2
  24030084.519    -1642280.826 2  -1279694.383 1
 91  6  3 17  5  0.0000000  0  4 02 18 19 11
  24076198.892    -2159497.812 2  -1682722.527 1
  20762285.269     1070514.732 4    834165.600 3
  20848814.364      -27997.898 3    -21817.324 3
  24024658.575    -1670818.579 2  -1301931.574 1
 91  6  3 17  5 15.0000000  0  4 02 18 19 11
  24068193.840    -2201592.283 2  -1715523.314 1
  20767262.726     1096683.177 4    854556.569 3
  20849407.357      -24908.674 3    -19410.141 2
  24019256.912    -1699192.694 2  -1324041.238 1
 91  6  3 17  5 30.0000000  0  4 02 18 19 11
  24060198.971    -2243569.485 2  -1748232.734 1
  20772283.345     1123039.797 4    875094.167 3
  20850013.839      -21691.445 3    -16903.221 3
  24013890.927    -1727403.123 2  -1346023.363 1
 91  6  3 17  5 45.0000000  0  4 02 18 19 11
  24052229.291    -2285430.532 2  -1780851.673 1
  20777328.858     1149583.408 4    895777.470 3
  20850651.497      -18347.237 3    -14297.346 2
  24008554.920    -1755450.599 2  -1367878.498 1
 91  6  3 17  6  0.0000000  0  4 02 18 19 11
  24044298.577    -2327174.743 2  -1813379.530 1
  20782418.432     1176314.224 4    916606.645 3
  20851310.434      -14875.494 3    -11592.100 3
  24003245.596    -1783334.206 2  -1389605.917 1
 91  6  3 17  6 15.0000000  0  4 02 18 19 11
  24036365.769    -2368804.618 2  -1845818.315 1
  20787537.383     1203229.370 4    937579.460 3
  20852000.564      -11278.917 3     -8789.579 3
  23997970.753    -1811056.223 2  -1411207.457 1
 91  6  3 17  6 30.0000000  0  4 02 18 19 11
  24028466.535    -2410316.779 2  -1878165.365 1
  20792694.420     1230332.273 4    958698.572 3
  20852705.675       -7554.357 3     -5887.329 3
  23992721.980    -1838613.206 2  -1432680.398 1
 91  6  3 17  6 45.0000000  0  4 02 18 19 11
  24020602.682    -2451717.627 2  -1910425.667 1
  20797887.718     1257616.222 4    979958.755 3
  20853439.265       -3708.505 3     -2890.578 3
  23987508.597    -1866011.385 2  -1454029.556 1
 91  6  3 17  7  0.0000000  0  4 02 18 19 11
  24012743.627    -2493002.653 2  -1942595.741 1
  20803112.209     1285085.677 4   1001363.499 3
  20854196.543         262.793 3       203.933 2
  23982331.780    -1893245.950 2  -1475251.218 1
 91  6  3 17  7 15.0000000  0  4 02 18 19 11
  24004901.953    -2534175.938 2  -1974678.741 1
  20808376.259     1312736.228 4   1022909.359 3
  20854970.007        4355.401 3      3392.974 3
  23977182.840    -1920320.704 2  -1496348.432 1
 91  6  3 17  7 30.0000000  0  4 02 18 19 11
  23997082.161    -2575238.281 2  -2006675.261 1
  20813675.393     1340566.495 4   1044595.249 3
  20855774.052        8568.326 3      6675.771 3
  23972050.697    -1947236.277 2  -1517321.594 1
 91  6  3 17  7 45.0000000  0  4 02 18 19 11
  23989299.251    -2616190.354 2  -2038585.893 1
  20819000.902     1368575.882 3   1066420.710 3
  20856597.876       12900.694 3     10051.634 3
  23966968.015    -1973993.226 2  -1538171.127 1
 91  6  3 17  8  0.0000000  0  4 02 18 19 11
  23981520.537    -2657032.201 2  -2070410.611 1
  20824364.794     1396764.066 3   1088385.504 3
  20857449.892       17352.189 3     13520.326 2
  23961907.217    -2000591.430 2  -1558896.928 1
 91  6  3 17  8 15.0000000  0  4 02 18 19 11
  23973761.612    -2697763.975 2  -2102149.565 1
  20829764.354     1425130.706 3   1110489.356 3
  20858315.990       21922.668 3     17081.727 3
  23956876.703    -2027030.600 2  -1579498.860 1
 91  6  3 17  8 30.0000000  0  4 02 18 19 11
  23966035.362    -2738387.744 2  -2133804.370 1
  20835196.292     1453673.777 3   1132730.679 3
  20859206.073       26609.950 3     20734.154 2
  23951879.458    -2053312.604 2  -1599978.310 1
 91  6  3 17  8 45.0000000  0  4 02 18 19 11
  23958333.988    -2778905.530 2  -2165376.579 1
  20840660.313     1482390.741 3   1155107.503 3
  20860119.540       31411.496 3     24475.617 2
  23946894.506    -2079439.490 2  -1620336.887 1
 91  6  3 17  9  0.0000000  0  4 02 18 19 11
  23950636.522    -2819315.788 2  -2196864.974 1
  20846158.502     1511283.057 3   1177620.964 3
  20861062.986       36328.721 3     28307.211 3
  23941958.730    -2105409.370 2  -1640573.080 1
 91  6  3 17  9 15.0000000  0  4 02 18 19 11
  23942972.326    -2859621.967 2  -2228272.302 1
  20851688.476     1540346.874 3   1200268.060 3
  20862016.928       41357.926 3     32226.071 3
  23937043.632    -2131225.614 2  -1660689.660 1
 91  6  3 17  9 30.0000000  0  4 02 18 19 11
  23935322.822    -2899820.696 2  -2259595.932 1
  20857255.619     1569585.174 3   1223051.113 3
  20862987.954       46502.321 3     36234.678 3
  23932164.210    -2156884.762 2  -1680683.698 1
 91  6  3 17  9 45.0000000  0  4 02 18 19 11
  23927691.301    -2939913.309 2  -2290836.825 1
  20862850.953     1598996.902 3   1245969.319 3
  20863991.961       51760.479 3     40331.945 2
  23927313.861    -2182387.704 2  -1700556.092 1
 91  6  3 17 10  0.0000000  0  4 02 18 19 11
  23920078.373    -2979908.312 2  -2322001.697 1
  20868479.555     1628572.896 4   1269015.514 3
  20865014.849       57123.507 3     44510.917 2
  23922499.198    -2207742.890 2  -1720313.339 1
 91  6  3 17 10 15.0000000  0  4 02 18 19 11
  23912496.323    -3019797.625 2  -2353084.181 1
  20874140.537     1658321.353 4   1292196.103 3
  20866055.729       62599.377 3     48777.829 3
  23917700.423    -2232941.904 2  -1739948.900 1
 91  6  3 17 10 30.0000000  0  4 02 18 19 11
  23904922.963    -3059585.507 2  -2384087.638 1
  20879835.389     1688237.544 4   1315507.391 3
  20867120.297       68183.721 3     53129.268 3
  23912927.422    -2257988.804 2  -1759465.951 1
 91  6  3 17 10 45.0000000  0  4 02 18 19 11
  23897369.994    -3099268.072 2  -2415009.013 1
  20885558.432     1718324.994 3   1338952.120 3
  20868200.744       73880.209 3     57568.079 3
  23908183.510    -2282879.615 2  -1778861.344 1
 91  6  3 17 11  0.0000000  0  4 02 18 19 11
  23889832.617    -3138850.664 2  -2445852.505 1
  20891318.941     1748578.221 4   1362526.034 3
  20869310.273       79683.237 3     62089.919 3
  23903474.368    -2307619.462 2  -1798139.131 1
 91  6  3 17 11 15.0000000  0  4 02 18 19 11
  23882324.015    -3178336.452 2  -2476620.554 1
  20897101.341     1778993.969 4   1386226.578 3
  20870430.603       85589.566 3     66692.247 3
  23898803.006    -2332211.167 2  -1817301.443 1
 91  6  3 17 11 30.0000000  0  4 02 18 19 11
  23874827.105    -3217721.118 2  -2507309.828 1
  20902921.809     1809576.243 3   1410056.885 3
  20871576.707       91603.222 3     71378.204 2
  23894151.127    -2356650.328 2  -1836344.888 1
 91  6  3 17 11 45.0000000  0  4 02 18 19 11
  23867356.571    -3257004.523 2  -2537920.210 1
  20908776.156     1840324.900 3   1434016.857 3
  20872741.701       97724.344 3     76147.909 2
  23889523.530    -2380936.610 2  -1855269.265 1
 91  6  3 17 12  0.0000000  0  4 02 18 19 11
  23859891.743    -3296185.331 2  -2568450.643 1
  20914658.380     1871241.463 3   1458107.649 3
  20873928.281      103954.233 3     81002.367 3
  23884931.610    -2405068.224 2  -1874073.079 1
 91  6  3 17 12 15.0000000  0  4 02 18 19 11
  23852459.285    -3335264.459 2  -2598901.800 1
  20920574.790     1902324.330 3   1482328.032 3
  20875129.545      110291.413 3     85940.413 3
  23880372.959    -2429046.041 2  -1892757.038 1
 91  6  3 17 12 30.0000000  0  4 02 18 19 11
  23845036.722    -3374242.596 2  -2629274.284 1
  20926520.567     1933572.657 3   1506677.336 3
  20876361.696      116735.057 3     90961.432 3
  23875830.205    -2452870.691 2  -1911321.668 1
 91  6  3 17 12 45.0000000  0  4 02 18 19 11
  23837639.949    -3413120.651 2  -2659568.807 1
  20932495.731     1964985.014 4   1531154.462 3
  20877604.937      123284.073 3     96064.548 2
  23871331.224    -2476542.921 2  -1929767.569 1
 91  6  3 17 13  0.0000000  0  4 02 18 19 11
  23830262.652    -3451900.683 2  -2689786.951 1
  20938503.274     1996559.450 3   1555757.887 3
  20878870.060      129935.988 3    101247.862 2
  23866862.817    -2500064.638 2  -1948096.097 1
 91  6  3 17 13 15.0000000  0  4 02 18 19 11
  23822907.542    -3490579.971 2  -2719926.552 1
  20944547.096     2028298.336 4   1580489.453 3
  20880154.667      136693.520 3    106513.467 3
  23862407.602    -2523432.840 2  -1966305.032 1
 91  6  3 17 13 30.0000000  0  4 02 18 19 11
  23815554.832    -3529157.122 2  -2749986.563 1
  20950617.285     2060202.927 4   1605350.143 3
  20881463.564      143557.900 3    111862.324 3
  23857988.954    -2546645.862 2  -1984393.037 1
 91  6  3 17 13 45.0000000  0  4 02 18 19 11
  23808242.597    -3567631.676 2  -2779966.699 1
  20956717.768     2092273.449 3   1630340.122 3
  20882792.241      150529.429 3    117294.669 2
  23853610.188    -2569702.847 2  -2002359.527 1
 91  6  3 17 14  0.0000000  0  4 02 18 19 11
  23800936.653    -3606006.710 2  -2809869.229 1
  20962855.716     2124506.438 4   1655456.701 3
  20884139.808      157604.858 3    122807.990 2
  23849244.013    -2592606.981 2  -2020206.850 1
 91  6  3 17 14 15.0000000  0  4 02 18 19 11
  23793650.795    -3644282.709 2  -2839694.618 1
  20969018.548     2156901.428 4   1680699.521 3
  20885497.871      164783.667 3    128401.855 2
  23844920.102    -2615358.501 2  -2037935.269 1
 91  6  3 17 14 30.0000000  0  4 02 18 19 11
  23786385.327    -3682452.702 2  -2869437.384 1
  20975213.760     2189464.955 3   1706073.664 3
  20886887.109      172072.631 3    134081.559 3
  23840626.476    -2637950.217 2  -2055539.161 1
 91  6  3 17 14 45.0000000  0  4 02 18 19 11
  23779141.445    -3720525.621 2  -2899104.495 1
  20981439.849     2222188.043 3   1731572.131 3
  20888300.629      179462.661 3    139840.016 3
  23836349.035    -2660390.723 2  -2073025.227 1
 91  6  3 17 15  0.0000000  0  4 02 18 19 11
  23771914.647    -3758500.140 2  -2928694.942 1
  20987701.912     2255071.729 4   1757195.746 3
  20889718.948      186954.723 3    145677.967 2
  23832098.284    -2682678.710 2  -2090392.453 1
 91  6  3 17 15 15.0000000  0  4 02 18 19 11
  23764716.632    -3796376.955 2  -2958209.251 1
  20993985.264     2288114.748 4   1782943.520 3
  20891162.448      194547.874 3    151594.703 2
  23827890.391    -2704814.671 2  -2107641.219 1
 91  6  3 17 15 30.0000000  0  4 02 18 19 11
  23757521.314    -3834159.602 2  -2987650.209 1
  21000302.191     2321313.568 3   1808812.692 3
  20892627.838      202238.437 3    157587.350 2
  23823706.788    -2726801.940 2  -2124774.116 1
 91  6  3 17 15 45.0000000  0  4 02 18 19 11
  23750352.669    -3871846.295 2  -3017016.362 1
  21006649.995     2354669.714 3   1834804.463 3
  20894112.704      210028.186 3    163657.272 3
  23819549.265    -2748638.422 2  -2141789.525 1
 91  6  3 17 16  0.0000000  0  4 02 18 19 11
  23743195.427    -3909436.247 2  -3046307.174 1
  21013027.779     2388183.410 3   1860918.999 3
  20895618.561      217917.473 3    169804.759 3
  23815423.824    -2770323.294 2  -2158686.774 1
 91  6  3 17 16 15.0010000  0  4 02 18 19 11
  23736066.362    -3946931.365 2  -3075524.069 1
  21019434.351     2421857.549 3   1887158.549 3
  20897128.322      225907.394 3    176030.658 3
  23811328.663    -2791857.176 2  -2175466.372 1
 91  6  3 17 16 30.0010000  0  4 02 18 19 11
  23728943.297    -3984329.944 2  -3104665.724 1
  21025873.289     2455684.269 4   1913517.002 3
  20898672.553      233993.474 3    182331.483 3
  23807269.472    -2813240.234 2  -2192128.476 1
 91  6  3 17 16 45.0010000  0  4 02 18 19 11
  23721849.905    -4021630.414 2  -3133730.899 1
  21032339.816     2489669.531 4   1939998.986 3
  20900230.570      242179.933 3    188710.538 2
  23803224.075    -2834469.757 2  -2208670.946 1
 91  6  3 17 17  0.0010000  0  4 02 18 19 11
  23714766.705    -4058832.158 2  -3162719.239 1
  21038836.314     2523813.472 4   1966604.619 3
  20901807.180      250467.322 3    195168.235 2
  23799208.954    -2855544.806 2  -2225092.986 1
 91  6  3 17 17 15.0010000  0  4 02 18 19 11
  23707708.991    -4095935.117 2  -3191630.551 1
  21045365.793     2558116.119 4   1993333.914 3
  20903397.278      258855.700 3    201704.617 3
  23795231.308    -2876465.029 2  -2241394.403 1
 91  6  3 17 17 30.0010000  0  4 02 18 19 11
  23700670.768    -4132942.267 2  -3220467.206 1
  21051924.353     2592574.456 4   2020184.533 3
  20905014.660      267341.784 3    208317.128 2
  23791280.038    -2897233.246 2  -2257577.412 1
 91  6  3 17 17 45.0010000  0  4 02 18 19 11
  23693636.437    -4169854.756 2  -3249230.086 1
  21058508.695     2627186.835 4   2047155.181 3
  20906647.329      275924.164 3    215004.690 3
  23787355.458    -2917850.592 2  -2273642.853 1
 91  6  3 17 18  0.0010000  0  4 02 18 19 11
  23686639.284    -4206672.870 2  -3277919.471 1
  21065124.814     2661952.509 4   2074245.278 3
  20908302.779      284602.433 3    221766.970 2
  23783462.349    -2938317.187 2  -2289590.784 1
 91  6  3 17 18 15.0010000  0  4 02 18 19 11
  23679637.026    -4243397.627 2  -3306536.078 1
  21071769.116     2696870.410 3   2101453.995 3
  20909972.032      293375.302 3    228602.964 2
  23779590.835    -2958633.888 2  -2305421.918 1
 91  6  3 17 18 30.0010000  0  4 02 18 19 11
  23672672.548    -4280025.920 2  -3335077.503 2
  21078447.297     2731943.553 4   2128783.682 3
  20911658.656      302246.128 3    235515.276 2
  23775757.982    -2978797.190 2  -2321133.528 1
 91  6  3 17 18 45.0010000  0  4 02 18 19 11
  23665716.769    -4316563.287 2  -3363548.088 1
  21085144.655     2767165.831 3   2156229.585 3
  20913359.983      311208.851 3    242499.209 3
  23771948.521    -2998812.597 2  -2336729.907 1
 91  6  3 17 19  0.0010000  0  4 02 18 19 11
  23658790.664    -4353005.300 2  -3391944.384 1
  21091878.895     2802541.580 3   2183795.074 3
  20915088.584      320267.626 3    249557.977 3
  23768168.140    -3018675.519 2  -2352207.425 1
 91  6  3 17 19 15.0010000  0  4 02 18 19 11
  23651872.953    -4389358.162 2  -3420271.191 1
  21098638.621     2838064.191 3   2211475.000 3
  20916833.676      329416.262 3    256686.778 2
  23764420.732    -3038391.727 2  -2367570.699 1
 91  6  3 17 19 30.0010000  0  4 02 18 19 11
  23644964.534    -4425619.505 2  -3448526.711 1
  21105424.417     2873735.959 3   2239271.145 3
  20918587.161      338656.881 3    263887.247 2
  23760699.107    -3057958.861 2  -2382817.748 1
 91  6  3 17 19 45.0010000  0  4 02 18 19 11
  23638084.297    -4461789.342 2  -3476710.913 1
  21112244.695     2909556.863 3   2267183.499 3
  20920364.631      347989.439 3    271159.359 3
  23757003.570    -3077376.654 2  -2397948.421 1
 91  6  3 17 20  0.0010000  0  4 02 18 19 11
  23631221.746    -4497867.841 2  -3504823.924 1
  21119088.060     2945526.044 3   2295211.398 3
  20922154.997      357413.614 3    278502.858 3
  23753328.414    -3096645.129 2  -2412962.775 1
 91  6  3 17 20 15.0010000  0  4 02 18 19 11
  23624370.293    -4533858.317 2  -3532868.389 1
  21125962.303     2981640.019 3   2323352.130 3
  20923968.441      366925.817 3    285914.952 2
  23749694.624    -3115767.555 2  -2427863.306 1
 91  6  3 17 20 30.0010000  0  4 02 18 19 11
  23617541.613    -4569756.579 2  -3560840.976 1
  21132860.827     3017902.769 3   2351608.780 2
  20925801.072      376530.138 3    293398.823 2
  23746076.130    -3134739.396 2  -2442646.509 1
 91  6  3 17 20 45.0010000  0  4 02 18 19 11
  23610724.633    -4605557.524 2  -3588737.716 1
  21139790.824     3054319.100 3   2379985.107 3
  20927641.799      386231.263 3    300958.132 2
  23742503.207    -3153555.457 2  -2457308.327 1
 91  6  3 17 21  0.0010000  0  4 02 18 19 11
  23603933.741    -4641264.539 2  -3616561.323 2
  21146752.605     3090885.491 3   2408478.361 3
  20929502.307      396025.909 3    308590.302 3
  23738953.361    -3172218.895 2  -2471851.180 1
 91  6  3 17 21 15.0010000  0  4 02 18 19 11
  23597162.027    -4676875.692 2  -3644310.170 1
  21153737.770     3127603.647 3   2437089.870 3
  20931387.105      405915.882 3    316296.762 3
  23735422.405    -3190727.629 2  -2486273.500 1
 91  6  3 17 21 30.0010000  0  4 02 18 19 11
  23590391.814    -4712391.704 2  -3671984.907 2
  21160749.914     3164472.529 3   2465818.834 2
  20933285.688      415900.204 3    324076.741 3
  23731939.124    -3209082.067 2  -2500575.556 1
 91  6  3 17 21 45.0010000  0  4 02 18 19 11
  23583653.979    -4747810.019 2  -3699583.511 1
  21167795.936     3201494.562 3   2494667.134 3
  20935208.859      425981.056 3    331931.943 2
  23728468.127    -3227279.699 2  -2514755.472 1
 91  6  3 17 22  0.0010000  0  4 02 18 19 11
  23576937.425    -4783134.214 2  -3727108.777 1
  21174871.642     3238665.794 3   2523631.700 2
  20937144.019      436154.799 3    339859.531 3
  23725035.504    -3245323.754 2  -2528815.704 1
 91  6  3 17 22 15.0010000  0  4 02 18 19 11
  23570231.071    -4818367.739 2  -3754563.430 1
  21181968.026     3275982.641 3   2552709.725 2
  20939096.262      446417.914 3    347856.749 2
  23721629.858    -3263217.556 2  -2542758.858 1
 91  6  3 17 22 30.0010000  0  4 02 18 19 11
  23563543.301    -4853505.572 2  -3781943.475 1
  21189102.792     3313449.438 4   2581904.594 3
  20941062.308      456775.155 3    355927.307 3
  23718253.599    -3280956.098 2  -2556581.044 1
 91  6  3 17 22 45.0010000  0  4 02 18 19 11
  23556872.921    -4888549.980 2  -3809250.710 1
  21196257.939     3351063.971 3   2611214.587 3
  20943052.924      467224.361 3    364069.535 3
  23714900.714    -3298541.270 2  -2570283.682 1
 91  6  3 17 23  0.0010000  0  4 02 18 19 11
  23550226.220    -4923502.558 2  -3836486.418 1
  21203447.857     3388824.396 3   2640638.251 3
  20945055.843      477763.600 3    372281.920 2
  23711587.711    -3315974.397 2  -2583867.860 1
 91  6  3 17 23 15.0010000  0  4 02 18 19 11
  23543591.813    -4958364.885 2  -3863651.789 1
  21210659.369     3426729.238 3   2670174.446 3
  20947083.035      488391.292 3    380563.219 2
  23708305.282    -3333256.881 2  -2597334.646 1
 91  6  3 17 23 30.0010000  0  4 02 18 19 11
  23536978.390    -4993133.833 2  -3890744.431 1
  21217899.054     3464780.801 3   2699824.987 3
  20949123.122      499110.068 3    388915.503 3
  23705045.939    -3350385.497 2  -2610681.578 1
 91  6  3 17 23 45.0010000  0  4 02 18 19 11
  23530373.666    -5027813.485 2  -3917767.469 2
  21225166.319     3502974.803 3   2729586.505 3
  20951171.909      509915.882 3    397335.611 3
  23701819.568    -3367364.254 2  -2623911.678 1
 91  6  3 17 24  0.0010000  0  4 02 18 19 11
  23523795.614    -5062400.487 2  -3944718.316 1
  21232463.869     3541314.544 4   2759461.594 3
  20953252.463      520812.013 3    405826.088 2
  23698607.594    -3384189.532 2  -2637022.204 1
 91  6  3 17 24 15.0010000  0  4 02 18 19 11
  23517230.764    -5096897.993 2  -3971599.404 1
  21239787.499     3579796.525 4   2789447.518 3
  20955342.921      531795.084 3    414384.315 2
  23695442.683    -3400864.231 2  -2650015.396 1
 91  6  3 17 24 30.0010000  0  4 02 18 19 11
  23510679.995    -5131309.289 2  -3998413.348 1
  21247135.410     3618417.319 3   2819541.604 2
  20957449.563      542861.696 3    423007.637 2
  23692290.964    -3417391.615 2  -2662893.838 1
 91  6  3 17 24 45.0010000  0  4 02 18 19 11
  23504144.522    -5165631.343 2  -4025157.725 1
  21254513.005     3657179.343 3   2849745.741 2
  20959571.187      554014.612 3    431698.209 3
  23689176.728    -3433768.484 2  -2675654.951 1
 91  6  3 17 25  0.0010000  0  4 02 18 19 11
  23497635.129    -5199864.413 2  -4051832.806 2
  21261914.881     3696082.303 4   2880059.688 3
  20961712.006      565253.562 3    440455.821 3
  23686084.663    -3449994.856 2  -2688298.801 1
 91  6  3 17 25 15.0010000  0  4 02 18 19 11
  23491142.819    -5234007.630 2  -4078437.831 1
  21269344.337     3735126.489 3   2910483.689 2
  20963860.625      576579.095 3    449280.894 2
  23683024.986    -3466069.903 2  -2700824.756 1
 91  6  3 17 25 30.0010000  0  4 02 18 19 11
  23484649.619    -5268064.243 2  -4104975.373 1
  21276798.974     3774308.554 3   2941015.124 2
  20966032.017      587987.764 3    458170.765 3
  23680006.368    -3481996.555 2  -2713235.036 1
 91  6  3 17 25 45.0010000  0  4 02 18 19 11
  23478189.688    -5302030.074 2  -4131442.234 1
  21284285.694     3813632.643 4   2971657.235 2
  20968221.400      599483.822 3    467128.723 3
  23677001.249    -3497770.404 2  -2725526.292 1
 91  6  3 17 26  0.0010000  0  4 02 18 19 11
  23471748.944    -5335903.265 2  -4157836.859 2
  21291793.100     3853100.382 3   3002411.279 3
  20970429.376      611069.015 3    476156.139 2
  23674028.212    -3513389.196 2  -2737696.674 1
 91  6  3 17 26 15.0010000  0  4 02 18 19 11
  23465309.107    -5369686.708 2  -4184161.555 1
  21299329.884     3892708.739 3   3033274.891 3
  20972651.137      622740.085 3    485250.463 2
  23671082.449    -3528855.907 2  -2749748.599 1
 91  6  3 17 26 30.0010000  0  4 02 18 19 11
  23458904.641    -5403375.443 2  -4210412.471 2
  21306891.247     3932462.153 3   3064251.536 3
  20974887.889      634501.837 3    494415.459 3
  23668168.464    -3544165.535 2  -2761678.114 1
 91  6  3 17 26 45.0010000  0  4 02 18 19 11
  23452516.963    -5436972.379 2  -4236591.860 1
  21314487.388     3972357.193 3   3095338.530 2
  20977137.527      646351.200 3    503648.716 3
  23665282.363    -3559320.724 2  -2773487.246 1
 91  6  3 17 27  0.0010000  0  4 02 18 19 11
  23446136.474    -5470477.336 2  -4262699.551 1
  21322107.208     4012394.170 3   3126536.137 3
  20979410.252      658288.635 3    512950.609 2
  23662432.542    -3574320.809 2  -2785175.535 1
 91  6  3 17 27 15.0010000  0  4 02 18 19 11
  23439779.377    -5503890.798 2  -4288735.962 1
  21329751.320     4052572.285 3   3157843.724 2
  20981699.773      670313.198 3    522320.384 3
  23659605.799    -3589166.381 2  -2796743.480 1
 91  6  3 17 27 30.0010000  0  4 02 18 19 11
  23433438.168    -5537210.156 2  -4314699.034 2
  21337425.708     4092893.696 3   3189262.969 2
  20984008.472      682427.130 3    531759.805 2
  23656809.035    -3603854.815 2  -2808188.927 1
 91  6  3 17 27 45.0010000  0  5 02 06 18 19 11
  23427109.254    -5570438.016 2  -4340590.830 1
  24777298.030           0.890 2         0.167 1
  21345121.681     4133355.587 3   3220791.672 3
  20986324.665      694627.909 3    541266.887 3
  23654037.452    -3618388.346 2  -2819513.679 1
 91  6  3 17 28  0.0010000  0  5 02 06 18 19 11
  23420804.019    -5603574.364 2  -4366411.337 2
  24772538.832      -24978.021 2    -19463.855 1
  21352847.634     4173957.695 3   3252429.633 2
  20988661.250      706915.384 3    550841.543 2
  23651312.635    -3632766.910 2  -2830717.676 1
 91  6  3 17 28 15.0010000  0  5 02 06 18 19 11
  23414517.063    -5636622.197 2  -4392162.829 1
  24767801.508      -49906.938 2    -38888.921 1
  21360606.263     4214697.207 3   3284174.658 3
  20991017.919      719286.491 3    560481.354 2
  23648606.412    -3646993.280 2  -2841803.112 1
 91  6  3 17 28 30.0010000  0  5 02 06 18 19 11
  23408246.310    -5669580.164 2  -4417844.315 2
  24763060.589      -74785.038 2    -58274.379 1
  21368382.577     4255574.706 3   3316027.212 2
  20993395.878      731742.160 3    570187.060 3
  23645920.570    -3661065.982 2  -2852768.769 1
 91  6  3 17 28 45.0010000  0  5 02 06 18 19 11
  23401995.337    -5702449.183 2  -4443456.457 1
  24758336.457      -99613.160 2    -77620.956 1
  21376186.777     4296589.132 3   3347986.453 2
  20995776.524      744281.613 3    579958.053 2
  23643271.906    -3674985.701 2  -2863615.221 1
 91  6  3 17 29  0.0010000  0  5 02 06 18 19 11
  23395754.859    -5735231.574 2  -4469001.131 2
  24753623.424     -124393.968 2    -96930.557 1
  21384017.955     4337737.814 3   3380050.318 2
  20998180.858      756902.392 3    589792.405 2
  23640654.714    -3688754.647 2  -2874344.175 1
 91  6  3 17 29 15.0010000  0  5 02 06 18 19 11
  23389530.568    -5767931.203 2  -4494481.326 1
  24748912.188     -149131.664 2   -116206.666 1
  21391871.914     4379016.448 3   3412215.433 3
  21000594.790      769600.123 3    599686.737 3
  23638059.413    -3702376.705 2  -2884958.717 1
 91  6  3 17 29 30.0010000  0  5 02 06 18 19 11
  23383329.659    -5800541.872 2  -4519892.220 1
  24744213.534     -173820.080 2   -135444.342 1
  21399753.156     4420430.986 3   3444486.455 2
  21003027.307      782381.064 3    609645.898 2
  23635502.782    -3715845.298 2  -2895453.649 1
 91  6  3 17 29 45.0010000  0  5 02 06 18 19 11
  23377142.545    -5833060.216 2  -4545231.106 1
  24739533.176     -198455.913 2   -154641.046 1
  21407664.980     4461984.705 3   3476865.927 2
  21005471.812      795248.717 3    619672.634 3
  23632965.040    -3729156.881 2  -2905826.236 1
 91  6  3 17 30  0.0010000  0  5 02 06 18 19 11
  23370968.012    -5865493.126 2  -4570503.481 1
  24734849.520     -223046.227 2   -173802.275 1
  21415598.390     4503670.677 3   3509348.465 2
  21007936.708      808195.896 3    629761.328 3
  23630463.874    -3742318.197 2  -2916081.733 1
 91  6  3 17 30 15.0010000  0  5 02 06 18 19 11
  23364812.378    -5897833.361 2  -4595703.613 2
  24730181.456     -247584.091 2   -192922.621 1
  21423553.979     4545495.627 3   3541939.292 2
  21010421.392      821229.712 3    639917.539 2
  23627994.180    -3755321.848 2  -2926214.381 1
 91  6  3 17 30 30.0010000  0  5 02 06 18 19 11
  23358679.525    -5930085.960 2  -4620835.442 1
  24725520.581     -272074.643 2   -212006.097 1
  21431538.658     4587454.191 3   3574634.231 2
  21012914.461      834344.915 3    650137.178 2
  23625539.475    -3768172.681 2  -2936227.957 1
 91  6  3 17 30 45.0010000  0  5 02 06 18 19 11
  23352551.462    -5962245.576 2  -4645894.827 1
  24720872.000     -296512.859 2   -231048.820 1
  21439546.711     4629551.382 3   3607437.202 2
  21015427.921      847546.633 3    660424.219 3
  23623129.452    -3780865.375 2  -2946118.275 1
 91  6  3 17 31  0.0010000  0  5 02 06 18 19 11
  23346459.984    -5994315.152 2  -4670884.073 1
  24716235.704     -320901.878 2   -250053.152 1
  21447587.144     4671784.037 4   3640345.711 2
  21017954.276      860831.724 3    670776.225 3
  23620738.301    -3793402.657 2  -2955887.565 1
 91  6  3 17 31 15.0010000  0  5 02 06 18 19 11
  23340359.204    -6026294.949 2  -4695803.331 1
  24711604.513     -345241.966 2   -269019.449 1
  21455647.966     4714151.696 4   3673359.421 3
  21020502.505      874199.994 3    681193.051 2
  23618381.038    -3805784.489 2  -2965535.653 1
 91  6  3 17 31 30.0010000  0  5 02 06 18 19 11
  23334297.705    -6058183.123 2  -4720651.239 2
  24706973.617     -369531.505 1   -287946.303 1
  21463736.064     4756655.992 4   3706479.608 2
  21023060.035      887653.194 3    691676.055 3
  23616055.247    -3818009.017 2  -2975061.197 1
 91  6  3 17 31 45.0010000  0  5 02 06 18 19 11
  23328249.992    -6089983.639 2  -4745430.810 1
  24702362.511     -393774.615 1   -306836.987 1
  21471849.350     4799292.698 4   3739702.971 2
  21025635.260      901187.210 3    702222.033 3
  23613759.732    -3830080.031 2  -2984467.137 1
 91  6  3 17 32  0.0010000  0  4 02 18 19 11
  23322206.170    -6121691.679 2  -4770138.338 1
  21479989.310     4842066.312 4   3773033.019 2
  21028224.567      914806.512 3    712834.475 2
  23611494.798    -3841992.537 2  -2993749.558 1
 91  6  3 17 32 15.0010000  0  4 02 18 19 11
  23316195.635    -6153310.779 2  -4794776.538 1
  21488152.661     4884972.925 3   3806466.701 2
  21030834.552      928507.467 3    723510.530 2
  23609253.553    -3853749.920 2  -3002911.106 1
 91  6  3 17 32 30.0010000  0  4 02 18 19 11
  23310196.486    -6184839.350 2  -4819344.206 1
  21496343.593     4928014.057 4   3840005.199 2
  21033451.744      942291.708 3    734251.486 3
  23607041.982    -3865350.375 2  -3011950.384 1
 91  6  3 17 32 45.0010000  0  4 02 18 19 11
  23304215.929    -6216280.843 2  -4843844.026 1
  21504558.501     4971185.780 4   3873645.456 2
  21036094.711      956155.705 3    745054.597 3
  23604875.084    -3876797.292 2  -3020870.024 1
 91  6  3 17 33  0.0010000  0  4 02 18 19 11
  23298252.152    -6247634.789 2  -4868275.615 1
  21512800.396     5014488.347 4   3907387.668 2
  21038752.379      970099.688 3    755920.032 2
  23602721.073    -3888090.137 2  -3029669.577 1
 91  6  3 17 33 15.0010000  0  4 02 18 19 11
  23292296.776    -6278901.045 2  -4892638.885 1
  21521062.079     5057921.736 3   3941231.819 2
  21041422.629      984123.562 3    766847.710 2
  23600605.443    -3899228.599 2  -3038348.857 1
 91  6  3 17 33 30.0010000  0  4 02 18 19 11
  23286369.880    -6310074.915 2  -4916930.180 1
  21529354.039     5101490.159 3   3975181.189 2
  21044098.873      998231.990 3    777841.280 2
  23598510.492    -3910207.692 2  -3046903.960 1
 91  6  3 17 33 45.0010000  0  4 02 18 19 11
  23280450.783    -6341161.887 2  -4941153.732 2
  21537671.781     5145187.771 3   4009231.222 2
  21046800.306     1012419.410 3    788896.397 3
  23596450.014    -3921032.811 2  -3055339.076 1
 91  6  3 17 34  0.0010000  0  4 02 18 19 11
  23274550.865    -6372159.108 2  -4965307.365 2
  21546012.008     5189017.407 3   4043384.140 2
  21049520.324     1026688.451 3    800015.122 2
  23594427.019    -3931701.011 2  -3063651.932 1
 91  6  3 17 34 15.0010000  0  4 02 18 19 11
  23268671.337    -6403072.472 2  -4989395.644 2
  21554373.515     5232972.868 3   4077635.113 2
  21052245.437     1041033.148 3    811192.793 2
  23592419.904    -3942217.942 2  -3071846.871 1
 91  6  3 17 34 30.0010000  0  4 02 18 19 11
  23262805.298    -6433894.734 2  -5013412.926 2
  21562765.011     5277060.899 3   4111989.362 2
  21054989.431     1055460.626 3    822434.975 2
  23590446.974    -3952576.302 2  -3079918.299 1
 91  6  3 17 34 45.0010000  0  4 02 18 19 11
  23256957.843    -6464624.822 2  -5037358.407 2
  21571180.780     5321282.348 3   4146447.582 2
  21057754.418     1069971.836 3    833742.389 2
  23588501.623    -3962774.799 2  -3087865.145 1
 91  6  3 17 35  0.0010000  0  4 02 18 19 11
  23251120.885    -6495264.968 2  -5061233.806 1
  21579621.738     5365634.909 3   4181007.969 2
  21060530.495     1084564.326 3    845113.150 3
  23586605.430    -3972815.500 2  -3095689.038 1
 91  6  3 17 35 15.0010000  0  4 02 18 19 11
  23245315.407    -6525813.866 3  -5085038.079 1
  21588083.384     5410119.512 3   4215671.252 3
  21063319.171     1099239.399 3    856548.254 2
  23584715.537    -3982696.884 2  -3103388.816 1
 91  6  3 17 35 30.0010000  0  4 02 18 19 11
  23239518.314    -6556276.382 3  -5108775.055 1
  21596575.899     5454731.302 3   4250433.625 2
  21066134.816     1113992.215 3    868043.946 2
  23582862.525    -3992423.774 2  -3110968.169 1
 91  6  3 17 35 45.0010000  0  4 02 18 19 11
  23233733.217    -6586655.801 2  -5132447.279 1
  21605088.507     5499466.393 3   4285292.088 2
  21068953.471     1128819.197 3    879597.426 3
  23581047.283    -4001999.290 2  -3118429.604 1
 91  6  3 17 36  0.0010000  0  4 02 18 19 11
  23227966.112    -6616949.648 3  -5156052.832 2
  21613622.702     5544326.853 3   4320248.240 2
  21071788.006     1143722.410 3    891210.304 3
  23579247.930    -4011420.962 2  -3125771.122 1
 91  6  3 17 36 15.0010000  0  4 02 18 19 11
  23222221.789    -6647153.103 3  -5179587.944 2
  21622189.267     5589317.347 3   4355305.732 2
  21074639.633     1158706.803 3    902886.443 3
  23577490.239    -4020683.772 2  -3132988.889 1
 91  6  3 17 36 30.0010000  0  4 02 18 19 11
  23216488.563    -6677274.283 3  -5203058.950 2
  21630769.330     5634429.594 3   4390458.077 2
  21077504.749     1173764.211 3    914619.474 3
  23575756.246    -4029795.709 2  -3140089.087 1
 91  6  3 17 36 45.0010000  0  4 02 18 19 11
  23210780.815    -6707310.675 3  -5226463.851 2
  21639380.873     5679665.613 3   4425706.871 2
  21080383.355     1188896.963 3    926411.216 2
  23574047.128    -4038754.155 2  -3147069.671 1
 91  6  3 17 37  0.0010000  0  4 02 18 19 11
  23205065.267    -6737264.912 2  -5249804.742 2
  21648009.194     5725022.394 3   4461049.766 2
  21083281.749     1204102.283 3    938259.506 2
  23572376.680    -4047561.675 2  -3153932.648 1
 91  6  3 17 37 15.0010000  0  4 02 18 19 11
  23199391.695    -6767141.737 3  -5273085.357 2
  21656660.907     5770495.025 3   4496482.935 2
  21086185.535     1219375.405 3    950160.622 3
  23570724.223    -4056222.697 2  -3160681.468 1
 91  6  3 17 37 30.0010000  0  4 02 18 19 11
  23193719.022    -6796937.881 3  -5296303.067 2
  21665337.496     5816086.926 3   4532009.030 2
  21089109.711     1234719.489 3    962117.032 3
  23569105.052    -4064733.766 2  -3167313.421 1
 91  6  3 17 37 45.0010000  0  4 02 18 19 11
  23188063.738    -6826655.860 3  -5319459.887 1
  21674040.774     5861794.577 3   4567625.342 2
  21092033.286     1250131.802 3    974126.607 2
  23567516.751    -4073097.444 2  -3173830.591 1
 91  6  3 17 38  0.0010000  0  4 02 18 19 11
  23182427.038    -6856292.274 3  -5342553.144 2
  21682752.141     5907621.360 3   4603334.470 2
  21094985.042     1265615.626 3    986191.910 2
  23565948.238    -4081310.203 2  -3180230.088 1
 91  6  3 17 38 15.0010000  0  4 02 18 19 11
  23176797.240    -6885853.008 3  -5365587.433 2
  21691500.686     5953561.331 3   4639131.803 2
  21097940.699     1281164.706 3    998308.071 3
  23564426.186    -4089377.787 2  -3186516.509 1
 91  6  3 17 38 30.0010000  0  4 02 18 19 11
  23171183.627    -6915338.611 3  -5388563.171 2
  21700264.220     5999613.653 3   4675016.683 2
  21100908.946     1296778.775 3   1010474.852 2
  23562904.440    -4097300.339 2  -3192689.910 1
 91  6  3 17 38 45.0010000  0  4 02 18 19 11
  23165585.301    -6944746.718 2  -5411478.526 1
  21709052.638     6045780.208 3   4710990.567 2
  21103893.675     1312459.959 3   1022693.941 2
  23561430.359    -4105075.560 2  -3198748.526 1
 91  6  3 17 39  0.0010000  0  4 02 18 19 11
  23160008.264    -6974076.840 3  -5434333.090 2
  21717853.341     6092061.189 3   4747053.623 2
  21106897.896     1328208.636 3   1034965.621 2
  23559973.074    -4112702.877 2  -3204691.860 1
 91  6  3 17 39 15.0010000  0  4 02 18 19 11
  23154441.714    -7003330.862 3  -5457128.387 2
  21726687.924     6138454.744 3   4783204.395 2
  21109903.321     1344022.849 3   1047288.374 2
  23558554.755    -4120183.899 2  -3210521.225 1
 91  6  3 17 39 30.0010000  0  4 02 18 19 11
  23148885.364    -7032508.214 3  -5479863.946 1
  21735533.605     6184961.044 3   4819443.023 2
  21112924.023     1359903.031 3   1059662.523 2
  23557162.219    -4127517.931 2  -3216236.013 1
 91  6  3 17 39 45.0010000  0  4 02 18 19 11
  23143355.992    -7061609.729 3  -5502540.404 2
  21744403.263     6231578.732 3   4855768.439 2
  21115965.125     1375848.058 3   1072087.214 2
  23555794.262    -4134705.838 2  -3221836.969 1
 91  6  3 17 40  0.0010000  0  4 02 18 19 11
  23137828.714    -7090634.576 3  -5525157.120 2
  21753301.399     6278308.408 3   4892181.115 2
  21119006.218     1391858.956 3   1084563.206 2
  23554454.190    -4141746.563 2  -3227323.224 1
 91  6  3 17 40 15.0010000  0  4 02 18 19 11
  23132314.628    -7119584.214 3  -5547715.220 2
  21762210.032     6325148.284 3   4928679.673 2
  21122069.194     1407934.049 3   1097089.242 2
  23553144.394    -4148641.572 2  -3232695.937 1
 91  6  3 17 40 30.0010000  0  4 02 18 19 11
  23126822.434    -7148451.136 3  -5570208.881 2
  21771147.153     6372105.504 3   4965269.665 2
  21125146.269     1424080.622 3   1109670.980 2
  23551855.590    -4155383.272 2  -3237949.204 1
 91  6  3 17 40 45.0010000  0  4 02 18 19 11
  23121355.717    -7177238.544 3  -5592640.573 2
  21780104.646     6419176.638 3   5001948.415 2
  21128219.139     1440295.379 3   1122305.845 2
  23550603.659    -4161974.753 2  -3243085.407 1
 91  6  3 17 41  0.0010000  0  4 02 18 19 11
  23115892.002    -7205944.042 3  -5615008.427 2
  21789086.727     6466364.142 4   5038717.849 2
  21131332.485     1456580.687 3   1134995.683 2
  23549375.408    -4168413.284 2  -3248102.397 1
 91  6  3 17 41 15.0010000  0  4 02 18 19 11
  23110436.976    -7234568.922 3  -5637313.474 1
  21798085.603     6513666.257 3   5075576.586 2
  21134440.430     1472935.245 3   1147739.483 2
  23548180.138    -4174699.991 2  -3253001.144 1
 91  6  3 17 41 30.0010000  0  4 02 18 19 11
  23105012.236    -7263114.279 3  -5659556.564 2
  21807109.652     6561081.502 3   5112523.483 2
  21137561.567     1489357.760 3   1160536.231 3
  23547016.043    -4180835.988 2  -3257782.414 1
 91  6  3 17 41 45.0010000  0  4 02 18 19 11
  23099595.584    -7291577.041 3  -5681735.290 1
  21816152.896     6608612.732 3   5149560.756 2
  21140695.897     1505851.060 3   1173388.142 3
  23545871.736    -4186818.240 2  -3262443.877 1
 91  6  3 17 42  0.0010000  0  4 02 18 19 11
  23094192.420    -7319957.211 3  -5703849.657 1
  21825218.319     6656259.596 3   5186688.115 2
  21143851.812     1522415.062 3   1186295.148 2
  23544762.504    -4192646.460 2  -3266985.297 1
 91  6  3 17 42 15.0010000  0  4 02 18 19 11
  23088802.755    -7348258.336 3  -5725902.440 1
  21834311.322     6704018.274 3   5223902.623 2
  21147014.324     1539046.232 3   1199254.487 2
  23543692.239    -4198324.022 2  -3271409.378 1
 91  6  3 17 42 30.0010000  0  4 02 18 19 11
  23083432.276    -7376473.306 3  -5747888.063 2
  21843422.909     6751895.544 3   5261209.532 2
  21150193.326     1555751.537 3   1212271.586 3
  23542629.774    -4203843.829 2  -3275710.505 1
 91  6  3 17 42 45.0010000  0  4 02 18 19 11
  23078078.575    -7404606.153 3  -5769809.716 2
  21852553.090     6799886.946 3   5298605.372 2
  21153389.115     1572526.696 3   1225343.127 3
  23541612.880    -4209209.965 2  -3279891.873 1
 91  6  3 17 43  0.0010000  0  4 02 18 19 11
  23072741.077    -7432653.456 3  -5791664.698 1
  21861708.757     6847995.803 3   5336092.736 2
  21156594.197     1589375.238 3   1238471.842 2
  23540615.774    -4214418.646 2  -3283950.566 1
 91  6  3 17 43 15.0010000  0  4 02 18 19 11
  23067428.751    -7460618.833 3  -5813455.853 1
  21870885.102     6896218.191 3   5373668.574 2
  21159812.470     1606293.314 3   1251654.751 2
  23539669.030    -4219473.271 2  -3287889.225 1
 91  6  3 17 43 30.0010000  0  4 02 18 19 11
  23062115.229    -7488498.500 3  -5835180.208 1
  21880083.636     6944557.768 3   5411335.726 2
  21163046.624     1623284.745 3   1264894.808 2
  23538725.881    -4224370.094 2  -3291704.885 1
 91  6  3 17 43 45.0010000  0  4 02 18 19 11
  23056827.491    -7516292.976 3  -5856838.183 2
  21889304.653     6993013.738 3   5449093.570 2
  21166289.782     1640348.965 3   1278191.583 3
  23537824.106    -4229109.512 2  -3295397.921 1
 91  6  3 17 44  0.0010000  0  4 02 18 19 11
  23051558.938    -7544002.819 3  -5878430.219 2
  21898543.654     7041585.133 3   5486941.360 2
  21169552.423     1657485.469 3   1291544.691 2
  23536962.196    -4233691.920 2  -3298968.599 1
 91  6  3 17 44 15.0010000  0  4 02 18 19 11
  23046294.286    -7571626.198 3  -5899954.898 2
  21907810.836     7090273.359 3   5524880.175 2
  21172827.061     1674695.716 3   1304955.268 3
  23536110.791    -4238115.402 2  -3302415.440 1
 91  6  3 17 44 30.0010000  0  4 02 18 19 11
  23041054.806    -7599162.349 3  -5921411.596 2
  21917096.307     7139078.881 3   5562910.396 2
  21176118.477     1691980.438 3   1318423.867 2
  23535298.353    -4242379.084 2  -3305737.736 1
 91  6  3 17 44 45.0010000  0  4 02 18 19 11
  23035833.928    -7626608.379 3  -5942798.067 1
  21926406.067     7188004.347 3   5601034.086 2
  21179419.491     1709342.343 3   1331952.613 2
  23534518.590    -4246479.998 2  -3308933.250 1
 91  6  3 17 45  0.0010000  0  4 02 18 19 11
  23030627.428    -7653964.750 3  -5964114.667 2
  21935740.407     7237049.191 3   5639250.783 2
  21182739.099     1726780.929 3   1345541.101 2
  23533766.415    -4250418.427 2  -3312002.128 1
 91  6  3 17 45 15.0010000  0  4 02 18 19 11
  23025441.922    -7681231.305 3  -5985361.273 2
  21945092.729     7286213.001 3   5677560.190 2
  21186073.085     1744296.196 3   1359189.343 3
  23533047.213    -4254194.279 2  -3314944.312 1
 91  6  3 17 45 30.0010000  0  4 02 18 19 11
  23020273.193    -7708406.875 3  -6006536.991 1
  21954474.437     7335496.881 3   5715963.160 2
  21189425.062     1761889.324 3   1372898.273 2
  23532366.384    -4257806.021 2  -3317758.619 1
 91  6  3 17 45 45.0010000  0  4 02 18 19 11
  23015116.767    -7735492.884 3  -6027642.916 2
  21963876.222     7384898.802 3   5754458.099 2
  21192786.035     1779558.785 3   1386666.677 2
  23531709.235    -4261255.023 2  -3320446.122 1
 91  6  3 17 46  0.0010000  0  4 02 18 19 11
  23009978.027    -7762487.063 3  -6048677.297 1
  21973298.703     7434421.067 3   5793046.831 2
  21196160.201     1797306.659 3   1400496.172 2
  23531083.270    -4264539.076 2  -3323005.088 1
 91  6  3 17 46 15.0010000  0  4 02 18 19 11
  23004860.864    -7789391.255 3  -6069641.568 2
  21982750.857     7484061.368 3   5831727.527 2
  21199553.553     1815130.952 3   1414385.220 2
  23530485.181    -4267659.995 2  -3325436.945 1
 91  6  3 17 46 30.0010000  0  4 02 18 19 11
  22999754.503    -7816207.762 3  -6090537.503 2
  21992214.110     7533817.249 3   5870498.292 2
  21202962.793     1833029.393 3   1428332.051 2
  23529924.270    -4270619.884 2  -3327743.334 1
 91  6  3 17 46 45.0010000  0  4 02 18 19 11
  22994668.524    -7842936.850 3  -6111365.304 2
  22001704.638     7583688.250 3   5909358.748 2
  21206375.035     1851001.633 3   1442336.377 2
  23529393.042    -4273418.803 2  -3329924.262 1
 91  6  3 17 47  0.0010000  0  4 02 18 19 11
  22989599.628    -7869579.685 3  -6132125.903 2
  22011212.259     7633672.654 3   5948307.583 2
  21209812.754     1869046.460 3   1456397.275 3
  23528888.792    -4276057.959 2  -3331980.713 1
 91  6  3 17 47 15.0010000  0  4 02 18 19 11
  22984540.330    -7896136.359 3  -6152819.369 1
  22020747.153     7683770.189 3   5987344.563 2
  21213261.266     1887163.577 3   1470514.501 2
  23528418.718    -4278537.428 2  -3333912.702 1
 91  6  3 17 47 30.0010000  0  4 02 18 19 11
  22979505.916    -7922607.694 3  -6173446.322 2
  22030303.338     7733979.586 3   6026468.705 2
  21216728.668     1905352.199 3   1484687.440 2
  23527980.421    -4280857.706 2  -3335720.683 1
 91  6  3 17 47 45.0010000  0  4 02 18 19 11
  22974486.195    -7948996.867 3  -6194009.264 2
  22039876.911     7784297.605 3   6065677.493 2
  21220192.466     1923609.056 3   1498913.550 2
  23527569.407    -4283021.877 2  -3337407.020 1
 91  6  3 17 48  0.0010000  0  4 02 18 19 11
  22969485.957    -7975297.313 3  -6214503.072 2
  22049476.267     7834730.670 3   6104975.922 2
  21223687.745     1941940.585 3   1513197.847 2
  23527187.465    -4285023.303 2  -3338966.544 1
 91  6  3 17 48 15.0010000  0  4 02 18 19 11
  22964495.012    -8001510.172 3  -6234928.642 2
  22059095.106     7885276.908 3   6144362.541 2
  21227188.128     1960345.463 3   1527539.301 2
  23526833.714    -4286863.124 2  -3340400.123 1
 91  6  3 17 48 30.0010000  0  4 02 18 19 11
  22959525.347    -8027631.548 3  -6255282.897 2
  22068734.336     7935939.906 3   6183840.138 2
  21230705.289     1978827.586 3   1541940.935 2
  23526517.133    -4288537.414 2  -3341704.718 1
 91  6  3 17 48 45.0010000  0  4 02 18 19 11
  22954569.180    -8053663.483 3  -6275567.462 2
  22078393.642     7986717.182 3   6223406.782 2
  21234238.338     1997384.679 3   1556400.993 2
  23526232.930    -4290048.090 3  -3342881.818 1
 91  6  3 17 49  0.0010000  0  4 02 18 19 11
  22949630.402    -8079608.015 3  -6295783.935 2
  22088082.640     8037606.790 3   6263060.951 2
  21237777.696     2016014.808 3   1570917.963 2
  23525978.401    -4291396.949 3  -3343932.854 1
 91  6  3 17 49 15.0010000  0  4 02 18 19 11
  22944711.403    -8105462.054 3  -6315929.880 2
  22097790.519     8088611.835 3   6302805.083 2
  21241339.225     2034721.118 3   1585494.309 2
  23525753.563    -4292580.811 2  -3344855.308 1
 91  6  3 17 49 30.0010000  0  4 02 18 19 11
  22939810.396    -8131226.414 3  -6336005.952 2
  22107513.388     8139730.891 3   6342638.054 2
  21244914.853     2053502.530 3   1600129.159 2
  23525554.195    -4293600.393 3  -3345649.744 1
 91  6  3 17 49 45.0010000  0  4 02 18 19 11
  22934922.582    -8156891.982 3  -6356005.046 2
  22117265.634     8190972.536 3   6382566.532 2
  21248508.760     2072368.108 3   1614829.597 2
  23525394.708    -4294446.572 3  -3346309.070 1
 91  6  3 17 50  0.0010000  0  4 02 18 19 11
  22930059.354    -8182471.012 3  -6375936.696 2
  22127035.269     8242324.709 3   6422581.157 2
  21252114.368     2091305.675 3   1629586.124 2
  23525265.498    -4295131.396 2  -3346842.637 2
 91  6  3 17 50 15.0010000  0  4 02 18 19 11
  22925208.709    -8207964.861 3  -6395801.982 2
  22136833.985     8293785.447 3   6462680.372 2
  21255728.369     2110313.655 3   1644397.526 2
  23525163.571    -4295656.346 2  -3347251.651 1
 91  6  3 17 50 30.0010000  0  4 02 18 19 11
  22920370.060    -8233372.257 3  -6415599.911 2
  22146649.497     8345355.692 3   6502864.909 2
  21259356.452     2129393.047 3   1659264.579 2
  23525095.812    -4296020.151 2  -3347535.135 1
 91  6  3 17 50 45.0010000  0  4 02 18 19 11
  22915552.997    -8258696.959 3  -6435333.405 1
  22156478.489     8397031.194 3   6543131.479 2
  21262999.229     2148540.234 3   1674184.445 2
  23525045.451    -4296226.262 2  -3347695.687 1
 91  6  3 17 51  0.0010000  0  4 02 18 19 11
  22910751.814    -8283938.588 3  -6455002.148 2
  22166338.665     8448812.223 3   6583480.259 2
  21266651.603     2167755.360 3   1689157.256 2
  23525042.755    -4296274.287 2  -3347733.060 1
 91  6  3 17 51 15.0010000  0  4 02 18 19 11
  22905961.136    -8309096.793 3  -6474605.906 2
  22176208.430     8500698.828 3   6623911.313 2
  21270325.258     2187038.763 3   1704183.269 2
  23525064.637    -4296163.834 2  -3347646.955 1
 91  6  3 17 51 30.0010000  0  4 02 18 19 11
  22901187.542    -8334170.722 3  -6494143.961 2
  22186100.679     8552691.619 3   6664425.105 2
  21274006.416     2206391.211 3   1719263.084 2
  23525119.196    -4295893.914 2  -3347436.620 1
 91  6  3 17 51 45.0010000  0  4 02 18 19 11
  22896429.530    -8359162.815 3  -6513618.277 2
  22196016.320     8604787.605 3   6705019.322 2
  21277701.055     2225810.128 3   1734394.694 2
  23525201.639    -4295467.013 2  -3347103.925 1
 91  6  3 17 52  0.0010000  0  4 02 18 19 11
  22891696.708    -8384074.016 3  -6533029.563 2
  22205946.341     8656986.090 3   6745693.401 2
  21281411.887     2245294.650 3   1749577.427 3
  23525307.169    -4294883.789 2  -3346649.427 1
 91  6  3 17 52 15.0010000  0  4 02 18 19 11
  22886968.380    -8408903.373 3  -6552377.068 2
  22215900.355     8709287.463 3   6786447.647 2
  21285127.815     2264845.542 3   1764811.866 2
  23525446.876    -4294143.316 2  -3346072.394 1
 91  6  3 17 52 30.0010000  0  4 02 18 19 11
  22882257.746    -8433653.841 3  -6571663.107 2
  22225874.446     8761688.656 3   6827279.676 2
  21288862.929     2284459.752 3   1780095.648 2
  23525624.650    -4293248.533 3  -3345375.121 1
 91  6  3 17 52 45.0010000  0  4 02 18 19 11
  22877561.491    -8458321.413 3  -6590884.541 2
  22235860.533     8814193.229 3   6868192.262 2
  21292609.430     2304141.522 3   1795432.075 2
  23525817.117    -4292195.186 3  -3344554.288 1
 91  6  3 17 53  0.0020000  0  4 02 18 19 11
  22872883.231    -8482908.812 3  -6610043.499 2
  22245873.306     8866803.020 3   6909186.835 2
  21296364.031     2323890.854 3   1810821.147 2
  23526053.353    -4290984.365 3  -3343610.766 1
 91  6  3 17 53 15.0020000  0  4 02 18 19 11
  22868228.655    -8507410.960 3  -6629136.037 2
  22255902.862     8919512.773 3   6950259.306 2
  21300137.824     2343706.714 3   1826262.069 2
  23526304.278    -4289614.302 2  -3342543.158 1
 91  6  3 17 53 30.0020000  0  4 02 18 19 11
  22863577.378    -8531829.581 3  -6648163.490 2
  22265951.901     8972325.663 3   6991412.126 2
  21303928.997     2363590.421 3   1841755.848 2
  23526599.876    -4288084.949 2  -3341351.414 1
 91  6  3 17 53 45.0020000  0  4 02 18 19 11
  22858946.483    -8556162.925 3  -6667124.508 2
  22276024.333     9025243.070 3   7032646.415 2
  21307723.468     2383543.468 3   1857303.660 2
  23526927.844    -4286394.564 2  -3340034.206 1
 91  6  3 17 54  0.0020000  0  4 02 18 19 11
  22854325.177    -8580417.450 3  -6686024.072 2
  22286110.847     9078258.201 3   7073956.831 2
  21311526.333     2403559.546 3   1872900.578 2
  23527281.002    -4284549.371 3  -3338596.369 1
 91  6  3 17 54 15.0020000  0  4 02 18 19 11
  22849731.756    -8604595.248 3  -6704863.877 2
  22296219.252     9131368.576 3   7115341.470 2
  21315351.089     2423636.388 3   1888544.864 2
  23527655.143    -4282551.571 2  -3337039.610 1
 91  6  3 17 54 30.0020000  0  4 02 18 19 11
  22845149.434    -8628694.895 3  -6723642.775 2
  22306342.045     9184575.311 3   7156801.192 2
  21319185.434     2443775.380 3   1904237.559 2
  23528070.057    -4280399.567 2  -3335362.714 1
 91  6  3 17 54 45.0020000  0  4 02 18 19 11
  22840571.003    -8652717.482 3  -6742361.628 2
  22316488.517     9237877.011 3   7198334.907 2
  21323022.179     2463975.257 3   1919977.711 3
  23528506.853    -4278094.433 3  -3333566.485 2
 91  6  3 17 55  0.0020000  0  4 02 18 19 11
  22836014.157    -8676661.878 3  -6761019.573 2
  22326647.886     9291275.034 3   7239943.694 2
  21326880.509     2484237.140 3   1935766.164 2
  23528974.231    -4275634.991 3  -3331650.013 1
 91  6  3 17 55 15.0020000  0  4 02 18 19 11
  22831472.302    -8700529.013 3  -6779617.293 2
  22336827.339     9344767.640 3   7281626.164 2
  21330746.928     2504560.046 3   1951602.179 2
  23529470.088    -4273022.064 3  -3329613.929 1
 91  6  3 17 55 30.0020000  0  4 02 18 19 11
  22826943.936    -8724318.337 3  -6798154.381 2
  22347023.275     9398355.117 3   7323382.576 2
  21334625.343     2524944.394 3   1967486.066 2
  23529998.323    -4270255.002 3  -3327457.751 2
 91  6  3 17 55 45.0020000  0  4 02 18 19 11
  22822434.459    -8748034.983 3  -6816634.838 2
  22357239.609     9452032.162 3   7365208.778 2
  21338513.950     2545385.080 3   1983413.863 3
  23530558.336    -4267338.872 3  -3325185.433 1
 91  6  3 17 56  0.0020000  0  4 02 18 19 11
  22817937.870    -8771680.640 3  -6835059.991 2
  22367474.816     9505796.641 3   7407103.113 2
  21342417.250     2565880.230 3   1999384.086 2
  23531132.439    -4264275.326 2  -3322798.247 2
 91  6  3 17 56 15.0020000  0  4 02 18 19 11
  22813443.679    -8795256.200 3  -6853430.508 2
  22377719.325     9559647.553 3   7449064.783 2
  21346327.145     2586428.969 3   2015396.068 2
  23531746.408    -4261065.167 3  -3320296.801 1
 91  6  3 17 56 30.0020000  0  4 02 18 19 11
  22808975.272    -8818762.115 3  -6871746.763 2
  22387983.019     9613583.915 3   7491093.052 2
  21350246.935     2607030.764 3   2031449.398 2
  23532385.269    -4257708.882 3  -3317681.481 1
 91  6  3 17 56 45.0020000  0  4 02 18 19 11
  22804519.464    -8842198.953 3  -6890009.206 2
  22398262.305     9667604.780 3   7533187.160 2
  21354178.408     2627685.104 3   2047543.681 2
  23533052.609    -4254206.932 3  -3314952.699 1
 91  6  3 17 57  0.0020000  0  4 02 18 19 11
  22800070.539    -8865561.559 3  -6908213.789 2
  22408558.082     9721715.119 3   7575350.991 2
  21358116.486     2648396.997 3   2063682.793 3
  23533744.527    -4250554.074 3  -3312106.299 1
 91  6  3 17 57 15.0020000  0  4 02 18 19 11
  22795640.810    -8888849.951 3  -6926360.536 2
  22418872.138     9775914.724 3   7617584.369 2
  21362072.241     2669166.340 3   2079866.684 2
  23534464.628    -4246750.246 3  -3309142.259 1
 91  6  3 17 57 30.0020000  0  4 02 18 19 11
  22791220.365    -8912063.801 3  -6944449.228 2
  22429201.786     9830203.642 3   7659887.355 2
  21366033.702     2689993.430 3   2096095.562 2
  23535220.109    -4242795.285 3  -3306060.462 1
 91  6  3 17 57 45.0020000  0  4 02 18 19 11
  22786816.715    -8935204.217 3  -6962480.684 2
  22439553.325     9884580.259 3   7702258.670 2
  21370006.550     2710877.203 3   2112368.621 2
  23536003.467    -4238690.081 3  -3302861.618 1
 91  6  3 17 58  0.0020000  0  4 02 18 19 11
  22782426.258    -8958267.912 3  -6980452.342 2
  22449918.641     9939047.776 3   7744700.821 2
  21374000.085     2731820.686 3   2128688.207 2
  23536814.099    -4234431.342 3  -3299543.099 1
 91  6  3 17 58 15.0020000  0  4 02 18 19 11
  22778054.681    -8981254.571 3  -6998363.980 2
  22460296.259     9993605.956 3   7787213.627 2
  21377990.627     2752823.991 3   2145054.408 3
  23537655.618    -4230018.786 3  -3296104.715 1
 91  6  3 17 58 30.0020000  0  4 02 18 19 11
  22773692.703    -9004162.076 3  -7016213.957 2
  22470700.559    10048256.974 3   7829798.752 2
  21381999.753     2773889.462 3   2161469.046 3
  23538517.520    -4225449.899 3  -3292544.546 1
 91  6  3 17 58 45.0020000  0  4 02 18 19 11
  22769348.410    -9026989.190 3  -7034001.285 2
  22481115.651    10103001.792 3   7872456.972 2
  21386018.765     2795018.399 3   2177933.137 3
  23539414.199    -4220723.433 3  -3288861.583 1
 91  6  3 17 59  0.0020000  0  4 02 18 19 11
  22765017.004    -9049737.279 3  -7051727.038 2
  22491553.220    10157838.617 3   7915186.883 2
  21390056.676     2816209.472 3   2194445.644 2
  23540345.055    -4215840.810 2  -3285056.918 2
 91  6  3 17 59 15.0020000  0  4 02 18 19 11
  22760708.990    -9072407.601 3  -7069392.180 2
  22502005.481    10212765.808 3   7957987.226 2
  21394092.780     2837461.093 3   2211005.350 2
  23541311.291    -4210803.516 3  -3281131.762 1
 91  6  3 17 59 30.0020000  0  4 02 18 19 11
  22756410.269    -9094998.899 3  -7086995.766 2
  22512472.140    10267784.059 3   8000858.516 2
  21398154.667     2858774.409 3   2227613.105 3
  23542302.699    -4205610.296 3  -3277085.092 1
 91  6  3 17 59 45.0020000  0  4 02 18 19 11
  22752123.832    -9117518.309 3  -7104543.328 2
  22522961.282    10322886.049 3   8043795.052 2
  21402218.352     2880142.407 3   2244263.477 3
  23543323.196    -4200268.125 3  -3272922.361 1
 91  6  3 18  0  0.0020000  0  4 02 18 19 11
  22747852.988    -9139961.233 3  -7122031.272 2
  22533468.102    10378076.194 3   8086800.274 2
  21406297.026     2901569.573 3   2260959.954 2
  23544360.175    -4194772.243 3  -3268639.850 1
 91  6  3 18  0 15.0020000  0  4 02 18 19 11
  22743598.031    -9162328.441 3  -7139460.237 2
  22543979.729    10433353.586 3   8129873.497 2
  21410389.198     2923055.135 3   2277701.940 2
  23545434.934    -4189123.377 3  -3264238.102 1
 91  6  3 18  0 30.0020000  0  4 02 18 19 11
  22739353.876    -9184618.235 3  -7156828.870 2
  22554516.232    10488719.581 3   8173015.757 2
  21414486.160     2944600.545 3   2294490.554 2
  23546536.671    -4183319.715 3  -3259715.789 1
 91  6  3 18  0 45.0020000  0  4 02 18 19 11
  22735126.203    -9206835.664 3  -7174141.123 2
  22565063.833    10544168.774 3   8216222.842 2
  21418595.713     2966200.883 3   2311321.967 3
  23547672.881    -4177366.305 3  -3255076.772 1
 91  6  3 18  1  0.0020000  0  4 02 18 19 11
  22730919.209    -9228978.087 3  -7191394.920 2
  22575641.108    10599703.297 3   8259496.421 2
  21422720.264     2987858.605 3   2328198.095 3
  23548832.780    -4171260.544 3  -3250319.017 1
 91  6  3 18  1 15.0020000  0  4 02 18 19 11
  22726712.223    -9251042.503 3  -7208587.935 2
  22586222.283    10655326.282 3   8302838.913 2
  21426849.901     3009576.911 3   2345121.437 3
  23550022.056    -4164999.267 3  -3245440.107 2
 91  6  3 18  1 30.0020000  0  4 02 18 19 11
  22722529.223    -9273030.568 3  -7225721.458 2
  22596819.652    10711035.547 3   8346248.654 2
  21430989.433     3031353.989 3   2362090.562 2
  23551248.213    -4158584.244 3  -3240441.392 1
 91  6  3 18  1 45.0020000  0  4 02 18 19 11
  22718359.109    -9294940.294 3  -7242793.934 2
  22607441.590    10766832.769 3   8389726.928 2
  21435147.558     3053191.689 3   2379106.947 2
  23552500.144    -4152013.512 3  -3235321.347 1
 91  6  3 18  2  0.0020000  0  4 02 18 19 11
  22714205.783    -9316768.717 3  -7259803.060 2
  22618072.534    10822720.615 3   8433275.819 2
  21439322.165     3075093.021 3   2396172.899 3
  23553775.161    -4145284.025 3  -3230077.585 1
 91  6  3 18  2 15.0020000  0  4 02 18 19 11
  22710070.448    -9338515.303 3  -7276748.416 2
  22628728.657    10878699.070 3   8476895.303 2
  21443496.772     3097058.303 3   2413288.689 3
  23555087.051    -4138395.336 3  -3224709.780 1
 91  6  3 18  2 30.0020000  0  4 02 18 19 11
  22705948.602    -9360185.759 3  -7293634.451 2
  22639393.471    10934762.340 3   8520580.887 2
  21447688.777     3119081.915 3   2430449.926 2
  23556430.421    -4131352.822 3  -3219222.108 2
 91  6  3 18  2 45.0020000  0  4 02 18 19 11
  22701836.947    -9381778.509 3  -7310459.933 2
  22650078.676    10990911.877 3   8564333.691 2
  21451890.964     3141165.380 3   2447657.808 2
  23557790.578    -4124155.096 2  -3213613.501 2
 91  6  3 18  3  0.0020000  0  4 02 18 19 11
  22697742.078    -9403294.991 3  -7327225.999 2
  22660778.268    11047145.628 3   8608152.114 2
  21456106.648     3163307.289 3   2464911.235 2
  23559199.003    -4116803.469 3  -3207884.957 1
 91  6  3 18  3 15.0020000  0  4 02 18 19 11
  22693662.802    -9424734.848 3  -7343932.341 2
  22671497.649    11103463.710 3   8652036.261 2
  21460330.718     3185507.971 3   2482210.450 2
  23560631.413    -4109297.534 3  -3202036.165 1
 91  6  3 18  3 30.0020000  0  4 02 18 19 11
  22689594.022    -9446097.374 3  -7360578.417 2
  22682235.318    11159866.785 3   8695986.636 2
  21464561.096     3207768.081 3   2499555.974 3
  23562086.307    -4101636.609 2  -3196066.643 1
 91  6  3 18  3 45.0020000  0  4 02 18 19 11
  22685545.624    -9467378.976 3  -7377161.450 2
  22692983.474    11216357.890 3   8740005.604 2
  21468811.550     3230090.959 3   2516950.412 3
  23563570.282    -4093817.183 2  -3189973.574 1
 91  6  3 18  4  0.0020000  0  4 02 18 19 11
  22681514.912    -9488581.005 3  -7393682.482 2
  22703751.122    11272935.468 3   8784091.937 2
  21473074.603     3252475.308 3   2534392.742 3
  23565090.231    -4085840.488 3  -3183757.975 2
 91  6  3 18  4 15.0020000  0  5 02 18 19 11 06
  22677491.703    -9509700.297 3  -7410139.033 2
  22714528.961    11329602.271 3   8828247.805 2
  21477343.642     3274924.334 3   2551885.475 2
  23566636.853    -4077703.334 2  -3177417.354 1
  24160308.966      105136.75112     81924.960 1
 91  6  3 18  4 30.0020000  0  5 02 18 19 11 06
  22673486.171    -9530742.720 3  -7426535.693 2
  22725332.880    11386352.068 3   8872468.348 2
  21481624.678     3297432.021 3   2569423.907 2
  23568211.063    -4069411.592 2  -3170956.238 2
  24156464.430       84924.576 2     66175.280 1
 91  6  3 18  4 45.0020000  0  5 02 18 19 11 06
  22669499.233    -9551703.901 3  -7442869.056 2
  22736147.294    11443189.045 3   8916756.841 2
  21485923.103     3320002.686 3   2587011.428 2
  23569828.149    -4060960.931 3  -3164371.342 2
  24152619.894       64734.154 2     50442.476 1
 91  6  3 18  5  0.0020000  0  5 02 18 19 11 06
  22665528.479    -9572582.953 3  -7459138.405 2
  22746982.091    11500113.808 3   8961113.712 2
  21490233.821     3342637.484 3   2604648.918 2
  23571461.419    -4052350.251 3  -3157661.697 2
  24148784.344       44566.329 2     34727.334 1
 91  6  3 18  5 15.0020000  0  5 02 18 19 11 06
  22661571.224    -9593378.556 3  -7475342.736 2
  22757827.986    11557127.574 3   9005539.931 2
  21494546.337     3365337.616 3   2622337.316 2
  23573131.257    -4043578.316 3  -3150826.417 1
  24144949.397       24422.361 2     19030.775 1
 91  6  3 18  5 30.0020000  0  5 02 18 19 11 06
  22657627.754    -9614092.498 3  -7491483.431 2
  22768695.763    11614228.014 3   9050033.699 2
  21498882.236     3388101.213 3   2640075.174 2
  23574830.480    -4034646.881 3  -3143866.853 2
  24141116.553        4300.216 2      3351.176 1
 91  6  3 18  5 45.0020000  0  5 02 18 19 11 06
  22653710.066    -9634720.083 3  -7507556.839 2
  22779578.522    11671419.562 3   9094598.447 2
  21503222.926     3410932.687 3   2657865.921 3
  23576566.280    -4025551.432 3  -3136779.510 1
  24137293.001      -15795.535 2    -12307.831 1
 91  6  3 18  6  0.0020000  0  5 02 18 19 11 06
  22649788.479    -9655267.117 3  -7523567.484 2
  22790476.584    11728695.946 3   9139229.310 2
  21507586.405     3433826.205 3   2675705.005 2
  23578323.063    -4016297.736 3  -3129568.817 1
  24133478.444      -35870.747 2    -27950.841 1
 91  6  3 18  6 15.0020000  0  5 02 18 19 11 06
  22645897.167    -9675731.694 3  -7539513.883 2
  22801392.925    11786059.028 3   9183927.744 2
  21511954.386     3456783.902 3   2693594.111 2
  23580118.228    -4006883.671 3  -3122233.189 1
  24129665.083      -55923.468 2    -43576.350 1
 91  6  3 18  6 30.0020000  0  5 02 18 19 11 06
  22642022.355    -9696115.613 3  -7555397.425 2
  22812331.149    11843506.624 3   9228692.007 2
  21516330.151     3479803.832 3   2711531.697 2
  23581928.374    -3997311.035 3  -3114773.984 2
  24125842.726      -75955.544 2    -59185.742 1
 91  6  3 18  6 45.0020000  0  5 02 18 19 11 06
  22638158.327    -9716415.479 3  -7571215.469 2
  22823276.275    11901041.808 3   9273524.542 2
  21520727.213     3502889.328 3   2729520.392 2
  23583790.984    -3987576.405 3  -3107188.558 1
  24122036.258      -95963.701 2    -74776.472 1
 91  6  3 18  7  0.0020000  0  5 02 18 19 11 06
  22634307.797    -9736635.290 3  -7586971.117 2
  22834236.390    11958660.303 3   9318421.987 2
  21525129.658     3526036.609 3   2747557.213 2
  23585667.083    -3977683.848 3  -3099480.051 1
  24118241.490     -115952.124 2    -90351.851 1
 91  6  3 18  7 15.0020000  0  5 02 18 19 11 06
  22630474.046    -9756779.228 3  -7602667.668 2
  22845214.191    12016357.595 3   9363380.837 2
  21529546.806     3549241.241 3   2765638.732 2
  23587577.062    -3967637.581 3  -3091651.778 1
  24114433.224     -135925.048 2   -105915.116 1
 91  6  3 18  7 30.0020000  0  5 02 18 19 11 06
  22626655.894    -9776844.358 3  -7618302.803 2
  22856209.076    12074136.435 3   9408403.220 2
  21533972.940     3572506.192 3   2783767.248 2
  23589523.014    -3957434.704 3  -3083701.489 2
  24110639.948     -155879.639 2   -121464.146 1
 91  6  3 18  7 45.0020000  0  5 02 18 19 11 06
  22622851.825    -9796835.147 3  -7633880.001 2
  22867224.648    12131991.829 3   9453485.256 2
  21538411.665     3595826.899 3   2801939.215 2
  23591502.244    -3947079.561 3  -3075632.559 2
  24106846.978     -175820.358 2   -137002.323 1
 91  6  3 18  8  0.0020000  0  5 02 18 19 11 06
  22619067.248    -9816746.449 3  -7649395.268 2
  22878244.417    12189928.929 3   9498630.962 2
  21542860.589     3619208.581 3   2820158.698 2
  23593491.368    -3936566.872 2  -3067440.802 1
  24103050.709     -195742.146 2   -152525.768 1
 91  6  3 18  8 15.0020000  0  5 02 18 19 11 06
  22615289.564    -9836579.774 3  -7664849.769 2
  22889289.672    12247945.994 3   9543838.988 2
  21547315.202     3642649.618 3   2838424.430 2
  23595524.257    -3925898.191 3  -3059127.579 1
  24099265.827     -215646.611 2   -168035.748 1
 91  6  3 18  8 30.0020000  0  5 02 18 19 11 06
  22611534.364    -9856330.235 3  -7680239.705 2
  22900342.719    12306047.347 3   9589112.696 2
  21551796.200     3666154.779 3   2856740.116 3
  23597583.531    -3915068.783 3  -3050689.052 1
  24095477.044     -235528.936 2   -183528.452 1
 91  6  3 18  8 45.0020000  0  5 02 18 19 11 06
  22607788.152    -9876001.081 3  -7695567.606 2
  22911420.056    12364229.373 3   9634449.244 2
  21556281.700     3689720.799 3   2875103.248 2
  23599679.381    -3904081.921 3  -3042127.884 1
  24091708.355     -255392.511 2   -199006.604 1
 91  6  3 18  9  0.0020000  0  5 02 18 19 11 06
  22604058.133    -9895593.135 3  -7710834.098 2
  22922499.487    12422491.024 3   9679847.845 2
  21560771.685     3713346.947 3   2893513.218 2
  23601800.717    -3892938.359 3  -3033444.581 1
  24087926.178     -275238.309 2   -214470.809 1
 91  6  3 18  9 15.0020000  0  5 02 18 19 11 06
  22600350.904    -9915107.770 3  -7726040.273 2
  22933601.699    12480830.610 3   9725307.191 2
  21565278.465     3737031.771 3   2911968.900 2
  23603945.130    -3881639.542 3  -3024640.304 1
  24084155.386     -295067.574 2   -229922.123 1
 91  6  3 18  9 30.0020000  0  5 02 18 19 11 06
  22596648.168    -9934543.446 3  -7741184.929 2
  22944721.301    12539249.324 3   9770828.176 2
  21569801.134     3760776.796 3   2930471.504 2
  23606123.720    -3870183.922 3  -3015713.833 1
  24080387.596     -314879.091 2   -245359.640 1
 91  6  3 18  9 45.0020000  0  5 02 18 19 11 06
  22592962.517    -9953902.953 3  -7756270.213 2
  22955855.892    12597744.238 3   9816408.534 2
  21574322.311     3784579.266 3   2949018.865 2
  23608334.689    -3858574.213 3  -3006667.309 1
  24076619.205     -334675.445 2   -260785.338 1
 91  6  3 18 10  0.0020000  0  5 02 18 19 11 06
  22589293.957    -9973185.010 3  -7771295.162 2
  22967003.371    12656316.112 3   9862048.863 2
  21578869.558     3808440.163 3   2967611.767 2
  23610575.341    -3846809.332 3  -2997499.851 1
  24072849.617     -354455.657 2   -276198.453 1
 91  6  3 18 10 15.0020000  0  5 02 18 19 11 06
  22585637.386    -9992390.613 3  -7786260.528 2
  22978160.752    12714963.700 3   9907748.198 2
  21583418.307     3832358.691 3   2986249.563 2
  23612844.166    -3834890.046 3  -2988212.101 1
  24069087.821     -374220.704 2   -291599.776 1
 91  6  3 18 10 30.0020000  0  5 02 18 19 11 06
  22581999.409   -10011518.058 3  -7801164.992 2
  22989334.013    12773688.461 3   9953507.683 2
  21587982.647     3856336.534 3   3004933.592 2
  23615143.877    -3822814.760 3  -2978802.776 2
  24065332.613     -393968.938 2   -306988.026 1
 91  6  3 18 10 45.0020000  0  5 02 18 19 11 06
  22578372.817   -10030559.988 3  -7816002.831 2
  23000525.570    12832497.682 3   9999332.945 2
  21592556.584     3880381.092 3   3023669.589 2
  23617470.864    -3810575.979 3  -2969266.056 1
  24061575.014     -413692.933 2   -322357.336 1
 91  6  3 18 11  0.0020000  0  5 02 18 19 11 06
  22574768.710   -10049519.805 3  -7830776.667 2
  23011727.310    12891387.275 3  10045220.856 2
  21597144.011     3904488.989 3   3042454.947 2
  23619832.629    -3798177.122 3  -2959604.609 2
  24057827.911     -433396.331 2   -337710.641 1
 91  6  3 18 11 15.0020000  0  5 02 18 19 11 06
  22571175.702   -10068396.105 3  -7845485.443 2
  23022944.947    12950358.381 3  10091172.278 2
  21601746.419     3928661.561 3   3061290.712 2
  23622218.981    -3785616.959 3  -2949817.444 1
  24054082.004     -453077.807 2   -353046.788 1
 91  6  3 18 11 30.0020000  0  5 02 18 19 11 06
  22567600.379   -10087188.233 3  -7860128.621 2
  23034186.561    13009411.439 3  10137187.554 2
  21606364.427     3952899.354 3   3080177.292 2
  23624638.305    -3772894.875 3  -2939904.136 2
  24050343.592     -472736.817 2   -368365.444 1
 91  6  3 18 11 45.0020000  0  5 02 18 19 11 06
  22564042.436   -10105895.521 3  -7874705.701 2
  23045438.976    13068547.170 3  10183267.270 1
  21610983.630     3977203.016 3   3099115.202 2
  23627089.110    -3760010.128 3  -2929864.069 1
  24046608.180     -492372.676 2   -383666.110 1
 91  6  3 18 12  0.0020000  0  5 02 18 19 11 06
  22560496.797   -10124518.618 3  -7889217.151 2
  23056715.071    13127764.170 3  10229410.288 2
  21615622.614     4001571.897 3   3118103.931 2
  23629577.083    -3746963.500 3  -2919697.866 1
  24042878.162     -511986.147 2   -398949.295 1
 91  6  3 18 12 15.0020000  0  5 02 18 19 11 06
  22556967.333   -10143058.639 3  -7903663.885 2
  23067999.254    13187061.198 3  10275615.667 2
  21620274.196     4026005.076 3   3137142.773 2
  23632092.942    -3733755.962 3  -2909406.260 1
  24039145.150     -531578.280 2   -414215.882 1
 91  6  3 18 12 30.0020000  0  5 02 18 19 11 06
  22553455.564   -10161516.641 3  -7918046.711 2
  23079291.238    13246436.990 3  10321882.426 2
  21624933.867     4050501.336 3   3156230.745 2
  23634634.584    -3720388.668 2  -2898990.204 1
  24035427.416     -551150.262 2   -429466.759 1
 91  6  3 18 12 45.0020000  0  5 02 18 19 11 06
  22549957.886   -10179889.772 3  -7932363.402 2
  23090606.605    13305893.638 3  10368212.195 2
  21629606.433     4075063.369 3   3175369.983 2
  23637202.602    -3706858.922 2  -2888447.533 1
  24031704.595     -570699.462 2   -444699.882 1
 91  6  3 18 13  0.0020000  0  5 02 18 19 11 06
  22546473.400   -10198175.987 3  -7946612.352 2
  23101936.359    13365433.331 3  10414606.670 2
  21634292.488     4099693.176 3   3194562.026 2
  23639816.793    -3693164.738 3  -2877776.749 2
  24027989.566     -590223.923 2   -459913.696 1
 91  6  3 18 13 15.0020000  0  5 02 18 19 11 06
  22543015.299   -10216378.277 3  -7960795.909 2
  23113286.208    13425052.643 3  10461063.197 2
  21638992.338     4124387.920 3   3213804.673 2
  23642447.474    -3679308.819 2  -2866979.915 2
  24024275.444     -609726.461 2   -475110.492 1
 91  6  3 18 13 30.0020000  0  5 02 18 19 11 06
  22539567.686   -10234495.223 3  -7974912.982 2
  23124646.544    13484752.623 3  10507582.556 2
  21643702.675     4149149.105 3   3233099.100 2
  23645116.223    -3665289.772 3  -2856055.994 1
  24020572.700     -629205.685 2   -490289.107 1
 91  6  3 18 13 45.0020000  0  5 02 18 19 11 06
  22536137.156   -10252525.641 3  -7988962.610 2
  23136022.768    13544534.231 3  10554165.530 2
  21648426.510     4173977.726 3   3252446.071 2
  23647813.163    -3651106.500 3  -2845004.072 1
  24016866.370     -648660.544 2   -505448.680 1
 91  6  3 18 14  0.0020000  0  5 02 18 19 11 06
  22532726.721   -10270472.308 3  -8002946.990 2
  23147411.880    13604394.426 3  10600809.749 2
  21653165.928     4198871.010 3   3271843.425 2
  23650550.561    -3636761.690 3  -2833826.301 2
  24013171.129     -668093.926 2   -520591.526 1
 91  6  3 18 14 15.0020000  0  5 02 18 19 11 06
  22529324.077   -10288336.293 3  -8016866.953 2
  23158824.680    13664331.771 3  10647514.070 2
  21657917.631     4223827.802 3   3291290.271 2
  23653304.162    -3622256.723 3  -2822523.739 1
  24009472.887     -687506.957 2   -535718.562 1
 91  6  3 18 14 30.0020000  0  5 02 18 19 11 06
  22525938.813   -10306120.528 3  -8030724.760 2
  23170239.277    13724343.104 3  10694276.055 2
  21662675.346     4248845.213 3   3310784.336 2
  23656094.024    -3607594.487 3  -2811098.602 1
  24005776.451     -706902.690 2   -550832.086 1
 91  6  3 18 14 45.0020000  0  5 02 18 19 11 06
  22522568.251   -10323825.739 3  -8044520.988 2
  23181666.465    13784427.475 3  10741094.970 1
  21667449.534     4273922.562 3   3330325.122 2
  23658910.873    -3592775.632 3  -2799551.433 2
  24002094.097     -726281.837 2   -565932.726 1
 91  6  3 18 15  0.0020000  0  5 02 18 19 11 06
  22519216.570   -10341450.006 3  -8058254.146 2
  23193122.437    13844586.738 3  10787972.208 2
  21672233.624     4299061.877 3   3349914.189 2
  23661767.299    -3577798.101 3  -2787880.627 2
  23998414.440     -745642.291 2   -581018.765 1
 91  6  3 18 15 15.0020000  0  5 02 18 19 11 06
  22515880.778   -10358994.579 3  -8071925.213 2
  23204583.199    13904818.982 3  10834906.326 2
  21677028.202     4324261.754 3   3369550.448 2
  23664641.411    -3562663.419 3  -2776087.367 2
  23994729.992     -764985.574 2   -596091.405 1
 91  6  3 18 15 30.0020000  0  5 02 18 19 11 06
  22512556.677   -10376460.093 3  -8085534.672 2
  23216058.061    13965123.056 3  10881896.405 2
  21681834.481     4349521.481 3   3389233.349 2
  23667552.396    -3547372.520 3  -2764172.374 2
  23991050.945     -784312.566 2   -611151.360 1
 91  6  3 18 15 45.0020000  0  5 02 18 19 11 06
  22509245.472   -10393845.623 3  -8099081.799 2
  23227549.998    14025499.934 3  10928943.250 2
  21686657.538     4374842.129 3   3408963.699 2
  23670490.960    -3531924.265 3  -2752134.757 1
  23987374.585     -803622.208 2   -626197.813 1
 91  6  3 18 16  0.0020000  0  5 02 18 19 11 06
  22505950.758   -10411153.373 3  -8112568.328 2
  23239049.142    14085947.292 3  10976044.990 2
  21691485.699     4400221.513 3   3428739.852 2
  23673463.700    -3516320.721 3  -2739976.138 1
  23983703.627     -822916.710 2   -641232.436 1
 91  6  3 18 16 15.0020000  0  5 02 18 19 11 06
  22502673.127   -10428387.644 3  -8125997.613 2
  23250564.767    14146460.012 3  11023197.676 1
  21696317.455     4425655.223 3   3448558.316 2
  23676461.630    -3500566.523 3  -2727700.158 1
  23980032.668     -842200.496 2   -656258.778 1
 91  6  3 18 16 30.0020000  0  5 02 18 19 11 06
  22499407.781   -10445544.865 3  -8139366.835 2
  23262094.484    14207041.319 3  11070403.775 2
  21701175.587     4451146.737 3   3468421.827 2
  23679494.025    -3484658.022 3  -2715303.900 2
  23976366.508     -861470.053 2   -671274.014 1
 91  6  3 18 16 45.0020000  0  5 02 18 19 11 06
  22496159.536   -10462623.997 3  -8152675.217 2
  23273634.400    14267692.228 3  11117664.120 2
  21706033.422     4476697.093 3   3488331.191 2
  23682546.513    -3468594.208 3  -2702786.630 1
  23972700.942     -880724.476 2   -686277.379 1
 91  6  3 18 17  0.0020000  0  5 02 18 19 11 06
  22492921.771   -10479629.846 3  -8165926.500 2
  23285191.993    14328407.624 3  11164974.730 2
  21710902.356     4502301.491 3   3508282.662 2
  23685636.475    -3452379.993 3  -2690152.180 1
  23969046.177     -899968.550 2   -701272.737 1
 91  6  3 18 17 15.0020000  0  5 02 18 19 11 06
  22489700.207   -10496557.348 3  -8179116.731 2
  23296753.190    14389192.376 3  11212339.363 2
  21715791.069     4527964.955 3   3528280.156 2
  23688750.423    -3436010.299 3  -2677396.551 1
  23965382.111     -919197.242 2   -716256.122 1
 91  6  3 18 17 30.0020000  0  5 02 18 19 11 06
  22486488.826   -10513411.956 3  -8192250.158 2
  23308341.670    14450040.567 3  11259753.435 1
  21720687.277     4553682.227 3   3548319.583 2
  23691894.647    -3419490.509 3  -2664523.974 2
  23961727.643     -938416.031 2   -731231.750 1
 91  6  3 18 17 45.0020000  0  5 02 18 19 11 06
  22483298.438   -10530187.854 3  -8205322.251 2
  23319929.548    14510957.819 3  11307221.334 1
  21725589.192     4579459.005 3   3568405.384 2
  23695068.545    -3402814.826 3  -2651529.921 1
  23958077.965     -957619.064 2   -746195.119 1
 91  6  3 18 18  0.0020000  0  5 02 18 19 11 06
  22480120.937   -10546883.283 3  -8218331.652 2
  23331528.516    14571945.460 3  11354744.082 2
  21730507.283     4605297.010 3   3588538.884 2
  23698265.835    -3385981.623 2  -2638413.139 1
  23954421.097     -976804.680 2   -761144.961 1
 91  6  3 18 18 15.0020000  0  5 02 18 19 11 06
  22476957.526   -10563501.831 3  -8231281.155 2
  23343156.268    14632999.931 3  11402318.870 1
  21735434.072     4631192.702 3   3608717.336 2
  23701506.288    -3368994.558 3  -2625176.451 1
  23950771.122     -995976.555 2   -776084.033 1
 91  6  3 18 18 30.0020000  0  5 02 18 19 11 06
  22473810.606   -10580040.417 3  -8244168.321 2
  23354781.019    14694123.985 2  11449947.927 1
  21740379.447     4657149.047 3   3628943.050 2
  23704761.434    -3351850.655 3  -2611817.555 2
  23947125.048    -1015131.576 2   -791009.951 1
 91  6  3 18 18 45.0020000  0  5 02 18 19 11 06
  22470675.971   -10596497.028 3  -8256991.629 2
  23366426.160    14755319.295 2  11497632.447 1
  21745323.329     4683168.142 3   3649217.667 2
  23708054.054    -3334547.864 3  -2598334.868 1
  23943487.672    -1034267.858 2   -805921.353 1
 91  6  3 18 19  0.0020000  0  5 02 18 19 11 06
  22467563.533   -10612873.572 3  -8269752.542 2
  23378085.688    14816583.308 3  11545370.549 1
  21750287.288     4709248.310 3   3669539.862 2
  23711381.156    -3317088.101 3  -2584729.837 2
  23939843.691    -1053387.203 2   -820819.491 1
 91  6  3 18 19 15.0020000  0  5 02 18 19 11 06
  22464463.676   -10629170.440 3  -8282451.359 2
  23389757.205    14877915.375 3  11593161.674 1
  21755261.743     4735389.013 3   3689909.228 2
  23714734.635    -3299471.879 3  -2571002.878 1
  23936210.503    -1072490.119 2   -835704.818 1
 91  6  3 18 19 30.0020000  0  5 02 18 19 11 06
  22461377.911   -10645386.392 4  -8295087.142 2
  23401442.517    14939316.757 3  11641006.805 1
  21760251.493     4761591.416 3   3710326.666 2
  23718113.895    -3281698.028 3  -2557153.118 2
  23932578.520    -1091575.429 2   -850576.493 1
 91  6  3 18 19 45.0020000  0  5 02 18 19 11 06
  22458309.238   -10661521.671 4  -8307660.058 2
  23413135.323    15000786.992 2  11688905.586 2
  21765243.337     4787855.241 3   3730791.984 2
  23721522.830    -3263766.908 3  -2543180.797 1
  23928954.328    -1110643.445 2   -865434.654 1
 91  6  3 18 20  0.0020000  0  5 02 18 19 11 06
  22455254.647   -10677575.681 4  -8320169.649 2
  23424841.915    15062326.084 3  11736858.041 1
  21770254.664     4814181.086 3   3751305.623 2
  23724973.445    -3245677.973 3  -2529085.509 1
  23925329.237    -1129693.697 2   -880278.968 1
 91  6  3 18 20 15.0020000  0  5 02 18 19 11 06
  22452215.351   -10693549.786 3  -8332616.966 2
  23436576.995    15123932.387 3  11784862.835 1
  21775276.793     4840567.669 3   3771866.579 2
  23728436.642    -3227432.571 3  -2514868.300 2
  23921702.951    -1148727.535 2   -895110.499 1
 91  6  3 18 20 30.0020000  0  5 02 18 19 11 06
  22449191.944   -10709445.401 4  -8345003.137 2
  23448304.876    15185604.281 3  11832918.767 2
  21780308.503     4867013.477 3   3792473.687 2
  23731937.923    -3209032.156 3  -2500530.310 1
  23918087.152    -1167746.312 2   -909930.273 1
 91  6  3 18 20 45.0020000  0  5 02 18 19 11 06
  22446179.033   -10725260.271 4  -8357326.377 2
  23460059.142    15247343.460 2  11881027.118 1
  21785354.914     4893520.841 3   3813128.780 2
  23735467.675    -3190474.588 2  -2486069.839 1
  23914468.361    -1186747.825 2   -924736.615 1
 91  6  3 18 21  0.0020000  0  5 02 18 19 11 06
  22443183.511   -10740994.321 4  -8369586.664 2
  23471822.098    15309149.992 3  11929187.949 2
  21790406.115     4920089.936 3   3833831.950 2
  23739027.711    -3171759.839 3  -2471486.898 2
  23910855.861    -1205732.119 2   -939529.534 1
 91  6  3 18 21 15.0020000  0  5 02 18 19 11 06
  22440208.668   -10756643.216 4  -8381780.592 2
  23483594.050    15371027.776 3  11977404.275 1
  21795479.801     4946724.966 3   3854586.502 2
  23742621.924    -3152883.637 3  -2456778.158 2
  23907250.558    -1224694.868 2   -954305.678 1
 91  6  3 18 21 30.0020000  0  5 02 18 19 11 06
  22437246.415   -10772210.883 4  -8393911.213 3
  23495382.483    15432972.539 3  12025672.841 1
  21800555.886     4973421.943 3   3875389.329 2
  23746247.311    -3133850.107 3  -2441946.832 1
  23903638.058    -1243640.141 2   -969068.185 1
 91  6  3 18 21 45.0020000  0  5 02 18 19 11 06
  22434293.759   -10787698.771 3  -8405979.675 2
  23507180.820    15494982.835 2  12073992.438 1
  21805649.665     5000179.540 3   3896239.394 2
  23749897.888    -3114660.632 3  -2426993.966 1
  23900038.148    -1262569.172 2   -983818.048 1
 91  6  3 18 22  0.0020000  0  5 02 18 19 11 06
  22431364.487   -10803111.720 4  -8417989.746 2
  23518993.841    15557053.456 3  12122359.045 1
  21810753.034     5026993.075 3   3917133.047 2
  23753575.146    -3095320.021 3  -2411923.358 1
  23896443.639    -1281486.926 2   -998559.128 1
 91  6  3 18 22 15.0020000  0  5 02 18 19 11 06
  22428444.211   -10818446.595 3  -8429938.966 2
  23530816.154    15619187.069 2  12170774.746 1
  21815867.187     5053865.741 3   3938072.776 2
  23757288.675    -3075825.276 3  -2396732.605 1
  23892843.728    -1300390.201 2  -1013288.933 1
 91  6  3 18 22 30.0020000  0  5 02 18 19 11 06
  22425545.215   -10833703.465 4  -8441827.423 2
  23542649.862    15681383.357 2  12219239.265 1
  21820987.046     5080797.064 3   3959058.204 2
  23761025.883    -3056176.634 3  -2381421.965 1
  23889253.416    -1319279.242 2  -1028007.665 1
 91  6  3 18 22 45.0020000  0  5 02 18 19 11 06
  22422656.419   -10848880.723 4  -8453653.847 2
  23554500.061    15743643.711 2  12267753.721 2
  21826120.394     5107788.983 3   3980090.845 2
  23764797.870    -3036372.433 3  -2365990.107 1
  23885657.406    -1338152.479 2  -1042714.029 1
 91  6  3 18 23  0.0020000  0  5 02 18 19 11 06
  22419783.511   -10863981.493 4  -8465420.644 2
  23566358.653    15805964.772 2  12316315.482 2
  21831273.521     5134838.361 3   4001168.279 2
  23768592.044    -3016415.786 3  -2350439.454 1
  23882069.484    -1357012.937 2  -1057410.477 1
 91  6  3 18 23 15.0020000  0  5 02 18 19 11 06
  22416917.792   -10878999.867 3  -8477123.255 2
  23578234.625    15868351.881 2  12364928.694 1
  21836435.051     5161951.092 3   4022295.079 2
  23772427.288    -2996300.927 3  -2334765.528 1
  23878488.464    -1375854.882 2  -1072092.451 1
 91  6  3 18 23 30.0020000  0  5 02 18 19 11 06
  22414079.357   -10893939.152 3  -8488764.230 2
  23590115.999    15930801.629 2  12413590.758 1
  21841601.372     5189123.853 3   4043468.646 2
  23776275.724    -2976031.221 3  -2318970.917 2
  23874902.051    -1394681.461 2  -1086762.484 1
 91  6  3 18 23 45.0020000  0  5 02 18 19 11 06
  22411248.714   -10908798.715 3  -8500343.081 2
  23602014.465    15993314.424 2  12462301.914 1
  21846786.887     5216357.135 3   4064689.365 2
  23780164.636    -2955606.109 3  -2303055.236 2
  23871325.228    -1413492.071 2  -1101420.113 1
 91  6  3 18 24  0.0020000  0  5 02 18 19 11 06
  22408440.564   -10923574.964 4  -8511857.022 2
  23613920.425    16055893.382 2  12511064.626 1
  21851984.984     5243654.695 3   4085960.185 2
  23784084.121    -2935022.168 3  -2287015.777 1
  23867743.902    -1432283.359 2  -1116062.618 1
 91  6  3 18 24 15.0020000  0  5 02 18 19 11 06
  22405641.400   -10938267.183 3  -8523305.479 2
  23625844.665    16118539.149 2  12559879.408 2
  21857188.482     5271017.292 3   4107281.675 2
  23788032.686    -2914278.758 3  -2270852.068 2
  23864174.277    -1451054.439 2  -1130689.395 1
 91  6  3 18 24 30.0030000  0  5 02 18 19 11 06
  22402861.724   -10952876.512 3  -8534689.337 2
  23637776.106    16181255.301 2  12608749.017 1
  21862406.371     5298446.520 3   4128655.092 2
  23792006.139    -2893374.629 3  -2254563.139 1
  23860604.646    -1469806.869 2  -1145301.665 1
 91  6  3 18 24 45.0030000  0  5 02 18 19 11 06
  22400099.433   -10967400.452 3  -8546006.668 2
  23649721.339    16244033.591 2  12657667.071 1
  21867643.146     5325939.213 3   4150077.950 2
  23796020.361    -2872312.172 3  -2238150.825 2
  23857044.313    -1488537.641 2  -1159897.026 1
 91  6  3 18 25  0.0030000  0  5 02 18 19 11 06
  22397352.733   -10981839.091 3  -8557257.540 2
  23661681.561    16306878.871 2  12706637.278 1
  21872885.619     5353498.052 3   4171552.348 2
  23800061.561    -2851089.277 3  -2221613.477 2
  23853484.574    -1507247.207 2  -1174475.863 1
 91  6  3 18 25 15.0030000  0  5 02 18 19 11 06
  22394617.726   -10996195.273 3  -8568444.134 2
  23673654.068    16369788.185 2  12755657.437 1
  21878141.276     5381120.426 3   4193076.266 2
  23804125.551    -2829708.682 3  -2204953.270 2
  23849923.638    -1525938.184 2  -1189040.201 1
 91  6  3 18 25 30.0030000  0  5 02 18 19 11 06
  22391903.109   -11010468.410 4  -8579566.040 2
  23685638.276    16432761.840 2  12804727.678 1
  21883406.530     5408806.923 3   4214650.158 2
  23808218.613    -2808169.884 3  -2188169.764 2
  23846372.598    -1544609.971 2  -1203589.633 1
 91  6  3 18 25 45.0030000  0  5 02 18 19 11 06
  22389204.380   -11024658.532 4  -8590623.252 2
  23697637.168    16495799.358 2  12853847.708 1
  21888687.376     5436557.347 3   4236273.849 2
  23812355.449    -2786473.169 3  -2171263.237 2
  23842825.457    -1563262.772 2  -1218124.218 1
 91  6  3 18 26  0.0030000  0  5 02 18 19 11 06
  22386519.132   -11038769.484 3  -8601618.779 2
  23709636.661    16558896.536 2  12903014.263 1
  21893982.915     5464367.874 3   4257944.372 2
  23816503.679    -2764622.404 3  -2154236.660 1
  23839272.916    -1581900.443 2  -1232647.060 1
 91  6  3 18 26 15.0030000  0  5 02 18 19 11 06
  22383847.382   -11052797.116 4  -8612549.367 2
  23721656.843    16622057.112 2  12952230.145 1
  21899288.034     5492242.772 3   4279665.064 2
  23820695.675    -2742613.521 3  -2137086.861 1
  23835732.362    -1600518.845 2  -1247154.885 1
 91  6  3 18 26 30.0030000  0  5 02 18 19 11 06
  22381198.718   -11066746.354 4  -8623418.882 2
  23733689.605    16685276.111 2  13001491.591 1
  21904599.462     5520177.187 3   4301432.123 2
  23824910.461    -2720451.456 3  -2119817.724 1
  23832190.020    -1619122.899 2  -1261651.525 1
 91  6  3 18 26 45.0030000  0  5 02 18 19 11 06
  22378552.750   -11080616.750 3  -8634226.967 2
  23745730.770    16748553.731 2  13050798.749 1
  21909929.474     5548171.650 3   4323245.977 2
  23829161.212    -2698135.860 3  -2102428.957 1
  23828653.367    -1637712.041 2  -1276136.575 1
 91  6  3 18 27  0.0030000  0  5 02 18 19 11 06
  22375931.666   -11094408.117 4  -8644973.466 2
  23757783.627    16811889.762 2  13100151.373 1
  21915272.373     5576226.099 3   4345106.569 2
  23833432.956    -2675666.756 3  -2084920.554 1
  23825117.613    -1656286.367 2  -1290610.000 1
 91  6  3 18 27 15.0030000  0  5 02 18 19 11 06
  22373320.773   -11108119.872 4  -8655657.915 2
  23769842.783    16875284.345 2  13149549.647 1
  21920618.875     5604341.305 3   4367014.510 2
  23837740.673    -2653043.583 3  -2067292.088 2
  23821589.956    -1674845.189 2  -1305071.376 1
 91  6  3 18 27 30.0030000  0  5 02 18 19 11 06
  22370729.669   -11121750.757 4  -8666279.358 2
  23781928.010    16938738.550 2  13198994.366 2
  21925989.651     5632518.338 3   4388970.625 2
  23842074.775    -2630265.202 3  -2049542.692 1
  23818053.904    -1693387.249 2  -1319519.699 1
 91  6  3 18 27 45.0030000  0  5 02 18 19 11 06
  22368149.349   -11135301.047 4  -8676838.005 2
  23794010.846    17002252.073 2  13248485.290 1
  21931350.541     5660757.183 3   4410974.906 2
  23846439.449    -2607331.818 3  -2031672.501 1
  23814535.539    -1711912.905 2  -1333955.225 1
 91  6  3 18 28  0.0030000  0  5 02 18 19 11 06
  22365586.427   -11148773.186 4  -8687335.753 2
  23806103.280    17065822.033 2  13298020.208 1
  21936735.416     5689055.331 3   4433025.403 2
  23850831.111    -2584246.113 3  -2013683.636 2
  23811013.876    -1730424.414 2  -1348379.748 1
 91  6  3 18 28 15.0030000  0  5 02 18 19 11 06
  22363035.493   -11162172.413 4  -8697776.675 2
  23818209.796    17129442.821 2  13347594.721 1
  21942131.678     5717407.496 3   4455117.983 2
  23855250.658    -2561013.515 3  -1995580.320 1
  23807489.822    -1748927.189 2  -1362797.466 2
 91  6  3 18 28 30.0030000  0  5 02 18 19 11 06
  22360502.245   -11175492.583 4  -8708156.010 2
  23830332.803    17193120.433 2  13397213.559 1
  21947540.233     5745819.805 3   4477257.437 2
  23859702.575    -2537627.944 3  -1977357.771 2
  23803972.050    -1767415.184 2  -1377203.621 1
 91  6  3 18 28 45.0030000  0  5 02 18 19 11 06
  22357980.095   -11188738.207 4  -8718477.250 2
  23842454.308    17256849.948 2  13446872.785 1
  21952960.786     5774287.952 3   4499440.391 2
  23864179.969    -2514093.881 2  -1959019.535 1
  23800452.193    -1785892.640 2  -1391601.608 1
 91  6  3 18 29  0.0030000  0  5 02 18 19 11 06
  22355477.123   -11201904.962 3  -8728737.036 2
  23854598.604    17320635.503 2  13496575.698 1
  21958390.918     5802816.281 3   4521670.238 2
  23868686.750    -2490407.092 3  -1940562.289 1
  23796941.017    -1804355.152 2  -1405988.005 1
 91  6  3 18 29 15.0030000  0  5 02 18 19 11 06
  22352985.250   -11214995.745 3  -8738937.613 2
  23866739.602    17384473.505 2  13546319.458 1
  21963829.156     5831401.841 3   4543944.695 2
  23873226.511    -2466570.669 2  -1921988.463 2
  23793433.750    -1822806.022 2  -1420365.231 1
 91  6  3 18 29 30.0030000  0  5 02 18 19 11 06
  22350506.263   -11228012.553 4  -8749080.550 3
  23878905.178    17448362.152 2  13596102.696 1
  21969278.781     5860042.638 3   4566262.178 2
  23877791.453    -2442586.664 3  -1903299.640 1
  23789921.684    -1841247.058 2  -1434734.850 1
 91  6  3 18 29 45.0030000  0  5 02 18 19 11 06
  22348040.172   -11240950.663 3  -8759162.190 3
  23891071.959    17512305.569 2  13645928.641 1
  21974740.708     5888743.638 3   4588626.586 2
  23882381.872    -2418450.438 3  -1884492.195 1
  23786418.605    -1859673.415 2  -1449092.997 1
 91  6  3 18 30  0.0030000  0  5 02 18 19 11 06
  22345600.466   -11253816.083 4  -8769187.148 3
  23903247.124    17576297.928 2  13695792.680 1
  21980213.114     5917498.770 3   4611033.172 2
  23887004.069    -2394168.046 3  -1865570.828 2
  23782910.736    -1878091.211 2  -1463444.541 1
 91  6  3 18 30 15.0030000  0  5 02 18 19 11 06
  22343161.649   -11266605.792 3  -8779153.120 2
  23915425.299    17640341.592 2  13745696.724 1
  21985691.819     5946310.834 3   4633484.110 2
  23891650.259    -2369736.683 2  -1846533.416 1
  23779409.760    -1896497.399 2  -1477786.998 1
 91  6  3 18 30 30.0030000  0  5 02 18 19 11 06
  22340742.325   -11279318.801 4  -8789059.342 3
  23927634.641    17704437.192 2  13795641.203 1
  21991186.718     5975180.999 3   4655980.330 2
  23896327.921    -2345155.475 3  -1827379.225 1
  23775912.379    -1914891.047 2  -1492119.627 1
 91  6  3 18 30 45.0030000  0  5 02 18 19 11 06
  22338339.186   -11291951.785 4  -8798903.203 3
  23939841.888    17768587.825 2  13845628.594 1
  21996691.206     6004112.530 3   4678524.363 2
  23901030.458    -2320421.317 3  -1808105.822 1
  23772413.802    -1933268.846 2  -1506439.981 1
 91  6  3 18 31  0.0030000  0  5 02 18 19 11 06
  22335948.942   -11304510.312 4  -8808689.025 2
  23952056.936    17832787.732 2  13895654.358 1
  22002214.584     6033099.862 3   4701111.892 2
  23905767.782    -2295539.837 3  -1788717.673 2
  23768914.920    -1951636.374 2  -1520752.309 1
 91  6  3 18 31 15.0030000  0  5 02 18 19 11 06
  22333573.985   -11316987.098 4  -8818411.179 3
  23964285.769    17897043.953 2  13945724.032 1
  22007734.663     6062150.453 3   4723748.703 2
  23910530.286    -2270503.750 3  -1769209.005 1
  23765424.737    -1969986.170 2  -1535050.818 1
 91  6  3 18 31 30.0030000  0  5 02 18 19 11 06
  22331217.019   -11329380.739 4  -8828068.544 3
  23976519.402    17961357.528 2  13995838.356 1
  22013279.627     6091265.866 3   4746436.018 2
  23915328.459    -2245311.614 3  -1749578.741 1
  23761931.256    -1988316.824 2  -1549334.407 1
 91  6  3 18 31 45.0030000  0  5 02 18 19 11 06
  22328876.840   -11341692.681 4  -8837662.239 3
  23988774.018    18025726.581 2  14045995.965 1
  22018835.977     6120444.468 3   4769172.579 2
  23920147.023    -2219965.201 2  -1729828.326 1
  23758452.468    -2006630.034 2  -1563604.409 1
 91  6  3 18 32  0.0030000  0  5 02 18 19 11 06
  22326544.758   -11353919.516 4  -8847189.617 2
  24001030.431    18090154.493 2  14096199.384 1
  22024390.233     6149689.595 3   4791960.969 2
  23925002.467    -2194461.221 2  -1709955.087 2
  23754973.671    -2024922.257 2  -1577858.036 1
 91  6  3 18 32 15.0030000  0  5 02 18 19 11 06
  22324237.551   -11366064.335 3  -8856653.086 3
  24013301.834    18154637.775 2  14146445.968 1
  22029971.170     6178998.219 3   4814798.847 2
  23929893.580    -2168802.727 3  -1689961.447 1
  23751491.288    -2043196.463 2  -1592097.629 1
 91  6  3 18 32 30.0030000  0  5 02 18 19 11 06
  22321940.239   -11378123.797 4  -8866050.052 3
  24025579.834    18219179.556 2  14196738.137 1
  22035562.002     6208373.924 3   4837689.004 2
  23934807.178    -2142986.524 3  -1669844.925 1
  23748014.594    -2061449.338 2  -1606320.628 1
 91  6  3 18 32 45.0030000  0  5 02 18 19 11 06
  22319663.317   -11390096.273 4  -8875379.234 3
  24037881.225    18283781.204 2  14247076.968 1
  22041163.025     6237818.146 3   4860632.540 2
  23939747.762    -2117011.080 2  -1649604.325 1
  23744548.693    -2079679.201 2  -1620525.704 1
 91  6  3 18 33  0.0030000  0  5 02 18 19 11 06
  22317401.682   -11401984.362 4  -8884642.644 3
  24050188.899    18348439.479 2  14297459.905 1
  22046782.928     6267328.477 3   4883627.596 2
  23944712.619    -2090879.129 2  -1629241.767 1
  23741088.184    -2097888.780 2  -1634714.909 1
 91  6  3 18 33 15.0030000  0  5 02 18 19 11 06
  22315157.741   -11413792.263 4  -8893843.589 2
  24062500.175    18413150.265 2  14347883.747 1
  22052408.835     6296900.609 3   4906670.807 2
  23949721.556    -2064595.100 2  -1608760.705 1
  23737620.790    -2116082.272 2  -1648891.630 2
 91  6  3 18 33 30.0030000  0  5 02 18 19 11 06
  22312920.684   -11425524.349 4  -8902985.455 3
  24074822.847    18477908.845 2  14398344.862 1
  22058042.236     6326530.554 3   4929759.057 2
  23954751.773    -2038163.414 3  -1588164.603 2
  23734157.585    -2134263.948 2  -1663059.159 1
 91  6  3 18 33 45.0030000  0  5 02 18 19 11 06
  22310703.721   -11437174.195 4  -8912063.224 3
  24087148.512    18542721.338 2  14448847.984 1
  22063699.614     6356224.414 3   4952897.123 2
  23959806.569    -2011577.973 2  -1567448.675 1
  23730707.572    -2152427.394 2  -1677212.430 1
 91  6  3 18 34  0.0030000  0  5 02 18 19 11 06
  22308502.044   -11448746.031 4  -8921080.216 3
  24099484.673    18607583.167 2  14499389.565 1
  22069356.103     6385978.042 3   4976081.755 2
  23964897.644    -1984842.971 3  -1546616.189 1
  23727249.463    -2170576.893 2  -1691354.868 1
 91  6  3 18 34 15.0030000  0  5 02 18 19 11 06
  22306312.662   -11460239.344 4  -8930036.011 3
  24111847.515    18672494.491 2  14549969.652 1
  22075033.871     6415792.132 3   4999313.499 2
  23970004.607    -1957958.075 2  -1525666.917 2
  23723801.256    -2188711.865 2  -1705485.970 1
 91  6  3 18 34 30.0030000  0  5 02 18 19 11 06
  22304141.261   -11471653.240 4  -8938929.943 3
  24124210.358    18737455.900 2  14600588.767 1
  22080716.439     6445667.282 3   5022592.823 2
  23975155.048    -1930922.437 2  -1504600.197 2
  23720353.643    -2206831.374 2  -1719605.037 1
 91  6  3 18 34 45.0030000  0  5 02 18 19 11 06
  22301991.150   -11482982.651 4  -8947758.027 3
  24136589.690    18802472.119 2  14651250.660 1
  22086413.097     6475608.835 3   5045923.886 2
  23980329.761    -1903731.064 3  -1483412.139 1
  23716914.720    -2224930.369 2  -1733708.100 1
 91  6  3 18 35  0.0030000  0  5 02 18 19 11 06
  22299843.438   -11494230.528 4  -8956522.576 3
  24148963.317    18867539.973 2  14701952.735 2
  22092126.839     6505613.987 3   5069304.507 2
  23985535.057    -1876387.038 3  -1462105.072 1
  23713467.708    -2243011.699 2  -1747797.427 1
 91  6  3 18 35 15.0030000  0  5 02 18 19 11 06
  22297718.813   -11505397.059 4  -8965223.751 3
  24161350.441    18932659.262 2  14752694.908 1
  22097845.982     6535682.391 3   5092734.428 2
  23990763.438    -1848890.774 3  -1440679.431 1
  23710034.483    -2261075.525 2  -1761873.118 1
 91  6  3 18 35 30.0030000  0  5 02 18 19 11 06
  22295614.867   -11516482.838 4  -8973861.997 3
  24173756.159    18997829.042 2  14803476.438 1
  22103585.507     6565813.516 3   5116213.221 2
  23996023.597    -1821242.917 3  -1419135.645 1
  23706594.068    -2279122.485 2  -1775935.638 1
 91  6  3 18 35 45.0030000  0  5 02 18 19 11 06
  22293517.516   -11527487.408 4  -8982436.961 3
  24186166.963    19063049.471 2  14854297.391 1
  22109326.533     6596007.706 3   5139741.146 2
  24001315.838    -1793443.204 3  -1397473.535 2
  23703162.945    -2297152.092 2  -1789984.652 1
 91  6  3 18 36  0.0030000  0  5 02 18 19 11 06
  22291442.057   -11538412.408 4  -8990949.918 3
  24198588.866    19128318.590 2  14905156.325 1
  22115083.744     6626263.542 3   5163317.110 2
  24006631.454    -1765493.270 3  -1375694.364 1
  23699736.612    -2315165.906 2  -1804021.340 1
 91  6  3 18 36 15.0030000  0  5 02 18 19 11 06
  22289376.187   -11549259.748 4  -8999402.378 3
  24211017.365    19193633.979 2  14956051.307 1
  22120854.452     6656579.156 3   5186939.655 2
  24011981.847    -1737395.311 3  -1353799.844 1
  23696313.883    -2333165.892 2  -1818047.263 1
 91  6  3 18 36 30.0030000  0  5 02 18 19 11 06
  22287322.305   -11560025.138 4  -9007790.966 3
  24223456.054    19258999.976 2  15006985.679 1
  22126641.049     6686958.902 3   5210612.179 2
  24017361.331    -1709145.085 3  -1331786.700 1
  23692892.349    -2351147.667 2  -1832059.014 1
 91  6  3 18 36 45.0030000  0  5 02 18 19 11 06
  22285291.510   -11570712.777 4  -9016118.972 3
  24235899.839    19324411.873 2  15057955.868 1
  22132428.536     6717398.550 3   5234331.370 2
  24022768.385    -1680746.959 3  -1309658.298 1
  23689467.822    -2369115.547 2  -1846059.917 1
 91  6  3 18 37  0.0030000  0  5 02 18 19 11 06
  22283273.008   -11581319.290 4  -9024383.761 3
  24248367.907    19389872.871 2  15108964.291 1
  22138227.427     6747901.627 3   5258099.985 2
  24028195.525    -1652197.583 2  -1287412.016 1
  23686057.386    -2387065.925 2  -1860047.145 1
 91  6  3 18 37 15.0030000  0  6 02 18 19 16 11 06
  22281270.098   -11591846.831 4  -9032587.013 3
  24260823.078    19455380.488 2  15160009.040 1
  22144046.097     6778465.858 3   5281916.261 2
  24699431.142           0.243 2         0.129 1
  24033654.747    -1623499.373 3  -1265049.805 1
  23682642.745    -2405001.040 2  -1874022.528 1
 91  6  3 18 37 30.0030000  0  6 02 18 19 16 11 06
  22279280.372   -11602292.888 3  -9040726.787 3
  24273296.843    19520937.068 2  15211091.972 1
  22149873.458     6809093.710 3   5305782.105 2
  24704756.356       27971.775 2     21796.051 1
  24039143.050    -1594649.982 2  -1242569.754 1
  23679226.010    -2422918.414 2  -1887984.100 1
 91  6  3 18 37 45.0030000  0  6 02 18 19 16 11 06
  22277312.537   -11612656.166 4  -9048802.053 3
  24285781.706    19586543.551 2  15262213.740 1
  22155715.817     6839786.688 3   5329698.700 2
  24710099.551       56062.846 2     43685.146 1
  24044669.124    -1565648.178 3  -1219970.951 1
  23675828.165    -2440816.631 2  -1901930.708 1
 91  6  3 18 38  0.0030000  0  6 02 18 19 16 11 06
  22275352.791   -11622939.443 4  -9056814.962 3
  24298281.550    19652197.078 2  15313372.206 1
  22161574.064     6870542.299 3   5353664.097 2
  24715470.632       84270.405 2     65665.008 1
  24050211.689    -1536496.653 3  -1197255.446 1
  23672429.421    -2458698.285 2  -1915864.442 1
 91  6  3 18 38 15.0030000  0  6 02 18 19 16 11 06
  22273407.440   -11633139.779 3  -9064763.255 3
  24310790.686    19717900.003 2  15364569.121 1
  22167434.702     6901363.113 3   5377680.292 2
  24720859.102      112596.876 2     87737.548 1
  24055789.624    -1507192.848 3  -1174421.321 1
  23669021.681    -2476560.586 2  -1929783.067 1
 91  6  3 18 38 30.0030000  0  6 02 18 19 16 11 06
  22271490.569   -11643264.618 4  -9072652.725 2
  24323288.139    19783644.965 2  15415798.855 1
  22173314.230     6932241.942 3   5401741.697 2
  24726270.057      141034.910 2    109897.057 1
  24061390.647    -1477744.245 3  -1151474.360 1
  23665626.226    -2494410.767 2  -1943692.252 1
 91  6  3 18 38 45.0030000  0  6 02 18 19 16 11 06
  22269572.493   -11653313.632 4  -9080483.097 3
  24335819.167    19849431.680 2  15467061.072 1
  22179196.463     6963179.162 3   5425848.622 2
  24731702.895      169584.378 2    132143.306 1
  24067020.148    -1448150.800 3  -1128414.540 1
  23662242.167    -2512248.627 2  -1957591.867 1
 91  6  3 18 39  0.0030000  0  6 02 18 19 16 11 06
  22267674.512   -11663291.966 4  -9088258.403 3
  24348340.291    19915254.570 2  15518351.512 1
  22185093.982     6994169.489 3   5449996.912 2
  24737157.327      198239.681 2    154472.111 1
  24072680.528    -1418417.875 2  -1105246.013 1
  23658838.327    -2530079.385 2  -1971485.895 1
 91  6  3 18 39 15.0030000  0  6 02 18 19 16 11 06
  22265787.916   -11673200.711 4  -9095979.485 3
  24360864.723    19981112.649 2  15569669.374 1
  22191001.091     7025211.862 3   5474185.755 2
  24742627.333      226999.512 2    176882.322 1
  24078370.887    -1388546.750 3  -1081969.823 1
  23655449.172    -2547903.957 2  -1985375.146 1
 91  6  3 18 39 30.0030000  0  6 02 18 19 16 11 06
  22263917.515   -11683032.770 4  -9103640.811 3
  24373403.847    20047012.333 2  15621019.600 1
  22196921.993     7056313.489 3   5498420.766 2
  24748125.827      255870.881 2    199379.426 1
  24084071.445    -1358530.448 3  -1058580.496 1
  23652059.424    -2565715.400 2  -1999254.136 1
 91  6  3 18 39 45.0030000  0  6 02 18 19 16 11 06
  22262060.000   -11692790.321 4  -9111244.068 3
  24385962.751    20112951.148 2  15672400.363 1
  22202845.592     7087472.176 3   5522700.252 2
  24753637.809      284851.390 2    221961.625 1
  24089808.571    -1328371.245 2  -1035079.833 1
  23648670.862    -2583515.745 2  -2013124.479 2
 91  6  3 18 40  0.0030000  0  6 02 18 19 16 11 06
  22260220.773   -11702473.067 4  -9118789.047 3
  24398516.255    20178929.363 2  15723811.819 1
  22208793.472     7118688.336 3   5547024.521 2
  24759178.576      313941.239 2    244628.975 1
  24095575.083    -1298068.957 2  -1011467.634 1
  23645287.108    -2601304.546 2  -2026985.855 1
 91  6  3 18 40 15.0030000  0  6 02 18 19 16 11 06
  22258392.339   -11712076.916 4  -9126272.543 3
  24411077.262    20244951.058 2  15775257.125 1
  22214738.055     7149966.228 3   5571396.888 2
  24764732.230      343144.313 2    267384.593 1
  24101379.959    -1267619.464 3   -987740.772 1
  23641904.549    -2619077.724 2  -2040835.056 1
 91  6  3 18 40 30.0030000  0  6 02 18 19 16 11 06
  22256580.091   -11721601.718 4  -9133694.456 3
  24423651.156    20311015.562 2  15826735.842 1
  22220702.426     7181305.854 3   5595817.346 2
  24770304.172      372460.438 2    290228.284 1
  24107203.131    -1237022.998 3   -963899.381 1
  23638524.389    -2636835.040 2  -2054671.880 1
 91  6  3 18 40 45.0030000  0  6 02 18 19 16 11 06
  22254780.136   -11731048.006 4  -9141055.180 3
  24436233.749    20377122.444 2  15878247.523 1
  22226679.090     7212706.829 3   5620285.628 2
  24775909.392      401888.612 2    313159.287 1
  24113051.484    -1206280.021 3   -939943.806 1
  23635147.528    -2654576.966 2  -2068496.704 2
 91  6  3 18 41  0.0030000  0  6 02 18 19 16 11 06
  22252996.671   -11740418.604 4  -9148356.922 3
  24448814.535    20443268.491 2  15929789.788 1
  22232669.244     7244166.365 3   5644799.534 2
  24781532.602      431425.758 2    336175.270 1
  24118925.612    -1175393.663 3   -915876.532 1
  23631771.565    -2672306.384 2  -2082311.838 1
 91  6  3 18 41 15.0030000  0  6 02 18 19 16 11 06
  22251229.697   -11749707.243 4  -9155594.808 3
  24461413.915    20509459.799 2  15981367.233 1
  22238669.292     7275690.789 3   5669364.014 2
  24787174.100      461078.090 2    359280.942 1
  24124835.721    -1144357.801 3   -891692.720 1
  23628404.292    -2690016.951 2  -2096112.213 1
 91  6  3 18 41 30.0030000  0  6 02 18 19 16 11 06
  22249476.805   -11758916.281 4  -9162770.669 3
  24474012.990    20575693.939 2  16032978.089 1
  22244677.733     7307277.872 3   5693977.293 2
  24792839.279      490843.104 2    382474.420 1
  24130763.220    -1113174.895 3   -867394.362 1
  23625038.826    -2707710.868 2  -2109899.661 1
 91  6  3 18 41 45.0030000  0  6 02 18 19 16 11 06
  22247740.412   -11768048.275 4  -9169886.490 3
  24486628.861    20641967.646 2  16084619.806 1
  22250698.765     7338924.756 3   5718637.184 2
  24798525.135      520717.561 2    405753.139 1
  24136732.992    -1081847.800 3   -842983.643 1
  23621679.354    -2725390.867 2  -2123676.230 1
 91  6  3 18 42  0.0030000  0  6 02 18 19 16 11 06
  22246017.500   -11777102.416 4  -9176941.651 2
  24499244.722    20708281.440 2  16136292.771 1
  22256731.785     7370632.613 3   5743344.585 2
  24804228.687      550702.192 2    429117.744 1
  24142716.244    -1050375.825 3   -818460.032 1
  23618311.479    -2743055.966 2  -2137441.224 1
 91  6  3 18 42 15.0030000  0  6 02 18 19 16 11 06
  22244311.986   -11786079.000 4  -9183936.366 3
  24511877.380    20774634.826 2  16187996.593 1
  22262782.500     7402401.004 3   5768099.151 2
  24809953.231      580796.486 2    452567.783 1
  24148734.876    -1018759.325 2   -793823.778 1
  23614955.907    -2760706.382 2  -2151194.755 1
 91  6  3 18 42 30.0030000  0  6 02 18 19 16 11 06
  22242619.053   -11794978.387 4  -9190870.946 3
  24524516.328    20841027.206 2  16239730.743 1
  22268838.904     7434229.774 3   5792900.773 2
  24815707.143      610999.800 2    476102.760 1
  24154779.893     -986998.834 3   -769075.361 1
  23611599.427    -2778342.509 2  -2164937.155 1
 91  6  3 18 42 45.0030000  0  6 02 18 19 16 11 06
  22240937.820   -11803796.236 4  -9197741.980 3
  24537151.682    20907462.719 2  16291498.510 1
  22274902.209     7466123.224 3   5817752.792 2
  24821476.648      641316.339 2    499726.040 1
  24160850.693     -955090.247 3   -744211.512 1
  23608245.051    -2795959.972 2  -2178665.013 1
 91  6  3 18 43  0.0030000  0  6 02 18 19 16 11 06
  22239276.368   -11812530.922 4  -9204548.203 3
  24549803.526    20973942.730 2  16343300.984 1
  22280981.393     7498083.025 3   5842656.514 2
  24827261.142      671747.400 2    523438.442 1
  24166952.965     -923032.111 3   -719231.146 2
  23604895.167    -2813557.063 2  -2192377.016 1
 91  6  3 18 43 15.0030000  0  6 02 18 19 16 11 06
  22237631.109   -11821185.065 4  -9211291.674 3
  24562462.856    21040464.373 2  16395135.860 1
  22287081.876     7530106.583 3   5867609.913 2
  24833070.825      702290.192 2    547237.985 1
  24173080.722     -890827.143 3   -694136.368 1
  23601549.489    -2831136.333 2  -2206075.093 1
 91  6  3 18 43 30.0030000  0  6 02 18 19 16 11 06
  22235996.643   -11829754.925 4  -9217969.462 3
  24575124.595    21107030.989 2  16447005.778 1
  22293191.346     7562197.597 3   5892615.886 2
  24838910.776      732948.290 2    571127.453 1
  24179241.757     -858471.678 3   -668924.338 1
  23598209.797    -2848693.925 2  -2219756.303 1
 91  6  3 18 43 45.0030000  0  6 02 18 19 16 11 06
  22234380.761   -11838240.175 4  -9224581.332 3
  24587804.918    21173642.785 2  16498910.928 1
  22299306.513     7594356.617 3   5917674.839 2
  24844766.328      763721.780 2    595106.718 1
  24185433.373     -825965.681 3   -643594.984 1
  23594870.715    -2866229.550 2  -2233420.381 1
 91  6  3 18 44  0.0030000  0  6 02 18 19 16 11 06
  22232784.660   -11846645.836 4  -9231131.175 3
  24600487.640    21240294.329 2  16550847.074 1
  22305439.365     7626578.602 3   5942782.873 2
  24850641.659      794605.160 2    619171.610 1
  24191638.174     -793314.258 3   -618152.331 1
  23591542.418    -2883748.106 2  -2247071.179 1
 91  6  3 18 44 15.0030000  0  6 02 18 19 16 11 06
  22231198.758   -11854974.312 4  -9237620.867 3
  24613176.356    21306982.863 2  16602812.004 1
  22311579.713     7658861.033 3   5967937.988 2
  24856537.678      825595.591 2    643319.987 1
  24197871.461     -760520.103 3   -592598.428 1
  23588210.220    -2901252.094 2  -2260710.617 2
 91  6  3 18 44 30.0030000  0  6 02 18 19 16 11 06
  22229631.144   -11863218.452 4  -9244044.859 3
  24625877.358    21373715.440 2  16654811.242 1
  22317734.754     7691211.259 3   5993145.940 2
  24862456.181      856700.365 2    667557.269 1
  24204151.515     -727576.178 3   -566927.848 1
  23584882.525    -2918734.113 2  -2274332.934 1
 91  6  3 18 44 45.0030000  0  6 02 18 19 16 11 06
  22228077.926   -11871380.706 4  -9250405.033 3
  24638582.268    21440489.255 2  16706842.681 1
  22323904.784     7723626.846 3   6018404.828 2
  24868402.561      887916.526 2    691881.600 1
  24210442.659     -694485.030 3   -541142.544 1
  23581562.621    -2936196.627 2  -2287940.046 1
 91  6  3 18 45  0.0030000  0  6 02 18 19 16 11 06
  22226544.479   -11879461.567 4  -9256701.789 2
  24651293.460    21507303.900 2  16758905.889 1
  22330086.507     7756107.636 3   6043714.519 2
  24874362.438      919243.689 2    716292.366 1
  24216759.882     -661247.272 2   -515242.991 2
  23578239.427    -2953639.949 2  -2301532.218 1
 91  6  3 18 45 15.0030000  0  6 02 18 19 16 11 06
  22225017.943   -11887463.507 4  -9262937.046 3
  24664018.159    21574156.162 2  16810998.349 1
  22336278.420     7788651.034 3   6069072.995 2
  24880337.899      950678.901 2    740787.296 1
  24223121.185     -627865.577 3   -489231.281 1
  23574921.024    -2971066.511 2  -2315111.324 1
 91  6  3 18 45 30.0030000  0  6 02 18 19 16 11 06
  22223507.286   -11895384.291 4  -9269109.060 3
  24676747.945    21641047.941 2  16863121.686 1
  22342483.517     7821259.123 3   6094481.870 2
  24886345.738      982224.159 2    765367.960 1
  24229497.468     -594337.993 2   -463105.902 1
  23571612.812    -2988474.190 2  -2328675.711 1
 91  6  3 18 45 45.0030000  0  6 02 18 19 16 11 06
  22222020.615   -11903223.420 4  -9275217.457 3
  24689485.522    21707979.976 2  16915276.355 1
  22348702.416     7853932.608 3   6119941.715 2
  24892364.973     1013879.733 2    790034.583 1
  24235910.327     -560664.068 2   -436866.487 2
  23568299.504    -3005862.223 2  -2342224.803 2
 91  6  3 18 46  0.0030000  0  6 02 18 19 16 11 06
  22220542.939   -11910980.763 4  -9281262.114 3
  24702228.203    21774951.808 2  16967462.025 1
  22354932.703     7886671.703 3   6145452.679 2
  24898411.787     1045645.152 2    814786.797 1
  24242343.271     -526843.952 2   -410513.148 1
  23564998.490    -3023230.709 2  -2355758.662 1
 91  6  3 18 46 15.0030000  0  6 02 18 19 16 11 06
  22219077.252   -11918657.537 4  -9287243.985 3
  24714981.677    21841961.808 2  17019677.499 1
  22361176.478     7919475.095 3   6171013.744 2
  24904474.490     1077519.412 2    839623.893 1
  24248810.697     -492878.986 3   -384046.936 2
  23561696.874    -3040580.617 2  -2369278.055 2
 91  6  3 18 46 30.0030000  0  6 02 18 19 16 11 06
  22217633.456   -11926254.470 4  -9293163.655 3
  24727745.639    21909009.052 2  17071921.938 1
  22367425.654     7952342.088 3   6196624.366 2
  24910559.974     1109501.196 2    864544.700 1
  24255299.107     -458770.077 3   -357468.579 1
  23558399.760    -3057912.741 2  -2382783.538 1
 91  6  3 18 46 45.0030000  0  6 02 18 19 16 11 06
  22216201.648   -11933770.754 4  -9299020.474 3
  24740507.201    21976094.120 2  17124195.890 1
  22373697.611     7985273.635 3   6222285.292 2
  24916675.447     1141591.032 2    889549.743 1
  24261816.894     -424516.634 3   -330777.588 1
  23555098.441    -3075226.081 2  -2396274.446 1
 91  6  3 18 47  0.0030000  0  6 02 18 19 16 11 06
  22214788.119   -11941209.570 4  -9304816.939 3
  24753275.665    22043213.532 2  17176496.531 1
  22379973.163     8018266.604 3   6247994.079 2
  24922801.101     1173785.420 2    914636.201 1
  24268363.465     -390121.931 2   -303976.522 1
  23551810.924    -3092523.817 2  -2409753.159 2
 91  6  3 18 47 15.0030000  0  6 02 18 19 16 11 06
  22213388.987   -11948571.555 4  -9310553.522 3
  24766055.515    22110366.479 2  17228823.350 1
  22386264.909     8051320.389 3   6273750.269 2
  24928946.850     1206083.808 2    939803.769 1
  24274934.912     -355586.781 2   -277066.023 1
  23548522.500    -3109806.357 2  -2423220.016 2
 91  6  3 18 47 30.0030000  0  6 02 18 19 16 11 06
  22212002.454   -11955855.755 4  -9316229.506 3
  24778841.368    22177553.720 2  17281176.904 1
  22392567.448     8084435.890 3   6299554.527 2
  24935112.684     1238486.800 2    965052.722 1
  24281535.143     -320910.586 3   -250045.637 2
  23545233.475    -3127072.852 2  -2436674.393 2
 91  6  3 18 47 45.0030000  0  6 02 18 19 16 11 06
  22210631.504   -11963065.698 4  -9321847.623 3
  24791632.308    22244771.386 2  17333554.137 1
  22398879.575     8117609.798 3   6325404.303 2
  24941295.305     1270990.504 2    990380.303 1
  24288156.663     -286096.882 2   -222918.071 1
  23541949.544    -3144326.634 2  -2450118.885 1
 91  6  3 18 48  0.0030000  0  6 02 18 19 16 11 06
  22209276.442   -11970199.236 4  -9327406.207 3
  24804427.750    22312021.222 2  17385956.400 1
  22405207.897     8150844.259 3   6351301.262 2
  24947499.206     1303596.874 2   1015787.824 1
  24294807.255     -251143.753 2   -195681.887 2
  23538675.814    -3161565.483 3  -2463551.685 1
 91  6  3 18 48 15.0030000  0  6 02 18 19 16 11 06
  22207926.475   -11977260.539 4  -9332908.484 3
  24817235.189    22379299.076 2  17438380.595 1
  22411538.015     8184135.279 3   6377242.316 2
  24953726.194     1336301.469 2   1041271.874 1
  24301484.528     -216055.521 2   -168340.418 1
  23535395.487    -3178793.562 3  -2476976.137 1
 91  6  3 18 48 30.0030000  0  6 02 18 19 16 11 06
  22206600.189   -11984247.947 4  -9338353.205 3
  24830042.323    22446606.188 2  17490827.572 1
  22417880.428     8217484.512 3   6403228.703 2
  24959964.281     1369105.467 2   1066833.441 1
  24308192.087     -180830.916 2   -140892.681 2
  23532116.059    -3196009.207 2  -2490390.915 1
 91  6  3 18 48 45.0030000  0  6 02 18 19 16 11 06
  22205286.196   -11991158.955 4  -9343738.381 3
  24842856.646    22513944.717 2  17543298.980 1
  22424238.127     8250894.538 3   6429262.475 2
  24966230.540     1402011.071 2   1092474.100 1
  24314913.736     -145467.556 2   -113336.840 2
  23528841.421    -3213209.818 2  -2503793.949 1
 91  6  3 18 49  0.0030000  0  6 02 18 19 16 11 06
  22203985.405   -11997996.280 4  -9349066.141 3
  24855680.270    22581311.688 2  17595792.554 1
  22430616.208     8284362.662 3   6455341.503 2
  24972512.985     1435015.393 2   1118191.663 1
  24321669.858     -109968.356 2    -85675.136 2
  23525573.684    -3230398.011 3  -2517187.289 1
 91  6  3 18 49 15.0030000  0  6 02 18 19 16 11 06
  22202697.195   -12004759.476 4  -9354336.138 3
  24868505.395    22648707.410 2  17648308.528 1
  22436991.296     8317889.398 3   6481466.206 2
  24978809.530     1468118.921 2   1143986.590 1
  24328452.662      -74332.875 2    -57907.240 1
  23522305.049    -3247573.199 3  -2530570.518 2
 91  6  3 18 49 30.0030000  0  6 02 18 19 16 11 06
  22201425.475   -12011445.360 4  -9359545.896 3
  24881332.011    22716134.592 2  17700849.050 1
  22443381.068     8351477.900 3   6507639.041 2
  24985126.160     1501324.433 2   1169861.028 1
  24335265.445      -38558.204 2    -30030.878 2
  23519037.609    -3264732.210 2  -2543941.156 2
 91  6  3 18 49 45.0030000  0  6 02 18 19 16 11 06
  22200165.744   -12018051.363 4  -9364693.411 3
  24894162.834    22783595.708 2  17753415.967 1
  22449785.237     8385130.810 3   6533862.086 2
  24991464.070     1534634.427 2   1195816.763 1
  24342091.421       -2641.885 2     -2044.148 2
  23515778.563    -3281872.262 3  -2557297.011 1
 91  6  3 18 50  0.0030000  0  6 02 18 19 16 11 06
  22198928.498   -12024581.599 4  -9369781.886 3
  24907004.144    22851086.721 2  17806006.193 1
  22456202.598     8418844.166 3   6560132.207 2
  24997819.369     1568044.287 2   1221850.394 1
  24348949.775       33411.825 2     26049.651 2
  23512523.722    -3298997.409 3  -2570641.237 2
 91  6  3 18 50 15.0030000  0  6 02 18 19 16 11 06
  22197697.550   -12031029.848 4  -9374806.464 3
  24919870.329    22918613.127 2  17858623.989 1
  22462631.346     8452624.131 3   6586454.228 2
  25004199.553     1601559.674 2   1247966.200 1
  24355847.698       69608.837 2     54255.093 1
  23509266.770    -3316101.494 2  -2583969.067 2
 91  6  3 18 50 30.0030000  0  6 02 18 19 16 11 06
  22196485.493   -12037397.930 4  -9379768.588 3
  24932717.641    22986172.680 2  17911267.715 1
  22469076.278     8486469.104 3   6612826.912 2
  25010595.922     1635178.667 2   1274162.789 1
  24362755.811      105947.225 2     82570.709 1
  23506015.227    -3333186.127 3  -2597281.729 2
 91  6  3 18 50 45.0030000  0  6 02 18 19 16 11 06
  22195291.715   -12043687.155 4  -9384669.267 3
  24945580.232    23053764.116 2  17963936.172 1
  22475525.416     8520377.707 3   6639249.184 2
  25017014.478     1668899.846 2   1300438.958 1
  24369711.599      142425.397 3    110995.243 1
  23502766.372    -3350252.634 3  -2610580.267 2
 91  6  3 18 51  0.0030000  0  6 02 18 19 16 11 06
  22194105.737   -12049890.944 4  -9389503.368 3
  24958453.921    23121393.637 2  18016634.392 1
  22481992.240     8554356.535 3   6665726.166 2
  25023451.026     1702729.503 2   1326799.737 1
  24376667.081      179049.780 2    139533.720 1
  23499524.418    -3367294.349 3  -2623859.490 1
 91  6  3 18 51 15.0030000  0  6 02 18 19 16 11 06
  22192944.347   -12056017.337 4  -9394277.161 3
  24971323.709    23189052.973 2  18069355.806 1
  22488466.559     8588397.547 3   6692251.598 2
  25029910.058     1736659.203 2   1353238.387 1
  24383666.338      215812.079 2    168179.677 1
  23496283.965    -3384319.172 2  -2637125.568 1
 91  6  3 18 51 30.0030000  0  6 02 18 19 16 11 06
  22191787.441   -12062061.669 4  -9398987.010 3
  24984211.489    23256746.660 2  18122103.893 1
  22494951.068     8622505.535 3   6718829.222 2
  25036390.964     1770693.502 2   1379758.572 1
  24390685.077      252716.798 2    196936.584 1
  23493051.303    -3401322.373 2  -2650374.773 2
 91  6  3 18 51 45.0030000  0  6 02 18 19 16 11 06
  22190657.225   -12068022.905 4  -9403632.107 3
  24997091.774    23324475.237 2  18174879.335 1
  22501460.759     8656681.528 3   6745459.842 2
  25042882.672     1804832.996 2   1406360.655 1
  24397739.196      289764.734 2    225805.082 2
  23489818.938    -3418302.900 3  -2663606.302 1
 91  6  3 18 52  0.0030000  0  6 02 18 19 16 11 06
  22189536.607   -12073903.511 4  -9408214.379 3
  25009983.148    23392236.043 2  18227679.780 1
  22507977.953     8690923.100 3   6772141.556 2
  25049401.358     1839074.960 2   1433042.951 1
  24404813.995      326953.324 2    254783.172 2
  23486586.277    -3435263.077 2  -2676822.012 1
 91  6  3 18 52 15.0030000  0  6 02 18 19 16 11 06
  22188435.167   -12079704.579 4  -9412734.667 3
  25022888.614    23460027.726 2  18280504.326 1
  22514506.227     8725229.274 3   6798873.614 2
  25055935.636     1873417.949 2   1459803.926 1
  24411925.979      364281.257 3    283869.873 1
  23483365.900    -3452203.953 3  -2690022.660 2
 91  6  3 18 52 30.0030000  0  6 02 18 19 16 11 06
  22187346.919   -12085423.592 4  -9417191.025 3
  25035799.777    23527852.740 2  18333354.801 1
  22521050.705     8759602.604 3   6825658.002 2
  25062486.997     1907864.410 2   1486645.285 1
  24419051.444      401750.933 3    313067.025 2
  23480146.431    -3469122.831 2  -2703206.150 2
 91  6  3 18 52 45.0030000  0  6 02 18 19 16 11 06
  22186270.965   -12091063.757 4  -9421585.944 3
  25048704.047    23595707.535 2  18386228.477 1
  22527594.275     8794040.032 3   6852492.340 2
  25069062.353     1942410.940 2   1513564.596 1
  24426211.085      439358.967 3    342371.967 1
  23476927.259    -3486022.766 2  -2716374.897 2
 91  6  3 18 53  0.0030000  0  6 02 18 19 16 11 06
  22185212.696   -12096625.871 4  -9425920.025 3
  25061627.792    23663590.911 2  18439124.501 1
  22534167.222     8828540.771 3   6879375.993 2
  25075655.088     1977056.376 2   1540560.982 1
  24433378.823      477104.273 2    371783.889 1
  23473717.980    -3502904.492 2  -2729529.444 2
 91  6  3 18 53 15.0030000  0  6 02 18 19 16 11 06
  22184170.622   -12102109.909 4  -9430193.288 3
  25074556.048    23731502.755 2  18492042.666 1
  22540737.473     8863104.855 3   6906309.020 2
  25082270.606     2011800.215 2   1567634.032 1
  24440594.532      514986.455 2    401302.478 1
  23470509.007    -3519768.139 2  -2742669.925 2
 91  6  3 18 53 30.0030000  0  6 02 18 19 16 11 06
  22183140.832   -12107518.268 4  -9434407.569 3
  25087484.896    23799440.297 2  18544980.847 1
  22547332.905     8897729.945 3   6933289.596 2
  25088895.118     2046639.969 2   1594781.836 1
  24447826.426      553003.035 2    430925.760 2
  23467299.127    -3536615.885 3  -2755797.995 2
 91  6  3 18 53 45.0030000  0  6 02 18 19 16 11 06
  22182124.837   -12112850.801 4  -9438562.778 3
  25100411.643    23867403.248 2  18597938.828 1
  22553933.136     8932416.132 3   6960317.764 2
  25095546.016     2081575.439 2   1622004.226 1
  24455088.299      591153.950 2    460653.722 1
  23464096.148    -3553447.541 2  -2768913.546 1
 91  6  3 18 54  0.0030000  0  6 02 18 19 16 11 06
  22181125.026   -12118103.785 4  -9442655.991 3
  25113349.487    23935395.255 2  18650919.451 1
  22560544.762     8967167.297 3   6987396.562 2
  25102214.302     2116609.881 2   1649303.761 1
  24462372.648      629442.765 2    490489.165 1
  23460900.952    -3570259.240 3  -2782013.552 1
 91  6  3 18 54 15.0030000  0  6 02 18 19 16 11 06
  22180141.707   -12123275.611 4  -9446685.957 3
  25126296.624    24003417.881 2  18703923.985 1
  22567171.072     9001985.222 3   7014527.389 2
  25108900.571     2151745.024 2   1676681.686 1
  24469683.390      667870.813 2    520433.064 1
  23457706.071    -3587049.220 3  -2795096.594 2
 91  6  3 18 54 30.0030000  0  6 02 18 19 16 11 06
  22179175.776   -12128364.606 4  -9450651.397 3
  25139250.662    24071472.438 2  18756953.294 1
  22573811.473     9036871.583 3   7041711.539 2
  25115604.230     2186982.015 2   1704139.042 1
  24477027.707      706439.591 2    550486.622 1
  23454512.681    -3603815.781 3  -2808161.414 1
 91  6  3 18 54 45.0030000  0  6 02 18 19 16 11 06
  22178226.030   -12133373.872 4  -9454554.697 3
  25152205.590    24139555.688 2  18810005.027 1
  22580465.372     9071823.481 3   7068946.750 2
  25122328.872     2222317.835 2   1731673.379 1
  24484394.203      745146.044 2    580647.508 1
  23451333.975    -3620561.597 3  -2821210.066 2
 91  6  3 18 55  0.0030000  0  6 02 18 19 16 11 06
  22177280.787   -12138306.355 4  -9458398.171 3
  25165161.417    24207664.168 2  18863076.420 1
  22587120.466     9106837.954 3   7096230.733 2
  25129071.208     2257749.138 2   1759282.163 1
  24491784.388      783986.848 2    610913.051 1
  23448142.985    -3637289.847 3  -2834245.026 1
 91  6  3 18 55 15.0030000  0  6 02 18 19 16 11 06
  22176359.529   -12143158.378 4  -9462178.954 3
  25178127.749    24275801.574 2  18916170.369 1
  22593794.441     9141918.813 3   7123566.458 2
  25135834.520     2293279.440 2   1786968.067 1
  24499206.951      822965.544 2    641286.067 1
  23444962.194    -3653996.551 3  -2847263.202 1
 91  6  3 18 55 30.0040000  0  6 02 18 19 16 11 06
  22175450.559   -12147931.949 4  -9465898.604 3
  25191099.764    24343970.451 2  18969288.806 1
  22600484.308     9177066.756 3   7150954.421 2
  25142611.935     2328908.947 2   1814731.241 1
  24506649.298      862082.770 2    671767.005 1
  23441793.988    -3670684.520 3  -2860266.775 2
 91  6  3 18 55 45.0040000  0  6 02 18 19 16 11 06
  22174560.772   -12152624.843 4  -9469555.384 3
  25204075.982    24412162.854 2  19022425.537 1
  22607185.873     9212278.438 3   7178392.082 2
  25149407.329     2364634.039 2   1842568.958 1
  24514115.932      901334.638 2    702352.839 1
  23438616.487    -3687349.860 3  -2873252.734 2
 91  6  3 18 56  0.0040000  0  6 02 18 19 16 11 06
  22173680.880   -12157236.719 4  -9473149.041 3
  25217063.289    24480383.609 2  19075584.514 1
  22613910.515     9247557.045 2   7205881.872 2
  25156233.601     2400457.729 2   1870483.363 1
  24521608.340      940724.231 2    733046.028 1
  23435454.568    -3703993.023 3  -2886221.374 2
 91  6  3 18 56 15.0040000  0  6 02 18 19 16 11 06
  22172818.080   -12161767.843 4  -9476679.766 3
  25230049.104    24548632.259 2  19128765.072 1
  22620627.365     9282902.401 3   7233423.679 2
  25163067.071     2436379.191 2   1898474.103 1
  24529136.730      980251.133 2    763846.183 1
  23432284.570    -3720614.116 3  -2899172.857 2
 91  6  3 18 56 30.0040000  0  6 02 18 19 16 11 06
  22171969.668   -12166223.613 4  -9480151.784 3
  25243038.208    24616903.047 2  19181962.912 1
  22627367.896     9318309.135 3   7261013.315 2
  25169917.931     2472392.927 2   1926536.716 1
  24536677.415     1019909.629 2    794748.910 1
  23429126.255    -3737218.486 3  -2912111.286 2
 91  6  3 18 56 45.0040000  0  6 02 18 19 16 11 06
  22171136.246   -12170600.214 4  -9483562.108 3
  25256035.706    24685199.774 2  19235180.936 1
  22634110.529     9353781.162 3   7288653.838 2
  25176782.576     2508502.549 2   1954674.020 1
  24544256.166     1059703.403 2    825757.033 1
  23425968.237    -3753802.155 3  -2925033.599 1
 91  6  3 18 57  0.0040000  0  6 02 18 19 16 11 06
  22170320.806   -12174900.077 4  -9486912.637 3
  25269037.113    24753519.967 2  19288417.368 1
  22640872.654     9389316.169 3   7316343.417 2
  25183676.005     2544705.095 2   1982883.704 1
  24551843.608     1099629.904 2    856868.576 1
  23422822.818    -3770367.310 3  -2937941.473 2
 91  6  3 18 57 15.0040000  0  6 02 18 19 16 11 06
  22169515.260   -12179122.342 4  -9490202.695 3
  25282038.511    24821864.148 2  19341672.409 1
  22647654.559     9424915.146 3   7344082.851 2
  25190588.316     2581001.428 2   2011166.505 1
  24559476.325     1139689.811 2    888084.063 1
  23419673.499    -3786912.984 3  -2950834.167 1
 91  6  3 18 57 30.0040000  0  6 02 18 19 16 11 06
  22168727.409   -12183265.838 4  -9493431.375 3
  25295059.393    24890233.272 2  19394946.901 1
  22654434.963     9460579.308 3   7371873.095 2
  25197508.130     2617392.282 2   2039522.949 1
  24567127.931     1179884.004 2    919404.186 1
  23416523.577    -3803437.943 3  -2963710.745 2
 91  6  3 18 57 45.0040000  0  6 02 18 19 16 11 06
  22167953.343   -12187328.611 4  -9496597.154 3
  25308066.794    24958628.768 2  19448241.929 1
  22661241.447     9496310.703 3   7399715.726 2
  25204450.725     2653879.591 2   2067954.537 1
  24574791.229     1220214.280 2    950830.382 1
  23413390.146    -3819940.201 3  -2976569.597 2
 91  6  3 18 58  0.0040000  0  6 02 18 19 16 11 06
  22167194.573   -12191308.662 4  -9499698.470 3
  25321076.882    25027052.266 2  19501558.761 1
  22668054.536     9532111.212 3   7427612.187 2
  25211417.297     2690464.763 2   2096462.431 1
  24582495.596     1260682.315 2    982363.905 1
  23410250.119    -3836417.702 3  -2989409.170 2
 91  6  3 18 58 15.0040000  0  6 02 18 19 16 11 06
  22166452.284   -12195203.349 4  -9502733.267 3
  25334103.164    25095506.284 2  19554899.317 1
  22674870.913     9567983.509 3   7455564.595 2
  25218398.562     2727150.002 2   2125048.291 1
  24590220.642     1301290.275 2   1014006.430 1
  23407117.893    -3852867.854 3  -3002227.451 2
 91  6  3 18 58 30.0040000  0  6 02 18 19 16 11 06
  22165729.784   -12199013.748 4  -9505702.386 3
  25347142.936    25163989.525 2  19608262.756 1
  22681715.473     9603926.594 3   7483572.165 2
  25225396.920     2763934.301 2   2153711.259 1
  24597978.677     1342037.125 2   1045757.219 1
  23403995.551    -3869291.333 3  -3015024.905 2
 91  6  3 18 58 45.0040000  0  6 02 18 19 16 11 06
  22165024.071   -12202737.170 4  -9508603.732 3
  25360190.804    25232504.545 2  19661650.948 1
  22688572.929     9639943.325 3   7511637.128 2
  25232417.160     2800819.998 2   2182453.358 1
  24605768.184     1382925.245 2   1077618.057 1
  23400870.811    -3885685.382 3  -3027799.464 2
 91  6  3 18 59  0.0040000  0  6 02 18 19 16 11 06
  22164330.050   -12206377.320 4  -9511440.192 3
  25373229.676    25301047.115 2  19715060.597 1
  22695431.877     9676030.018 3   7539756.605 2
  25239447.896     2837802.978 2   2211271.203 1
  24613570.577     1423950.683 2   1109585.907 1
  23397760.763    -3902053.670 3  -3040553.940 2
 91  6  3 18 59 15.0040000  0  6 02 18 19 16 11 06
  22163653.418   -12209933.413 4  -9514211.149 3
  25386279.342    25369617.795 2  19768492.129 1
  22702319.609     9712187.407 3   7567931.169 2
  25246507.111     2874883.483 2   2240164.965 1
  24621408.954     1465113.992 2   1141661.208 1
  23394653.717    -3918395.399 3  -3053287.727 2
 91  6  3 18 59 30.0040000  0  6 02 18 19 16 11 06
  22162989.978   -12213402.263 4  -9516914.125 3
  25399328.414    25438219.840 2  19821948.115 1
  22709209.138     9748418.779 3   7596163.375 2
  25253583.410     2912064.887 2   2269137.458 1
  24629261.115     1506418.117 2   1173846.223 1
  23391549.969    -3934707.178 3  -3065998.165 2
 91  6  3 18 59 45.0040000  0  6 02 18 19 16 11 06
  22162350.227   -12216787.565 4  -9519552.005 3
  25412394.570    25506848.875 2  19875425.082 1
  22716120.253     9784720.488 3   7624450.382 2
  25260674.995     2949343.206 2   2298185.461 1
  24637146.555     1547859.289 2   1206138.032 2
  23388446.517    -3950992.528 3  -3078688.016 2
 91  6  3 19  0  0.0040000  0  6 02 18 19 16 11 06
  22161717.360   -12220089.041 4  -9522124.571 3
  25425463.422    25575505.278 2  19928923.449 1
  22723035.870     9821092.950 3   7652792.532 2
  25267788.472     2986718.064 2   2327308.605 1
  24645054.182     1589437.641 2   1238536.746 1
  23385356.258    -3967251.058 3  -3091356.953 1
 91  6  3 19  0 15.0040000  0  6 02 18 19 16 11 06
  22161108.181   -12223308.206 4  -9524632.973 3
  25438526.576    25644187.398 2  19982441.798 1
  22729977.863     9857534.609 3   7681188.608 2
  25274924.136     3024188.079 2   2356505.968 1
  24653000.182     1631151.392 2   1271040.930 1
  23382263.896    -3983484.062 3  -3104006.024 2
 91  6  3 19  0 30.0040000  0  6 02 18 19 16 11 06
  22160507.397   -12226443.245 4  -9527075.847 3
  25451600.227    25712896.514 2  20035981.210 1
  22736925.554     9894047.623 3   7709640.277 2
  25282070.288     3061754.712 2   2385778.616 1
  24660968.667     1673002.085 2   1303651.844 2
  23379180.530    -3999689.699 3  -3116633.761 2
 91  6  3 19  0 45.0040000  0  6 02 18 19 16 11 06
  22159930.903   -12229494.917 4  -9529453.759 3
  25464677.769    25781631.859 2  20089541.079 1
  22743888.235     9930631.153 3   7738146.888 2
  25289231.133     3099416.724 2   2415125.635 1
  24668955.134     1714988.748 2   1336368.691 1
  23376100.462    -4015868.604 3  -3129240.658 2
 91  6  3 19  1  0.0040000  0  6 02 18 19 16 11 06
  22159363.395   -12232470.571 4  -9531772.432 3
  25477768.207    25850385.604 2  20143115.218 1
  22750855.714     9967277.806 3   7766702.689 2
  25296419.550     3137166.368 2   2444540.864 1
  24676972.785     1757103.863 2   1369185.642 1
  23373024.294    -4032028.056 2  -3141832.397 2
 91  6  3 19  1 15.0040000  0  6 02 18 19 16 11 06
  22158812.073   -12235367.704 4  -9534029.911 3
  25490852.049    25919160.275 2  20196705.754 1
  22757839.378    10003990.267 3   7795309.771 2
  25303622.363     3175006.138 2   2474026.324 1
  24685003.628     1799349.792 2   1402104.523 1
  23369956.214    -4048165.268 3  -3154406.807 2
 91  6  3 19  1 30.0040000  0  6 02 18 19 16 11 06
  22158276.343   -12238186.755 4  -9536226.556 3
  25503943.385    25987955.049 2  20250311.948 1
  22764850.021    10040768.172 3   7823967.827 2
  25310838.072     3212935.442 2   2503581.572 1
  24693062.950     1841725.725 2   1435124.703 1
  23366892.637    -4064280.629 3  -3166964.192 1
 91  6  3 19  1 45.0040000  0  6 02 18 19 16 11 06
  22157755.305   -12240928.782 4  -9538363.194 3
  25517041.021    26056768.568 2  20303932.663 1
  22771860.672    10077610.334 3   7852675.995 2
  25318076.256     3250952.629 2   2533205.294 1
  24701155.245     1884230.169 2   1468245.049 1
  23363826.956    -4080375.309 3  -3179505.469 2
 91  6  3 19  2  0.0040000  0  6 02 18 19 16 11 06
  22157248.952   -12243594.588 4  -9540440.419 3
  25530148.246    26125599.694 2  20357567.202 1
  22778876.715    10114516.163 3   7881433.745 2
  25325323.445     3289056.572 2   2562896.569 1
  24709270.625     1926862.298 2   1501464.859 2
  23360764.277    -4096449.758 3  -3192030.968 2
 91  6  3 19  2 15.0040000  0  6 02 18 19 16 11 06
  22156754.300   -12246180.846 4  -9542455.664 3
  25543239.880    26194451.453 2  20411217.677 1
  22785916.438    10151488.998 3   7910243.711 2
  25332599.706     3327250.353 2   2592657.920 1
  24717412.391     1969625.148 2   1534786.510 1
  23357711.492    -4112500.609 3  -3204538.089 2
 91  6  3 19  2 30.0040000  0  6 02 18 19 16 11 06
  22156275.832   -12248688.655 4  -9544409.785 3
  25556354.006    26263322.673 2  20464883.382 1
  22792965.463    10188527.816 3   7939105.099 2
  25339875.374     3365532.711 2   2622488.267 1
  24725563.449     2012517.462 2   1568209.095 1
  23354668.297    -4128528.782 3  -3217027.536 2
 91  6  3 19  2 45.0040000  0  6 02 18 19 16 11 06
  22155813.846   -12251120.203 4  -9546304.475 3
  25569461.833    26332210.818 2  20518562.329 1
  22800023.770    10225630.472 3   7968016.222 2
  25347175.620     3403901.089 2   2652385.708 1
  24733752.277     2055536.780 2   1601730.637 1
  23351616.716    -4144536.433 3  -3229501.007 1
 91  6  3 19  3  0.0040000  0  6 02 18 19 16 11 06
  22155365.960   -12253478.177 4  -9548141.860 3
  25582570.855    26401113.158 2  20572252.326 1
  22807093.778    10262794.589 3   7996975.240 2
  25354500.741     3442352.645 2   2682347.874 1
  24741965.397     2098680.275 2   1635348.907 1
  23348575.919    -4160525.959 3  -3241960.327 2
 91  6  3 19  3 15.0040000  0  6 02 18 19 16 11 06
  22154933.361   -12255760.912 4  -9549920.584 3
  25595691.273    26470031.012 2  20625954.340 1
  22814179.675    10300021.619 3   8025983.280 2
  25361831.272     3480888.555 2   2712375.785 1
  24750202.188     2141949.324 2   1669065.034 1
  23345536.318    -4176495.625 3  -3254404.204 2
 91  6  3 19  3 30.0040000  0  6 02 18 19 16 11 06
  22154512.147   -12257968.984 4  -9551641.151 3
  25608801.499    26538963.313 2  20679667.635 1
  22821278.162    10337310.962 3   8055039.885 2
  25369176.785     3519507.957 2   2742468.817 1
  24758464.168     2185343.040 2   1702878.277 1
  23342502.118    -4192445.973 3  -3266833.002 2
 91  6  3 19  3 45.0040000  0  6 02 18 19 16 11 06
  22154105.331   -12260100.253 4  -9553301.862 3
  25621913.218    26607911.893 2  20733393.669 1
  22828383.838    10374664.936 3   8084146.847 2
  25376541.483     3558212.599 2   2772628.142 1
  24766739.942     2228863.303 2   1736790.162 1
  23339467.019    -4208374.662 3  -3279244.929 2
 91  6  3 19  4  0.0040000  0  6 02 18 19 16 11 06
  22153715.903   -12262159.236 4  -9554906.249 3
  25635039.935    26676872.515 2  20787129.043 1
  22835493.720    10412079.197 3   8113300.801 2
  25383926.869     3596997.873 2   2802850.432 1
  24775047.790     2272505.352 2   1770796.954 1
  23336443.019    -4224286.198 3  -3291643.483 2
 91  6  3 19  4 15.0040000  0  6 02 18 19 16 11 06
  22153334.869   -12264146.847 4  -9556455.016 3
  25648170.840    26745843.770 2  20840872.676 1
  22842630.580    10449552.786 3   8142500.971 2
  25391316.460     3635862.530 2   2833134.471 1
  24783371.832     2316268.198 2   1804897.840 1
  23333418.407    -4240181.193 3  -3304029.191 2
 91  6  3 19  4 30.0040000  0  6 02 18 19 16 11 06
  22152969.417   -12266061.122 4  -9557946.650 3
  25661294.258    26814827.154 2  20894625.812 1
  22849776.130    10487087.654 3   8171748.885 2
  25398729.130     3674808.009 2   2863481.564 1
  24791719.850     2360153.543 2   1839094.201 1
  23330393.508    -4256057.671 3  -3316400.437 2
 91  6  3 19  4 45.0040000  0  6 02 18 19 16 11 06
  22152620.160   -12267904.267 4  -9559382.859 3
  25674432.964    26883820.378 2  20948386.655 1
  22856934.872    10524681.624 3   8201042.870 2
  25406155.585     3713831.945 2   2893889.743 1
  24800090.353     2404158.779 2   1873383.973 1
  23327375.196    -4271917.738 3  -3328758.898 2
 91  6  3 19  5  0.0040000  0  6 02 18 19 16 11 06
  22152284.392   -12269674.612 4  -9560762.329 3
  25687560.274    26952824.935 2  21002156.293 1
  22864101.109    10562336.570 3   8230384.362 2
  25413594.037     3752935.873 2   2924360.286 1
  24808490.539     2448285.451 2   1907768.384 1
  23324365.575    -4287759.400 3  -3341103.016 2
 91  6  3 19  5 15.0040000  0  6 02 18 19 16 11 06
  22151963.316   -12271373.702 4  -9562086.280 3
  25700685.490    27021839.150 2  21055933.406 1
  22871271.552    10600050.961 3   8259772.175 2
  25421059.170     3792118.061 2   2954891.776 1
  24816909.912     2492531.674 2   1942245.901 1
  23321349.662    -4303584.182 3  -3353433.990 2
 91  6  3 19  5 30.0040000  0  6 02 18 19 16 11 06
  22151648.532   -12272999.411 4  -9563353.046 3
  25713827.790    27090864.951 2  21109719.578 1
  22878462.674    10637827.233 3   8289208.196 2
  25428521.302     3831380.202 2   2985485.660 1
  24825350.564     2536899.431 2   1976818.173 1
  23318345.747    -4319389.823 3  -3365750.004 2
 91  6  3 19  5 45.0040000  0  6 02 18 19 16 11 06
  22151359.835   -12274548.829 4  -9564560.377 3
  25726961.993    27159904.645 2  21163516.567 1
  22885663.087    10675668.067 3   8318694.534 2
  25436017.313     3870725.050 2   3016143.932 1
  24833819.705     2581391.354 2   2011487.171 1
  23315340.025    -4335173.216 3  -3378048.738 2
 91  6  3 19  6  0.0040000  0  6 02 18 19 16 11 06
  22151070.232   -12276023.452 4  -9565709.422 3
  25740101.300    27228956.723 2  21217323.197 1
  22892878.787    10713572.199 3   8348230.188 2
  25443513.621     3910150.869 2   3046865.270 1
  24842317.018     2626005.882 2   2046251.730 1
  23312339.103    -4350935.682 3  -3390331.146 2
 91  6  3 19  6 15.0040000  0  6 02 18 19 16 11 06
  22150808.513   -12277426.862 4  -9566802.967 3
  25753253.494    27298017.299 2  21271136.510 1
  22900098.396    10751536.091 3   8377812.426 2
  25451029.718     3949653.456 2   3077646.442 1
  24850818.834     2670739.224 2   2081108.864 1
  23309340.579    -4366680.629 3  -3402599.903 2
 91  6  3 19  6 30.0040000  0  6 02 18 19 16 11 06
  22150555.188   -12278757.927 4  -9567840.146 3
  25766390.995    27367087.392 2  21324957.234 1
  22907332.986    10789560.810 2   8407442.057 2
  25458560.508     3989233.558 2   3108488.031 1
  24859360.524     2715591.989 2   2116059.051 1
  23306351.950    -4382407.016 3  -3414854.190 2
 91  6  3 19  6 45.0040000  0  6 02 18 19 16 11 06
  22150316.853   -12280010.320 4  -9568816.030 3
  25779538.696    27436172.813 2  21378789.859 1
  22914583.464    10827652.734 2   8437124.057 2
  25466107.483     4028897.264 2   3139394.731 1
  24867909.403     2760570.305 2   2151107.080 1
  23303364.813    -4398108.372 3  -3427088.978 2
 91  6  3 19  7  0.0040000  0  6 02 18 19 16 11 06
  22150089.608   -12281186.077 4  -9569732.192 3
  25792687.898    27505271.461 2  21432632.749 1
  22921843.540    10865810.005 3   8466856.981 2
  25473675.442     4068642.412 2   3170364.923 1
  24876498.461     2805672.194 2   2186251.379 1
  23300381.585    -4413786.279 3  -3439305.513 2
 91  6  3 19  7 15.0040000  0  6 02 18 19 16 11 06
  22149885.152   -12282287.906 4  -9570590.747 3
  25805830.494    27574380.567 2  21486483.834 1
  22929125.498    10904029.856 3   8496638.649 2
  25481258.093     4108465.888 2   3201396.147 1
  24885106.697     2850894.415 2   2221489.458 2
  23297398.950    -4429443.521 3  -3451505.919 2
 91  6  3 19  7 30.0040000  0  6 02 18 19 16 11 06
  22149689.387   -12283316.959 4  -9571392.586 3
  25818982.087    27643498.533 2  21540341.797 1
  22936401.759    10942311.199 2   8526468.256 2
  25488845.841     4148366.263 2   3232487.243 1
  24893735.027     2896235.498 2   2256820.144 1
  23294427.100    -4445081.068 3  -3463690.983 2
 91  6  3 19  7 45.0040000  0  6 02 18 19 16 11 06
  22149508.018   -12284269.592 4  -9572134.883 3
  25832138.783    27712628.765 2  21594209.372 1
  22943699.911    10980657.783 2   8556348.683 2
  25496457.870     4188346.973 2   3263641.028 1
  24902384.638     2941699.067 2   2292246.290 1
  23291453.766    -4460695.288 3  -3475857.888 2
 91  6  3 19  8  0.0040000  0  6 02 18 19 16 11 06
  22149340.732   -12285145.664 4  -9572817.524 3
  25845297.870    27781771.237 2  21648086.494 1
  22951008.848    11019069.966 3   8586280.226 2
  25504076.199     4228408.248 2   3294857.451 1
  24911055.538     2987285.055 2   2327767.819 1
  23288487.316    -4476285.499 3  -3488006.069 2
 91  6  3 19  8 15.0040000  0  6 02 18 19 16 11 06
  22149188.732   -12285950.558 4  -9573444.704 3
  25858461.756    27850920.148 2  21701968.585 1
  22958333.376    11057542.489 2   8616258.797 2
  25511713.112     4268544.102 2   3326132.167 1
  24919763.310     3032987.722 2   2363380.247 1
  23285528.361    -4491857.183 3  -3500139.822 2
 91  6  3 19  8 30.0040000  0  6 02 18 19 16 11 06
  22149044.532   -12286678.135 4  -9574011.627 3
  25871619.953    27920081.598 2  21755860.449 1
  22965670.494    11096081.430 2   8646289.118 2
  25519368.008     4308760.157 2   3357469.273 1
  24928485.173     3078812.871 2   2399088.132 1
  23282570.314    -4507404.072 3  -3512254.238 2
 91  6  3 19  8 45.0040000  0  6 02 18 19 16 11 06
  22148921.019   -12287329.521 4  -9574519.179 3
  25884791.936    27989254.137 2  21809761.356
  22973007.020    11134685.524 2   8676370.209 2
  25527032.205     4349054.988 2   3388867.894 1
  24937213.929     3124759.076 2   2434890.347 1
  23279612.860    -4522927.152 3  -3524350.139 2
 91  6  3 19  9  0.0040000  0  6 02 18 19 16 11 06
  22148811.894   -12287908.857 4  -9574970.600 3
  25897947.428    28058433.349 2  21863667.255 1
  22980368.420    11173350.739 2   8706498.919 2
  25534717.080     4389424.412 2   3420324.531 1
  24945977.760     3170821.927 2   2470783.459 1
  23276662.002    -4538430.520 3  -3536430.622 2
 91  6  3 19  9 15.0040000  0  6 02 18 19 16 11 06
  22148715.962   -12288416.452 4  -9575366.118 3
  25911107.710    28127618.837 2  21917577.795 1
  22987738.520    11212077.034 2   8736675.224 2
  25542407.958     4429867.645 1   3451838.567 1
  24954778.166     3217000.992 2   2506767.115 1
  23273714.442    -4553914.107 3  -3548495.727 2
 91  6  3 19  9 30.0040000  0  6 02 18 19 16 11 06
  22148632.323   -12288852.166 4  -9575705.610 3
  25924285.391    28196810.417 2  21971493.178 1
  22995117.013    11250864.573 2   8766899.255 2
  25550126.119     4470384.785 1   3483410.485 1
  24963585.771     3263296.279 2   2542841.345 1
  23270773.775    -4569377.636 3  -3560545.194 2
 91  6  3 19  9 45.0040000  0  6 02 18 19 16 11 06
  22148564.869   -12289208.946 4  -9575983.609 3
  25937443.282    28266015.051 2  22025418.637 1
  23002519.491    11289720.465 2   8797176.553 2
  25557857.168     4510982.052 1   3515044.485 1
  24972414.953     3309714.606 2   2579011.426 1
  23267837.008    -4584813.899 3  -3572573.432 2
 91  6  3 19 10  0.0040000  0  6 02 18 19 16 11 06
  22148509.107   -12289493.147 4  -9576205.049 3
  25950625.753    28335225.984 2  22079349.112 1
  23009921.961    11328638.315 3   8827502.114 2
  25565593.006     4551653.191 1   3546736.215 1
  24981264.831     3356249.164 2   2615272.101 1
  23264899.944    -4600229.202 3  -3584585.300 2
 91  6  3 19 10 15.0040000  0  5 02 18 19 11 06
  22148470.132   -12289708.979 4  -9576373.212 3
  25963790.843    28404438.763 2  22133281.043 1
  23017336.427    11367613.962 2   8857872.735 2
  24990150.080     3402895.557 2   2651619.924 1
  23261966.179    -4615627.598 3  -3596584.026 2
 91  6  3 19 10 30.0040000  0  5 02 18 19 11 06
  22148443.450   -12289853.838 4  -9576486.080 3
  25976971.515    28473655.753 2  22187216.210 1
  23024764.383    11406650.088 2   8888290.479 2
  24999041.621     3449656.186 2   2688056.760 1
  23259042.604    -4631006.418 3  -3608567.485 2
 91  6  3 19 10 45.0040000  0  5 02 18 19 11 06
  22148432.963   -12289928.100 4  -9576543.922 3
  25990143.202    28542876.444 2  22241154.223 1
  23032204.336    11445746.482 2   8918755.163 2
  25007966.142     3496530.544 2   2724582.206 1
  23256120.225    -4646365.695 3  -3620535.709 2
 91  6  3 19 11  0.0040000  0  5 02 18 19 11 06
  22148426.367   -12289933.841 4  -9576548.382 3
  26003305.290    28612098.534 2  22295093.299 1
  23039654.183    11484901.018 3   8949265.158 2
  25016911.656     3543516.221 2   2761194.396 1
  23253200.542    -4661707.475 3  -3632490.288 2
 91  6  3 19 11 15.0040000  0  5 02 18 19 11 06
  22148439.856   -12289872.752 4  -9576500.761 3
  26016478.163    28681319.939 2  22349031.842 1
  23047115.110    11524112.158 3   8979819.262 2
  25025876.051     3590611.299 2   2797891.823 1
  23250277.866    -4677033.120 3  -3644432.327 2
 91  6  3 19 11 30.0040000  0  5 02 18 19 11 06
  22148465.036   -12289746.823 4  -9576402.616 4
  26029657.047    28750538.332 2  22402968.090 1
  23054585.339    11563378.026 3   9010416.012 2
  25034861.430     3637813.319 2   2834672.602 1
  23247368.086    -4692344.695 3  -3656363.388 2
 91  6  3 19 11 45.0040000  0  5 02 18 19 11 06
  22148496.211   -12289556.836 4  -9576254.567 3
  26042836.821    28819752.866 2  22456901.397 1
  23062072.661    11602697.737 3   9041054.706 2
  25043856.703     3685121.311 2   2871535.952 1
  23244464.893    -4707642.706 3  -3668283.867 2
 91  6  3 19 12  0.0040000  0  5 02 18 19 11 06
  22148553.177   -12289295.415 4  -9576050.838 3
  26055986.014    28888970.757 2  22510837.342 1
  23069569.265    11642078.738 3   9071741.174 2
  25052880.455     3732542.449 2   2908487.458 1
  23241554.205    -4722919.703 3  -3680187.982 2
 91  6  3 19 12 15.0040000  0  5 02 18 19 11 06
  22148613.136   -12288963.712 4  -9575792.353 3
  26069154.699    28958190.340 2  22564774.460 1
  23077071.576    11681519.870 3   9102474.485 2
  25061921.892     3780075.394 2   2945526.059 1
  23238647.418    -4738176.557 3  -3692076.406 2
 91  6  3 19 12 30.0040000  0  5 02 18 19 11 06
  22148686.584   -12288559.419 4  -9575477.307 3
  26082350.362    29027414.090 2  22618714.836 1
  23084581.374    11721023.835 3   9133256.755 2
  25070989.418     3827722.354 2   2982653.535 1
  23235748.727    -4753410.632 3  -3703947.088 2
 91  6  3 19 12 45.0040000  0  5 02 18 19 11 06
  22148774.725   -12288083.685 4  -9575106.580 3
  26095513.951    29096640.710 2  22672657.471 1
  23092113.359    11760589.512 3   9164087.117 2
  25080079.123     3875481.678 2   3019868.580 1
  23232856.929    -4768623.146 3  -3715800.942 2
 91  6  3 19 13  0.0040000  0  5 02 18 19 11 06
  22148885.944   -12287535.886 4  -9574679.705 3
  26108689.528    29165870.209 2  22726602.380 1
  23099662.436    11800217.632 3   9194966.138 2
  25089191.016     3923353.765 2   3057171.456 1
  23229971.126    -4783813.225 3  -3727637.331 2
 91  6  3 19 13 15.0040000  0  5 02 18 19 11 06
  22149003.463   -12286915.216 4  -9574196.052 3
  26121865.411    29235103.208 2  22780550.069 1
  23107207.317    11839908.882 3   9225894.357 1
  25098322.994     3971339.062 2   3094562.571 1
  23227080.523    -4798979.999 3  -3739455.564 2
 91  6  3 19 13 30.0040000  0  5 02 18 19 11 06
  22149131.172   -12286223.583 4  -9573657.098 3
  26135038.589    29304337.662 2  22834498.837 1
  23114776.175    11879661.313 3   9256870.239 2
  25107468.461     4019435.426 2   3132040.183 1
  23224197.119    -4814125.247 3  -3751257.021 2
 91  6  3 19 13 45.0040000  0  5 02 18 19 11 06
  22149274.473   -12285462.016 4  -9573063.653 3
  26148217.761    29373572.384 2  22888447.758 1
  23122348.627    11919474.073 3   9287893.124 2
  25116645.705     4067641.571 2   3169603.405 1
  23221317.615    -4829249.816 3  -3763042.361 2
 91  6  3 19 14  0.0040000  0  5 02 18 19 11 06
  22149435.164   -12284628.545 4  -9572414.176 3
  26161386.751    29442808.731 2  22942397.992 1
  23129944.471    11959349.198 3   9318964.625 2
  25125841.839     4115959.371 2   3207253.623 1
  23218445.903    -4844351.473 3  -3774809.840 2
 91  6  3 19 14 15.0040000  0  5 02 18 19 11 06
  22149606.944   -12283721.170 4  -9571707.116 3
  26174571.325    29512048.883 2  22996351.175 1
  23137538.212    11999288.782 3   9350086.343 2
  25135055.362     4164390.619 2   3244992.246 1
  23215572.096    -4859428.039 3  -3786557.784 2
 91  6  3 19 14 30.0040000  0  5 02 18 19 11 06
  22149794.019   -12282742.235 4  -9570944.278 3
  26187745.105    29581290.364 2  23050305.416 1
  23145153.845    12039290.558 3   9381256.527 2
  25144284.477     4212932.706 2   3282817.221 1
  23212713.576    -4874481.630 3  -3798287.818 2
 91  6  3 19 14 45.0040000  0  4 02 19 11 06
  22149997.872   -12281690.922 4  -9570125.058 3
  23152773.073    12079355.216 3   9412475.713 2
  25153556.458     4261585.987 2   3320728.820 1
  23209850.554    -4889511.285 3  -3809999.189 2
 91  6  3 19 15  0.0040000  0  4 02 19 11 06
  22150210.424   -12280569.368 4  -9569251.106 3
  23160413.581    12119480.771 2   9443742.345 2
  25162828.440     4310348.073 2   3358725.217 1
  23206995.934    -4904519.092 3  -3821693.543 2
 91  6  3 19 15 15.0040000  0  4 02 19 11 06
  22150438.569   -12279374.316 4  -9568319.877 4
  23168058.286    12159670.596 3   9475059.048 2
  25172127.102     4359222.034 2   3396808.812 1
  23204139.507    -4919501.717 3  -3833368.287 2
 91  6  3 19 15 30.0040000  0  4 02 19 11 06
  22150677.802   -12278103.414 4  -9567329.547 3
  23175718.286    12199926.960 2   9506427.593 2
  25181457.236     4408209.993 2   3434981.220 1
  23201302.573    -4934456.537 3  -3845021.338 2
 91  6  3 19 15 45.0040000  0  4 02 19 11 06
  22150934.129   -12276762.550 4  -9566284.699 3
  23183392.970    12240244.255 2   9537843.643 2
  25190789.177     4457305.665 2   3473237.551 1
  23198455.439    -4949389.072 3  -3856657.038 2
 91  6  3 19 16  0.0040000  0  4 02 19 11 06
  22151202.138   -12275348.289 4  -9565182.662 3
  23191079.346    12280625.762 2   9569309.713 2
  25200156.192     4506512.289 2   3511580.315 1
  23195620.006    -4964295.991 3  -3868272.796 2
 91  6  3 19 16 15.0040000  0  4 02 19 11 06
  22151485.442   -12273863.011 4  -9564025.289 3
  23198770.224    12321069.226 2   9600824.066 2
  25209540.901     4555827.238 2   3550007.552 1
  23192790.566    -4979179.393 3  -3879870.199 2
 91  6  3 19 16 30.0040000  0  4 02 19 11 06
  22151778.946   -12272305.609 4  -9562811.701 3
  23206480.890    12361575.966 3   9632387.721 2
  25218965.773     4605251.451 2   3588519.872 1
  23189953.929    -4994037.853 3  -3891448.199 2
 91  6  3 19 16 45.0040000  0  4 02 19 11 06
  22152092.230   -12270673.354 4  -9561539.806 3
  23214203.842    12402148.659 2   9664002.761 2
  25228381.352     4654787.242 2   3627119.174 1
  23187141.573    -5008868.693 3  -3903004.643 2
 91  6  3 19 17  0.0040000  0  4 02 19 11 06
  22152418.697   -12268969.618 4  -9560212.200 3
  23221933.992    12442784.058 2   9695666.686 2
  25237831.412     4704431.023 2   3665802.616 1
  23184319.332    -5023675.022 3  -3914542.027 2
 91  6  3 19 17 15.0040000  0  4 02 19 11 06
  22152757.162   -12267194.844 4  -9558829.245 4
  23229681.225    12483481.779 2   9727379.152 2
  25247280.871     4754182.106 2   3704569.616 1
  23181511.470    -5038457.035 3  -3926060.421 2
 91  6  3 19 17 30.0040000  0  4 02 19 11 06
  22153108.818   -12265347.482 4  -9557389.730 3
  23237444.653    12524243.293 2   9759141.327 2
  25256784.295     4804041.726 2   3743421.237 1
  23178701.819    -5053212.964 3  -3937558.518 2
 91  6  3 19 17 45.0040000  0  4 02 19 11 06
  22153470.675   -12263430.215 4  -9555895.737 3
  23245201.484    12565066.036 2   9790951.226 2
  25266277.222     4854006.820 2   3782355.071 1
  23175893.067    -5067945.609 3  -3949038.467 2
 91  6  3 19 18  0.0040000  0  4 02 19 11 06
  22153847.207   -12261446.439 4  -9554349.924 3
  23252984.997    12605946.628 2   9822806.191 2
  25275817.814     4904073.886 2   3821368.325 1
  23173093.904    -5082657.986 3  -3960502.616 2
 91  6  3 19 18 15.0040000  0  4 02 19 11 06
  22154237.542   -12259397.769 4  -9552753.539 3
  23260774.503    12646883.595 2   9854705.092 2
  25285358.407     4954241.022 2   3860459.572 1
  23170302.837    -5097351.323 3  -3971951.940 2
 91  6  3 19 18 30.0040000  0  4 02 19 11 06
  22154638.662   -12257282.033 4  -9551104.899 3
  23268571.802    12687879.281 2   9886649.751 2
  25294916.694     5004510.125 2   3899630.238 1
  23167508.464    -5112023.559 3  -3983384.797 2
 91  6  3 19 18 45.0040000  0  4 02 19 11 06
  22155055.975   -12255100.382 4  -9549404.888 3
  23276390.389    12728932.609 2   9918639.306 2
  25304518.449     5054879.741 2   3938879.288 1
  23164717.101    -5126675.595 3  -3994801.943 2
 91  6  3 19 19  0.0040000  0  4 02 19 11 06
  22155481.080   -12252855.682 4  -9547655.753 3
  23284212.877    12770040.625 2   9950671.488 2
  25314122.002     5105346.844 2   3978204.261 1
  23161935.327    -5141310.044 3  -4006205.378 2
 91  6  3 19 19 15.0040000  0  4 02 19 11 06
  22155924.175   -12250542.560 4  -9545853.312 3
  23292040.756    12811208.948 2   9982750.671 2
  25323735.144     5155916.527 2   4017609.149 1
  23159154.452    -5155921.303 3  -4017590.725 2
 91  6  3 19 19 30.0040000  0  4 02 19 11 06
  22156380.158   -12248157.307 4  -9543994.650 3
  23299889.925    12852441.147 2  10014879.608 1
  25333381.563     5206592.138 2   4057096.630 1
  23156380.774    -5170505.649 3  -4028955.127 2
 91  6  3 19 19 45.0040000  0  4 02 19 11 06
  22156843.340   -12245704.688 4  -9542083.505 3
  23307741.485    12893732.588 2  10047054.710 2
  25343046.575     5257368.677 2   4096662.728 2
  23153611.887    -5185067.507 3  -4040301.990 2
 91  6  3 19 20  0.0040000  0  4 02 19 11 06
  22157324.800   -12243182.378 4  -9540118.055 4
  23315618.836    12935085.410 2  10079277.662 2
  25352728.070     5308248.099 2   4136308.987 1
  23150842.407    -5199604.697 3  -4051629.643 2
 91  6  3 19 20 15.0040000  0  4 02 19 11 06
  22157817.062   -12240589.958 4  -9538097.967 3
  23323493.186    12976500.374 2  10111549.019 2
  25362432.057     5359230.711 2   4176035.629 1
  23148083.719    -5214116.383 3  -4062937.438 2
 91  6  3 19 20 30.0040000  0  4 02 19 11 06
  22158325.814   -12237924.116 4  -9536020.673 3
  23331393.013    13017980.928 2  10143871.488 2
  25372154.027     5410319.546 2   4215845.093 1
  23145324.726    -5228598.881 3  -4074222.462 2
 91  6  3 19 20 45.0040000  0  4 02 19 11 06
  22158845.351   -12235185.676 4  -9533886.810 3
  23339297.639    13059526.159 2  10176244.345 2
  25381890.080     5461513.432 2   4255736.422 1
  23142574.729    -5243052.946 3  -4085485.338 2
 91  6  3 19 21  0.0040000  0  4 02 19 11 06
  22159381.081   -12232374.612 4  -9531696.360 3
  23347222.053    13101136.118 2  10208667.650 2
  25391660.919     5512812.113 2   4295709.420 1
  23139828.632    -5257478.423 3  -4096725.956 2
 91  6  3 19 21 15.0040000  0  4 02 19 11 06
  22159929.698   -12229490.720 4  -9529449.154 3
  23355143.169    13142811.016 2  10241141.560 2
  25401432.954     5564215.435 2   4335763.904 1
  23137090.623    -5271874.908 3  -4107943.963 2
 91  6  3 19 21 30.0040000  0  4 02 19 11 06
  22160490.313   -12226534.104 4  -9527145.284 3
  23363086.770    13184551.018 2  10273666.204 2
  25411246.363     5615723.250 2   4375899.817 1
  23134355.022    -5286242.198 3  -4119139.241 2
 91  6  3 19 21 45.0040000  0  4 02 19 11 06
  22161071.911   -12223504.931 4  -9524784.878 4
  23371041.461    13226355.951 2  10306241.427 2
  25421064.265     5667334.974 2   4416116.738 1
  23131627.806    -5300580.410 3  -4130311.843 2
 91  6  3 19 22  0.0040000  0  4 02 19 11 06
  22161660.106   -12220405.303 4  -9522369.564 3
  23379008.454    13268223.541 2  10338865.476 2
  25430899.854     5719048.155 2   4456412.688 1
  23128905.694    -5314891.455 3  -4141463.272 2
 91  6  3 19 22 15.0040000  0  4 02 19 11 06
  22162264.782   -12217233.318 4  -9519897.869 3
  23386994.022    13310155.910 2  10371539.996 2
  25440758.825     5770864.493 2   4496789.043 1
  23126186.279    -5329173.296 3  -4152591.969 2
 91  6  3 19 22 30.0040000  0  4 02 19 11 06
  22162879.954   -12213990.795 4  -9517371.212 4
  23394977.793    13352151.338 2  10404263.670 2
  25450632.796     5822781.861 2   4537244.106 1
  23123475.850    -5343427.453 3  -4163699.064 2
 91  6  3 19 22 45.0040000  0  4 02 19 11 06
  22163511.024   -12210677.373 4  -9514789.314 3
  23402983.456    13394210.375 2  10437036.896 2
  25460528.639     5874800.454 2   4577778.054 1
  23120766.930    -5357653.220 3  -4174784.044 2
 91  6  3 19 23  0.0040000  0  4 02 19 11 06
  22164154.379   -12207295.994 4  -9512154.447 4
  23410997.503    13436329.798 2  10469857.178 2
  25470455.074     5926916.907 2   4618388.247 1
  23118067.294    -5371853.643 3  -4185849.298 2
 91  6  3 19 23 15.0040000  0  4 02 19 11 06
  22164807.924   -12203853.192 4  -9509471.729 3
  23419024.743    13478503.290 2  10502719.600 2
  25480393.191     5979124.652 2   4659069.552 1
  23115368.261    -5386034.884 3  -4196899.581 2
 91  6  3 19 23 30.0040000  0  4 02 19 11 06
  22165473.763   -12200344.738 4  -9506737.860 3
  23427061.284    13520735.322 2  10535627.643 2
  25490343.602     6031427.510 2   4699825.015 1
  23112669.235    -5400192.467 3  -4207931.431 2
 91  6  3 19 23 45.0040000  0  4 02 19 11 06
  22166153.694   -12196772.125 4  -9503953.990 4
  23435109.211    13563024.275 2  10568580.018 2
  25500312.300     6083823.637 2   4740653.150 1
  23109981.596    -5414327.812 3  -4218945.951 2
 91  6  3 19 24  0.0040000  0  4 02 19 11 06
  22166849.809   -12193128.093 4  -9501114.467 3
  23443166.134    13605377.671 2  10601582.618 2
  25510289.698     6136320.245 2   4781559.536 1
  23107301.147    -5428433.363 3  -4229937.271 2
 91  6  3 19 24 15.0040000  0  4 02 19 11 06
  22167554.623   -12189416.604 4  -9498222.384 4
  23451241.946    13647791.539 2  10634632.343 2
  25520318.949     6188912.975 2   4822540.831 1
  23104615.009    -5442512.975 3  -4240908.360 2
 91  6  3 19 24 30.0040000  0  4 02 19 11 06
  22168269.925   -12185638.510 4  -9495278.401 4
  23459323.447    13690264.863 2  10667728.389 2
  25530331.718     6241600.464 2   4863595.995 1
  23101948.057    -5456567.143 3  -4251859.620 2
 91  6  3 19 24 45.0040000  0  4 02 19 11 06
  22169004.117   -12181790.178 4  -9492279.684 3
  23467419.345    13732801.457 2  10700873.744 2
  25540386.760     6294386.347 2   4904727.845 1
  23099277.502    -5470592.095 3  -4262788.136 2
 91  6  3 19 25  0.0040000  0  4 02 19 11 06
  22169750.899   -12177872.955 4  -9489227.291 4
  23475521.533    13775399.809 2  10734067.215 1
  25550456.190     6347268.818 2   4945934.948 1
  23096613.246    -5484589.177 3  -4273694.914 2
 91  6  3 19 25 15.0040000  0  4 02 19 11 06
  22170510.577   -12173889.604 4  -9486123.374 4
  23483637.813    13818057.200 2  10767306.691 2
  25560524.416     6400244.846 2   4987214.957 1
  23093954.985    -5498560.811 3  -4284581.884 2
 91  6  3 19 25 30.0040000  0  4 02 19 11 06
  22171283.438   -12169839.129 4  -9482967.136 3
  23491774.186    13860774.791 2  10800593.090 2
  25570618.434     6453315.280 2   5028568.467 1
  23091300.929    -5512505.821 3  -4295448.081 2
 91  6  3 19 25 45.0040000  0  4 02 19 11 06
  22172061.099   -12165720.157 4  -9479757.532 4
  23499910.254    13903554.164 2  10833927.614 2
  25580745.118     6506481.150 2   5069996.403 1
  23088650.756    -5526422.631 3  -4306292.324 2
 91  6  3 19 26  0.0040000  0  4 02 19 11 06
  22172860.345   -12161537.146 4  -9476498.031 4
  23508058.607    13946391.008 2  10867306.910 2
  25590872.107     6559737.765 2   5111495.034 1
  23086007.187    -5540315.316 3  -4317117.758 2
 91  6  3 19 26 15.0040000  0  4 02 19 11 06
  22173668.892   -12157294.942 4  -9473192.400 3
  23516221.060    13989280.460 2  10900727.228 1
  25601023.684     6613079.899 2   5153060.315 1
  23083369.918    -5554188.644 3  -4327928.111 2
 91  6  3 19 26 30.0050000  0  4 02 19 11 06
  22174490.024   -12152985.202 4  -9469834.147 4
  23524401.498    14032233.582 2  10934197.154 2
  25611193.238     6666518.998 2   5194701.161 1
  23080729.643    -5568035.345 3  -4338717.724 2
 91  6  3 19 26 45.0050000  0  4 02 19 11 06
  22175321.945   -12148605.077 4  -9466421.046 4
  23532581.332    14075247.998 2  10967714.817 2
  25621380.483     6720051.024 2   5236414.382 1
  23078102.861    -5581849.739 3  -4349482.146 2
 91  6  3 19 27  0.0050000  0  4 02 19 11 06
  22176167.958   -12144156.115 4  -9462954.320 4
  23540777.359    14118324.568 2  11001280.931 2
  25631595.919     6773677.389 2   5278201.172 1
  23075476.377    -5595634.695 3  -4360223.648 2
 91  6  3 19 27 15.0050000  0  4 02 19 11 06
  22177027.460   -12139636.981 4  -9459432.894 3
  23548987.773    14161464.700 2  11034896.566 2
  25641810.142     6827398.967 2   5320062.078 1
  23072862.491    -5609388.499 3  -4370940.861 2
 91  6  3 19 27 30.0050000  0  4 02 19 11 06
  22177904.656   -12135045.385 4  -9455855.010 3
  23557216.476    14204670.918 2  11068563.694 2
  25652050.157     6881218.008 2   5361999.015 1
  23070254.294    -5623108.619 3  -4381631.829 2
 91  6  3 19 27 45.0050000  0  4 02 19 11 06
  22178789.347   -12130385.126 4  -9452223.625 4
  23565442.186    14247939.312 2  11102279.289 2
  25662315.649     6935130.437 2   5404008.692 1
  23067652.999    -5636798.701 3  -4392299.396 2
 91  6  3 19 28  0.0050000  0  4 02 19 11 06
  22179682.729   -12125653.261 4  -9448536.437 3
  23573694.568    14291273.201 2  11136045.901 1
  25672590.739     6989139.018 2   5446093.271 1
  23065047.804    -5650455.544 3  -4402941.067 2
 91  6  3 19 28 15.0050000  0  4 02 19 11 06
  22180601.893   -12120854.606 4  -9444797.213 3
  23581947.256    14334667.555 2  11169859.634 2
  25682890.101     7043238.417 2   5488248.602 1
  23062454.291    -5664083.657 3  -4413560.332 2
 91  6  3 19 28 30.0050000  0  4 02 19 11 06
  22181524.049   -12115991.837 4  -9441008.031 3
  23590219.130    14378119.901 2  11203718.567 2
  25693193.975     7097425.782 2   5530472.499 1
  23059864.391    -5677685.705 3  -4424159.311 2
 91  6  3 19 28 45.0050000  0  4 02 19 11 06
  22182465.096   -12111064.620 4  -9437168.622 3
  23598496.397    14421630.534 2  11237622.900 2
  25703526.921     7151701.069 2   5572764.886 1
  23057282.579    -5691261.066 3  -4434737.482 2
 91  6  3 19 29  0.0050000  0  4 02 19 11 06
  22183415.138   -12106069.001 4  -9433275.919 3
  23606789.857    14465203.479 2  11271575.807 2
  25713872.457     7206067.983 2   5615128.683 1
  23054707.058    -5704805.581 3  -4445291.620 2
 91  6  3 19 29 15.0050000  0  4 02 19 11 06
  22184376.872   -12101005.108 4  -9429330.000 4
  23615091.711    14508838.820 2  11305577.308 2
  25724228.184     7260526.204 2   5657563.658 1
  23052131.842    -5718319.038 3  -4455821.560 2
 91  6  3 19 29 30.0050000  0  4 02 19 11 06
  22185352.104   -12095872.240 4  -9425330.360 3
  23623405.858    14552537.256 2  11339628.001 2
  25734615.094     7315076.015 2   5700069.991 1
  23049570.412    -5731800.688 3  -4466326.721 2
 91  6  3 19 29 45.0050000  0  4 02 19 11 06
  22186346.513   -12090665.366 4  -9421273.024 3
  23631733.792    14596303.875 2  11373731.824 2
  25745013.400     7369722.312 2   5742651.490 1
  23047008.685    -5745245.175 3  -4476802.914 2
 91  6  3 19 30  0.0050000  0  4 02 19 11 06
  22187347.815   -12085389.117 4  -9417161.653 4
  23640077.317    14640133.831 2  11407884.970 2
  25755432.087     7424460.023 2   5785304.189 1
  23044456.556    -5758657.053 3  -4487253.710 2
 91  6  3 19 30 15.0050000  0  4 02 19 11 06
  22188365.617   -12080041.308 4  -9412994.519 4
  23648436.128    14684029.534 2  11442089.373 2
  25765862.763     7479291.239 2   5828029.809 1
  23041912.514    -5772033.787 3  -4497677.106 2
 91  6  3 19 30 30.0050000  0  4 02 19 11 06
  22189399.298   -12074623.115 4  -9408772.535 3
  23656797.644    14727989.848 2  11476344.115 1
  25776315.025     7534214.405 2   5870827.061 1
  23039370.576    -5785376.317 3  -4508073.856 2
 91  6  3 19 30 45.0050000  0  5 02 15 19 11 06
  22190444.077   -12069130.271 4  -9404492.380 3
  26121815.341           0.827 2         0.173 1
  23665174.438    14772019.080 2  11510652.551 2
  25786792.476     7589233.418 2   5913698.948 1
  23036844.526    -5798680.304 3  -4518440.581 2
 91  6  3 19 31  0.0050000  0  5 02 15 19 11 06
  22191506.237   -12063563.487 4  -9400154.611 3
  26118267.904      -18616.549 2    -14506.725 1
  23673567.731    14816116.684 2  11545014.279 2
  25797285.806     7644347.379 2   5956644.842 1
  23034312.177    -5811946.057 3  -4528777.495 2
 91  6  3 19 31 15.0050000  0  5 02 15 19 11 06
  22192577.698   -12057925.659 4  -9395761.488 3
  26114727.350      -37167.744 1    -28962.049 1
  23681976.912    14860279.707 2  11579426.967 2
  25807781.249     7699553.018 2   5999662.191 1
  23031804.118    -5825176.271 3  -4539086.712 2
 91  6  3 19 31 30.0050000  0  5 02 15 19 11 06
  22193663.843   -12052218.132 4  -9391314.043 3
  26111219.481      -55653.763 1    -43366.546 1
  23690386.984    14904506.865 2  11613889.627 2
  25818298.861     7754848.806 2   6042749.803 1
  23029285.860    -5838372.086 3  -4549369.158 2
 91  6  3 19 31 45.0050000  0  5 02 15 19 11 06
  22194758.984   -12046438.916 4  -9386810.750 4
  26107708.611      -74071.910 2    -57718.243 1
  23698821.346    14948800.249 2  11648403.919 2
  25828831.176     7810236.343 2   6085908.918 1
  23026785.584    -5851531.420 3  -4559623.151 2
 91  6  3 19 32  0.0050000  0  5 02 15 19 11 06
  22195879.611   -12040590.757 4  -9382253.732 4
  26104231.917      -92424.598 2    -72018.957 1
  23707250.316    14993157.175 2  11682967.690 1
  25839391.664     7865712.652 2   6129137.157 1
  23024288.920    -5864656.666 3  -4569850.595 2
 91  6  3 19 32 15.0050000  0  5 02 15 19 11 06
  22197000.840   -12034665.461 4  -9377636.606 3
  26100742.336     -110703.252 2    -86262.003 1
  23715708.061    15037585.677 2  11717587.211 1
  25849985.124     7921285.613 2   6172440.713 1
  23021797.343    -5877739.474 3  -4580044.966 2
 91  6  3 19 32 30.0050000  0  5 02 15 19 11 06
  22198146.045   -12028663.755 4  -9372959.938 3
  26097284.226     -128907.938 2   -100447.366 1
  23724186.188    15082085.139 2  11752262.093 1
  25860555.811     7976954.132 2   6215818.776 1
  23019313.558    -5890780.405 3  -4590206.705 2
 91  6  3 19 32 45.0050000  0  5 02 15 19 11 06
  22199302.942   -12022584.588 4  -9368222.915 4
  26093823.726     -147037.309 2   -114574.061 1
  23732662.823    15126656.767 2  11786993.212 2
  25871179.853     8032718.995 2   6259271.883 1
  23016840.871    -5903778.205 3  -4600334.840 2
 91  6  3 19 33  0.0050000  0  5 02 15 19 11 06
  22200475.431   -12016428.376 4  -9363425.860 3
  26090399.792     -165091.234 2   -128641.931 1
  23741150.243    15171300.244 2  11821780.277 2
  25881802.699     8088579.663 2   6302799.617 1
  23014378.078    -5916732.869 3  -4610429.343 2
 91  6  3 19 33 15.0050000  0  5 02 15 19 11 06
  22201660.807   -12010194.819 4  -9358568.530 3
  26086970.467     -183069.302 2   -142650.729 1
  23749669.448    15216015.669 2  11856623.410 1
  25892450.726     8144535.985 2   6346401.887 1
  23011920.075    -5929644.159 3  -4620490.075 3
 91  6  3 19 33 30.0050000  0  5 02 15 19 11 06
  22202862.376   -12003880.887 4  -9353648.581 4
  26083559.124     -200967.983 2   -156597.655 1
  23758194.045    15260806.250 2  11891525.096 1
  25903115.845     8200590.826 2   6390080.961 1
  23009471.975    -5942508.599 3  -4630514.280 2
 91  6  3 19 33 45.0050000  0  5 02 15 19 11 06
  22204079.834   -11997491.785 4  -9348670.057 3
  26080168.773     -218791.929 2   -170486.303 1
  23766726.739    15305666.816 2  11926481.343 2
  25913804.950     8256738.677 2   6433832.520 1
  23007033.761    -5955331.117 3  -4640505.832 2
 91  6  3 19 34  0.0050000  0  5 02 15 19 11 06
  22205304.787   -11991023.025 4  -9343629.457 3
  26076807.504     -236536.211 2   -184312.899 1
  23775278.314    15350601.962 2  11961495.693 2
  25924517.429     8312983.734 2   6477659.789 1
  23004603.644    -5968107.067 3  -4650461.097 2
 91  6  3 19 34 15.0050000  0  5 02 15 19 11 06
  22206557.320   -11984478.192 4  -9338529.574 3
  26073429.142     -254203.849 2   -198079.680
  23783840.691    15395608.113 2  11996565.396 2
  25935229.612     8369322.123 2   6521559.826 1
  23002176.222    -5980839.929 3  -4660382.784 2
 91  6  3 19 34 30.0050000  0  5 02 15 19 11 06
  22207805.360   -11977857.346 4  -9333370.468 3
  26070090.653     -271794.339 2   -211786.493 1
  23792418.354    15440685.377 2  12031690.448 1
  25945958.887     8425753.558 2   6565532.293 1
  22999760.798    -5993529.220 3  -4670270.509 2
 91  6  3 19 34 45.0050000  0  5 02 15 19 11 06
  22209084.574   -11971159.834 4  -9328151.629 4
  26066758.159     -289306.831 2   -225432.507 1
  23801014.899    15485834.321 2  12066871.394 1
  25956728.629     8482278.284 2   6609577.458 1
  22997354.666    -6006174.333 3  -4680123.823 2
 91  6  3 19 35  0.0050000  0  5 02 15 19 11 06
  22210376.074   -11964385.475 4  -9322872.896 4
  26063446.352     -306740.643 2   -239017.247 1
  23809614.445    15531055.151 2  12102108.358 2
  25967511.267     8538896.038 2   6653695.152 1
  22994958.420    -6018774.816 3  -4689942.363 2
 91  6  3 19 35 15.0050000  0  5 02 15 19 11 06
  22211681.376   -11957533.948 4  -9317534.036 4
  26060140.539     -324095.223 2   -252540.210 1
  23818233.779    15576348.334 2  12137401.693 2
  25978294.498     8595606.957 2   6697885.421 1
  22992567.879    -6031330.071 3  -4699725.653 2
 91  6  3 19 35 30.0050000  0  5 02 15 19 11 06
  22212999.260   -11950608.545 4  -9312137.613 4
  26056847.919     -341373.133 2   -266003.452 1
  23826863.008    15621710.631 2  12172748.880 2
  25989096.026     8652407.631 2   6742145.685 1
  22990189.624    -6043843.056 3  -4709476.006 2
 91  6  3 19 35 45.0050000  0  5 02 15 19 11 06
  22214327.344   -11943609.950 4  -9306684.161 4
  26053571.492     -358574.837 2   -279407.296 1
  23835509.922    15667141.414 2  12208149.437 1
  25999916.129     8709297.020 2   6786475.021 1
  22987817.668    -6056314.433 3  -4719193.936 2
 91  6  3 19 36  0.0050000  0  5 02 15 19 11 06
  22215675.504   -11936540.428 4  -9301175.438 3
  26050307.647     -375702.294 2   -292753.295 1
  23844170.326    15712638.437 2  12243601.597 1
  26010767.120     8766272.514 2   6830871.475 1
  22985450.503    -6068746.081 3  -4728880.913 2
 91  6  3 19 36 15.0050000  0  5 02 15 19 11 06
  22217033.567   -11929396.581 4  -9295608.795 3
  26047067.787     -392751.199 2   -306037.995 1
  23852850.814    15758205.134 2  12279108.043 1
  26021631.896     8823337.365 2   6875337.526 1
  22983095.037    -6081134.399 3  -4738534.115 2
 91  6  3 19 36 30.0050000  0  5 02 15 19 11 06
  22218407.519   -11922178.199 4  -9289984.076 4
  26043849.522     -409721.117 2   -319261.273 1
  23861519.917    15803841.726 2  12314668.973 2
  26032511.967     8880491.411 2   6919873.117 1
  22980743.167    -6093478.884 3  -4748153.182 2
 91  6  3 19 36 45.0050000  0  5 02 15 19 11 06
  22219794.061   -11914880.800 4  -9284297.782 3
  26040626.449     -426607.373 2   -332419.269 1
  23870225.586    15849552.754 2  12350287.900 2
  26043400.728     8937738.809 2   6964481.429 1
  22978400.283    -6105774.946 3  -4757734.502 2
 91  6  3 19 37  0.0050000  0  5 02 15 19 11 06
  22221201.578   -11907507.088 4  -9278552.026 3
  26037441.453     -443412.140 2   -345513.773 1
  23878937.555    15895335.511 2  12385962.721 2
  26054298.485     8995076.552 2   7009160.167 1
  22976069.100    -6118025.001 3  -4767279.971 2
 91  6  3 19 37 15.0050000  0  5 02 15 19 11 06
  22222616.005   -11900059.304 4  -9272748.542 4
  26034244.172     -460137.020 2   -358545.983 1
  23887660.020    15941187.715 2  12421691.659 1
  26065231.012     9052502.083 2   7053907.322 1
  22973750.202    -6130231.046 3  -4776791.157 2
 91  6  3 19 37 30.0050000  0  5 02 15 19 11 06
  22224046.313   -11892531.378 4  -9266882.631 4
  26031083.754     -476775.626 2   -371511.080 1
  23896393.871    15987115.502 2  12457479.492 1
  26076177.935     9110021.133 2   7098727.334 1
  22971439.400    -6142386.832 3  -4786263.166 2
 91  6  3 19 37 45.0050000  0  5 02 15 19 11 06
  22225499.706   -11884925.869 4  -9260956.247 4
  26027932.934     -493330.211 2   -384410.613 1
  23905157.702    16033116.331 2  12493324.211 2
  26087141.348     9167630.807 2   7143617.920 1
  22969132.202    -6154494.806 3  -4795697.928 2
 91  6  3 19 38  0.0050000  0  5 02 15 19 11 06
  22226957.297   -11877248.925 4  -9254974.209 3
  26024789.312     -509806.516 2   -397249.228 1
  23913931.131    16079184.036 2  12529221.056 1
  26098132.342     9225324.549 2   7188574.009 1
  22966840.290    -6166560.897 3  -4805100.063 2
 91  6  3 19 38 15.0050000  0  5 02 15 19 11 06
  22228434.074   -11869494.023 4  -9248931.417 4
  26021678.968     -526197.315 2   -410021.135 1
  23922699.761    16125325.477 2  12565175.382 1
  26109120.028     9283108.971 2   7233600.808 1
  22964542.978    -6178578.056 3  -4814464.062 2
 91  6  3 19 38 30.0050000  0  5 02 15 19 11 06
  22229919.244   -11861668.451 4  -9242833.574 3
  26018568.920     -542509.618 2   -422731.961 1
  23931490.273    16171533.347 2  12601181.450 1
  26120126.012     9340976.488 2   7278692.311 1
  22962272.652    -6190553.367 3  -4823795.455 2
 91  6  3 19 38 45.0050000  0  5 02 15 19 11 06
  22231425.102   -11853769.816 4  -9236678.786 3
  26015482.553     -558740.656 2   -435379.462 1
  23940302.371    16217809.789 2  12637240.954 1
  26131158.676     9398928.957 2   7323850.024 1
  22960000.521    -6202484.293 3  -4833092.262 2
 91  6  3 19 39  0.0050000  0  5 02 15 19 11 06
  22232940.854   -11845798.287 4  -9230467.190 3
  26012404.884     -574890.067 2   -447963.326 1
  23949124.669    16264154.938 2  12673354.004 1
  26142190.442     9456965.980 2   7369073.654 1
  22957738.885    -6214370.749 3  -4842354.406 2
 91  6  3 19 39 15.0050000  0  5 02 15 19 11 06
  22234474.292   -11837753.402 4  -9224198.448 4
  26009359.891     -590956.913 2   -460482.810 1
  23957953.258    16310569.220 2  12709520.890 2
  26153264.472     9515087.638 2   7414363.194 1
  22955477.250    -6226212.165 3  -4851581.479 2
 91  6  3 19 39 30.0050000  0  5 02 15 19 11 06
  22236020.024   -11829629.395 4  -9217868.051 3
  26006311.608     -606935.177 2   -472933.365 1
  23966807.324    16357058.394 2  12745746.173 1
  26164344.506     9573299.377 2   7459722.975 1
  22953236.903    -6238002.449 3  -4860768.692 2
 91  6  3 19 39 45.0050000  0  5 02 15 19 11 06
  22237581.042   -11821431.853 4  -9211480.352 3
  26003288.201     -622829.918 2   -485318.776 1
  23975657.201    16403616.990 2  12782025.563 1
  26175436.824     9631595.562 2   7505148.518 1
  22951004.349    -6249746.796 3  -4869920.110 2
 91  6  3 19 40  0.0050000  0  5 02 15 19 11 06
  22239153.751   -11813159.327 4  -9205034.215 3
  26000264.794     -638639.286 1   -497637.627 1
  23984534.956    16450246.610 2  12818360.233 2
  26186545.336     9689977.315 2   7550640.757 1
  22948778.094    -6261443.537 3  -4879034.432 2
 91  6  3 19 40 15.0050000  0  5 02 15 19 11 06
  22240738.161   -11804811.980 4  -9198529.789 4
  25997286.652     -654363.035 2   -509889.781 1
  23993420.197    16496947.152 2  12854750.221 2
  26197669.431     9748444.189 2   7596199.327 1
  22946559.325    -6273092.627 3  -4888111.638 2
 91  6  3 19 40 30.0050000  0  5 02 15 19 11 06
  22242344.148   -11796395.234 4  -9191971.286 4
  25994308.816     -670006.066 2   -522079.005 1
  24002315.646    16543713.002 2  12891191.087 1
  26208812.119     9806990.359 2   7641819.688 1
  22944354.053    -6284699.305 3  -4897155.771 2
 91  6  3 19 40 45.0050000  0  5 02 15 19 11 06
  22243959.131   -11787912.181 4  -9185361.106 3
  25991359.459     -685570.718 2   -534207.317 1
  24011228.476    16590541.262 2  12927680.568 2
  26219962.895     9865612.624 2   7687499.354 1
  22942155.073    -6296266.257 3  -4906168.954 2
 91  6  3 19 41  0.0050000  0  5 02 15 19 11 06
  22245585.500   -11779355.390 4  -9178693.467 3
  25988399.605     -701049.294 2   -546268.421 1
  24020161.085    16637439.285 2  12964224.435 1
  26231142.456     9924318.033 2   7733243.802 1
  22939963.596    -6307785.931 3  -4915145.289 2
 91  6  3 19 41 15.0050000  0  5 02 15 19 11 06
  22247227.766   -11770726.699 4  -9171969.808 3
  25985473.029     -716443.629 2   -558263.900 1
  24029090.710    16684405.188 2  13000821.165 1
  26242323.814     9983104.266 2   7779051.196 1
  22937779.003    -6319260.034 3  -4924086.131 2
 91  6  3 19 41 30.0050000  0  5 02 15 19 11 06
  22248881.715   -11762031.368 4  -9165194.229 3
  25982554.855     -731758.402 2   -570197.358 1
  24038041.014    16731433.877 2  13037466.823 1
  26253532.158    10041965.832 2   7824917.286 1
  22935604.313    -6330693.524 3  -4932995.313 2
 91  6  3 19 41 45.0050000  0  5 02 15 19 11 06
  22250550.663   -11753260.168 4  -9158359.518 3
  25979652.561     -746984.032 2   -582061.439 1
  24047003.010    16778534.648 2  13074168.662 2
  26264745.598    10100911.724 2   7870849.104 1
  22933436.211    -6342076.873 3  -4941865.429 2
 91  6  3 19 42  0.0050000  0  5 02 15 19 11 06
  22252230.997   -11744414.243 4  -9151466.583 3
  25976782.350     -762121.033 2   -593856.407 1
  24055982.988    16825706.249 2  13110925.704 1
  26275967.729    10159940.528 2   7916845.581 1
  22931283.107    -6353410.903 3  -4950697.113 2
 91  6  3 19 42 15.0050000  0  5 02 15 19 11 06
  22253934.723   -11735489.710 4  -9144512.402 3
  25973925.321     -777165.058 2   -605578.872 1
  24064973.166    16872952.841 2  13147741.160 1
  26287224.934    10219055.877 2   7962909.394 1
  22929135.387    -6364691.522 3  -4959487.174 2
 91  6  3 19 42 30.0050000  0  2 19 06
  24074022.098    16920443.789 2  13184747.029 1
  22927028.448    -6375749.064 3  -4968103.434 2
 91  6  3 19 42 45.0050000  0  2 19 06
  24082959.219    16967456.578 2  13221380.297 1
  22924825.872    -6387305.810 3  -4977108.669 2
 91  6  3 19 43  0.0050000  0  2 19 06
  24091104.273    17010293.475 2  13254759.666 1
  22921834.547      112039.67313     87316.435 3
